[[{"header":{"parameterUnit":"m.s-1","parameterCategory":1,"la1":31.0,"la2":29.5877,"lo1":-88.7671,"lo2":-86.6584,"dy":0.0162,"dx":0.0185,"nx":115,"ny":88,"refTime":"2023-08-30T12:00:00:Z","depth":0,"parameterNumber":2,"parameterNumberName":"U-component_of_WINDS"},"data":[0.0,0.0,0.0,0.0,0.0,0.0,0.0,0.0,0.0,0.0,0.0,0.0,0.0,0.0,0.0,0.0,0.0,0.0,0.0,0.0,0.0,0.0,0.0,0.0,0.0,0.0,0.0,0.0,0.0,0.0,0.0,0.0,0.0,0.0,0.0,0.0,0.0,0.0,0.0,0.0,0.0,0.0,0.0,0.0,0.0,0.0,0.0,0.0,0.0,0.0,0.0,0.0,0.0,0.0,0.0,0.0,0.0,0.0,0.0,0.0,0.0,0.0,0.0,0.0,0.0,0.0,0.0,0.0,0.0,0.0,0.0,0.0,0.0,0.0,0.0,0.0,0.0,0.0,0.0,0.0,0.0,0.0,0.0,0.0,0.0,0.0,0.0,0.0,0.0,0.0,0.0,0.0,0.0,0.0,0.0,0.0,0.0,0.0,0.0,0.0,0.0,0.0,0.0,0.0,0.0,0.0,0.0,0.0,0.0,0.0,0.0,0.0,0.0,0.0,0.0,0.0,0.0,0.0,0.0,0.0,0.0,0.0,0.0,0.0,0.0,0.0,0.0,0.0,0.0,0.0,0.0,0.0,0.0,0.0,0.0,0.0,0.0,0.0,0.0,0.0,0.0,0.0,0.0,0.0,0.0,0.0,0.0,0.0,0.0,0.0,0.0,0.0,0.0,0.0,0.0,0.0,0.0,0.0,0.0,0.0,0.0,0.0,0.0,0.0,0.0,0.0,0.0,0.0,0.0,0.0,0.0,0.0,0.0,0.0,0.0,0.0,0.0,0.0,0.0,0.0,0.0,0.0,0.0,0.0,0.0,0.0,0.0,0.0,0.0,0.0,0.0,0.0,0.0,0.0,0.0,0.0,0.0,0.0,0.0,0.0,0.0,0.0,0.0,0.0,0.0,0.0,0.0,0.0,0.0,0.0,0.0,0.0,0.0,0.0,0.0,0.0,0.0,0.0,0.0,0.0,0.0,0.0,0.0,0.0,0.0,0.0,0.0,0.0,0.0,0.0,0.0,0.0,0.0,0.0,0.0,0.0,0.0,0.0,0.0,0.0,0.0,0.0,0.0,0.0,0.0,0.0,0.0,0.0,0.0,0.0,0.0,0.0,0.0,0.0,0.0,0.0,0.0,0.0,0.0,0.0,0.0,0.0,0.0,0.0,0.0,0.0,0.0,0.0,0.0,0.0,0.0,0.0,0.0,0.0,0.0,0.0,0.0,0.0,0.0,0.0,0.0,0.0,0.0,0.0,0.0,0.0,0.0,0.0,0.0,0.0,0.0,0.0,0.0,0.0,0.0,0.0,0.0,0.0,0.0,0.0,0.0,0.0,0.0,0.0,0.0,0.0,0.0,0.0,0.0,0.0,0.0,0.0,0.0,0.0,0.0,0.0,0.0,0.0,0.0,0.0,0.0,0.0,0.0,0.0,0.0,0.0,0.0,0.0,0.0,0.0,0.0,0.0,0.0,0.0,0.0,0.0,0.0,0.0,0.0,0.0,0.0,0.0,0.0,0.0,0.0,0.0,0.0,0.0,0.0,0.0,0.0,0.0,0.0,0.0,0.0,0.0,0.0,0.0,0.0,0.0,0.0,0.0,0.0,0.0,0.0,0.0,0.0,0.0,0.0,0.0,0.0,0.0,0.0,0.0,0.0,0.0,0.0,0.0,0.0,0.0,0.0,0.0,0.0,0.0,0.0,0.0,0.0,0.0,0.0,0.0,0.0,0.0,0.0,0.0,0.0,0.0,0.0,0.0,0.0,0.0,0.0,0.0,0.0,0.0,0.0,0.0,0.0,0.0,0.0,0.0,0.0,0.0,0.0,0.0,0.0,0.0,0.0,0.0,0.0,0.0,0.0,0.0,0.0,0.0,0.0,0.0,0.0,0.0,0.0,0.0,0.0,0.0,0.0,0.0,0.0,0.0,0.0,0.0,0.0,0.0,0.0,0.0,0.0,0.0,0.0,0.0,0.0,0.0,0.0,0.0,0.0,0.0,0.0,0.0,0.0,0.0,0.0,0.0,0.0,0.0,0.0,0.0,0.0,0.0,0.0,0.0,0.0,0.0,0.0,0.0,0.0,0.0,0.0,0.0,0.0,0.0,0.0,0.0,0.0,0.0,0.0,0.0,0.0,0.0,0.0,0.0,0.0,0.0,0.0,0.0,0.0,0.0,0.0,0.0,0.0,0.0,0.0,0.0,0.0,0.0,0.0,0.0,0.0,0.0,0.0,0.0,0.0,0.0,0.0,0.0,0.0,0.0,0.0,0.0,0.0,0.0,0.0,0.0,0.0,0.0,0.0,0.0,0.0,0.0,0.0,0.0,0.0,0.0,0.0,0.0,0.0,0.0,0.0,0.0,0.0,0.0,0.0,0.0,0.0,0.0,0.0,0.0,0.0,0.0,0.0,0.0,0.0,0.0,0.0,0.0,0.0,0.0,0.0,0.0,0.0,0.0,0.0,0.0,0.0,0.0,0.0,0.0,0.0,0.0,0.0,0.0,0.0,0.0,0.0,0.0,0.0,0.0,0.0,0.0,0.0,0.0,0.0,0.0,0.0,0.0,0.0,0.0,0.0,0.0,0.0,0.0,0.0,0.0,0.0,0.0,0.0,0.0,0.0,0.0,0.0,0.0,0.0,0.0,0.0,0.0,0.0,0.0,0.0,0.0,0.0,0.0,0.0,0.0,0.0,0.0,0.0,0.0,0.0,0.0,0.0,0.0,0.0,0.0,0.0,0.0,0.0,0.0,0.0,0.0,0.0,0.0,0.0,0.0,0.0,0.0,0.0,0.0,0.0,0.0,0.0,0.0,0.0,0.0,0.0,0.0,0.0,0.0,0.0,0.0,0.0,0.0,0.0,0.0,0.0,0.0,0.0,0.0,0.0,0.0,0.0,0.0,0.0,0.0,0.0,0.0,0.0,0.0,0.0,0.0,0.0,0.0,0.0,0.0,0.0,0.0,0.0,0.0,0.0,0.0,0.0,0.0,0.0,0.0,0.0,0.0,0.0,0.0,0.0,0.0,0.0,0.0,0.0,0.0,0.0,0.0,0.0,0.0,0.0,0.0,0.0,0.0,0.0,0.0,0.0,0.0,0.0,0.0,0.0,0.0,0.0,0.0,0.0,0.0,0.0,0.0,0.0,0.0,0.0,0.0,0.0,0.0,0.0,0.0,0.0,0.0,0.0,0.0,0.0,0.0,0.0,0.0,0.0,0.0,0.0,0.0,0.0,0.0,0.0,0.0,0.0,0.0,0.0,0.0,0.0,0.0,0.0,0.0,0.0,0.0,0.0,0.0,0.0,0.0,0.0,0.0,0.0,0.0,0.0,0.0,0.0,0.0,0.0,0.0,0.0,0.0,0.0,0.0,0.0,0.0,0.0,0.0,0.0,0.0,0.0,0.0,0.0,0.0,0.0,0.0,0.0,0.0,0.0,0.0,0.0,0.0,0.0,0.0,0.0,0.0,0.0,0.0,0.0,0.0,0.0,0.0,0.0,0.0,0.0,0.0,0.0,0.0,0.0,0.0,0.0,0.0,0.0,0.0,0.0,0.0,0.0,0.0,0.0,0.0,0.0,0.0,0.0,0.0,0.0,0.0,0.0,0.0,0.0,0.0,0.0,0.0,0.0,0.0,0.0,0.0,0.0,0.0,0.0,0.0,0.0,0.0,0.0,0.0,0.0,0.0,0.0,0.0,0.0,0.0,0.0,0.0,0.0,0.0,0.0,0.0,0.0,0.0,0.0,0.0,0.0,0.0,0.0,0.0,0.0,0.0,0.0,0.0,0.0,0.0,0.0,0.0,0.0,0.0,0.0,0.0,0.0,0.0,0.0,0.0,0.0,0.0,0.0,0.0,0.0,0.0,0.0,0.0,0.0,0.0,0.0,0.0,0.0,0.0,0.0,0.0,0.0,0.0,0.0,0.0,0.0,0.0,0.0,0.0,0.0,0.0,0.0,0.0,0.0,0.0,0.0,0.0,0.0,0.0,0.0,0.0,0.0,0.0,0.0,0.0,0.0,0.0,0.0,0.0,0.0,0.0,0.0,0.0,0.0,0.0,0.0,0.0,0.0,0.0,0.0,0.0,0.0,0.0,0.0,0.0,0.0,0.0,0.0,0.0,0.0,0.0,0.0,0.0,0.0,0.0,0.0,0.0,0.0,0.0,0.0,0.0,0.0,0.0,0.0,0.0,0.0,0.0,0.0,0.0,0.0,0.0,0.0,0.0,0.0,0.0,0.0,0.0,0.0,0.0,0.0,0.0,0.0,0.0,3.7218,0.0,0.0,0.0,0.0,0.0,0.0,0.0,0.0,0.0,0.0,0.0,0.0,0.0,0.0,0.0,0.0,0.0,0.0,0.0,0.0,0.0,0.0,0.0,0.0,0.0,0.0,0.0,0.0,0.0,0.0,0.0,0.0,0.0,0.0,0.0,0.0,0.0,0.0,0.0,0.0,0.0,0.0,0.0,0.0,0.0,0.0,0.0,0.0,0.0,0.0,0.0,0.0,0.0,0.0,0.0,0.0,0.0,0.0,0.0,0.0,0.0,0.0,0.0,0.0,0.0,0.0,0.0,0.0,0.0,0.0,0.0,0.0,0.0,0.0,0.0,0.0,0.0,0.0,0.0,0.0,0.0,0.0,0.0,0.0,0.0,0.0,0.0,0.0,0.0,0.0,0.0,0.0,0.0,0.0,0.0,0.0,0.0,0.0,0.0,0.0,0.0,0.0,0.0,0.0,0.0,0.0,0.0,0.0,0.0,0.0,4.0907,4.0869,3.9349,3.8085,3.7155,0.0,0.0,0.0,0.0,0.0,0.0,0.0,0.0,0.0,0.0,0.0,0.0,0.0,0.0,0.0,0.0,0.0,0.0,0.0,0.0,0.0,0.0,0.0,0.0,0.0,0.0,0.0,0.0,0.0,0.0,0.0,0.0,0.0,0.0,0.0,0.0,0.0,0.0,0.0,0.0,0.0,0.0,0.0,0.0,0.0,0.0,0.0,0.0,0.0,0.0,0.0,0.0,0.0,0.0,0.0,0.0,0.0,0.0,0.0,0.0,0.0,0.0,0.0,0.0,0.0,0.0,0.0,0.0,0.0,0.0,0.0,0.0,0.0,0.0,0.0,0.0,0.0,0.0,0.0,0.0,0.0,0.0,0.0,0.0,0.0,0.0,0.0,0.0,0.0,0.0,0.0,0.0,0.0,0.0,0.0,0.0,0.0,0.0,0.0,0.0,0.0,0.0,0.0,0.0,0.0,0.0,0.0,0.0,0.0,0.0,0.0,0.0,4.0112,3.8539,3.6883,0.0,0.0,0.0,0.0,0.0,0.0,0.0,0.0,0.0,0.0,0.0,0.0,0.0,0.0,0.0,0.0,0.0,0.0,0.0,0.0,0.0,0.0,0.0,0.0,0.0,0.0,0.0,0.0,0.0,0.0,0.0,0.0,0.0,0.0,0.0,0.0,0.0,0.0,0.0,0.0,0.0,0.0,0.0,0.0,0.0,0.0,0.0,0.0,0.0,0.0,0.0,0.0,0.0,0.0,0.0,0.0,0.0,0.0,0.0,0.0,0.0,0.0,0.0,0.0,0.0,0.0,0.0,0.0,0.0,0.0,0.0,0.0,0.0,0.0,0.0,0.0,0.0,0.0,0.0,0.0,0.0,0.0,0.0,0.0,0.0,0.0,0.0,0.0,0.0,0.0,0.0,0.0,0.0,0.0,0.0,0.0,0.0,0.0,0.0,0.0,0.0,0.0,0.0,0.0,0.0,0.0,0.0,0.0,0.0,0.0,4.1636,4.3197,4.2334,0.0,3.6163,0.0,0.0,0.0,0.0,0.0,0.0,0.0,0.0,0.0,0.0,0.0,0.0,0.0,0.0,0.0,0.0,0.0,0.0,0.0,0.0,0.0,0.0,0.0,0.0,0.0,0.0,0.0,0.0,0.0,0.0,0.0,0.0,0.0,0.0,0.0,0.0,0.0,0.0,0.0,0.0,0.0,0.0,0.0,0.0,0.0,0.0,0.0,0.0,0.0,0.0,0.0,0.0,0.0,0.0,0.0,0.0,0.0,0.0,0.0,0.0,0.0,0.0,0.0,0.0,0.0,0.0,0.0,0.0,0.0,0.0,0.0,0.0,0.0,0.0,0.0,0.0,0.0,0.0,0.0,0.0,0.0,0.0,0.0,0.0,0.0,0.0,0.0,0.0,0.0,0.0,0.0,0.0,0.0,0.0,0.0,0.0,0.0,0.0,0.0,0.0,0.0,0.0,0.0,0.0,0.0,0.0,0.0,0.0,0.0,0.0,4.2177,4.3412,4.1585,3.881,0.0,0.0,0.0,0.0,0.0,0.0,0.0,0.0,0.0,0.0,0.0,0.0,0.0,0.0,0.0,0.0,0.0,0.0,0.0,0.0,0.0,0.0,0.0,0.0,0.0,0.0,0.0,0.0,0.0,0.0,0.0,0.0,0.0,0.0,0.0,0.0,0.0,0.0,0.0,0.0,0.0,0.0,0.0,0.0,0.0,0.0,0.0,0.0,0.0,0.0,0.0,0.0,0.0,0.0,0.0,0.0,0.0,0.0,0.0,0.0,0.0,0.0,0.0,0.0,0.0,0.0,0.0,0.0,0.0,0.0,0.0,0.0,0.0,0.0,0.0,0.0,0.0,0.0,0.0,0.0,0.0,0.0,0.0,0.0,0.0,0.0,0.0,0.0,0.0,0.0,0.0,0.0,0.0,0.0,0.0,0.0,0.0,0.0,0.0,0.0,0.0,0.0,0.0,0.0,0.0,0.0,0.0,0.0,0.0,0.0,4.2455,4.2621,4.3555,4.1451,3.8357,3.4488,0.0,0.0,0.0,0.0,0.0,0.0,0.0,0.0,0.0,0.0,0.0,0.0,0.0,0.0,0.0,0.0,0.0,0.0,0.0,0.0,0.0,0.0,0.0,0.0,0.0,0.0,0.0,0.0,0.0,0.0,0.0,0.0,0.0,0.0,0.0,0.0,0.0,0.0,0.0,0.0,0.0,0.0,0.0,0.0,0.0,0.0,0.0,0.0,0.0,0.0,0.0,0.0,0.0,0.0,0.0,0.0,0.0,0.0,0.0,0.0,0.0,0.0,0.0,0.0,0.0,0.0,0.0,0.0,0.0,0.0,0.0,0.0,0.0,0.0,0.0,0.0,0.0,0.0,0.0,0.0,0.0,0.0,0.0,0.0,0.0,0.0,0.0,0.0,0.0,0.0,0.0,0.0,0.0,0.0,0.0,0.0,0.0,0.0,0.0,0.0,0.0,0.0,0.0,0.0,0.0,0.0,0.0,0.0,4.5269,4.3285,4.292,4.4521,4.2896,3.9569,0.0,0.0,0.0,0.0,0.0,0.0,0.0,0.0,0.0,0.0,0.0,0.0,0.0,0.0,0.0,0.0,0.0,0.0,0.0,0.0,0.0,0.0,0.0,0.0,0.0,0.0,0.0,0.0,0.0,0.0,0.0,0.0,0.0,0.0,0.0,0.0,0.0,0.0,0.0,0.0,0.0,0.0,0.0,0.0,0.0,0.0,0.0,0.0,0.0,0.0,0.0,0.0,0.0,0.0,0.0,0.0,0.0,0.0,0.0,0.0,0.0,0.0,0.0,0.0,0.0,0.0,0.0,0.0,0.0,0.0,0.0,0.0,0.0,0.0,0.0,0.0,0.0,0.0,0.0,0.0,0.0,0.0,0.0,0.0,0.0,0.0,0.0,0.0,0.0,0.0,0.0,0.0,0.0,0.0,0.0,0.0,0.0,0.0,0.0,0.0,0.0,0.0,0.0,0.0,0.0,0.0,0.0,0.0,0.0,4.2315,4.2163,4.3118,4.5157,4.1105,3.7614,0.0,0.0,0.0,0.0,0.0,0.0,0.0,0.0,0.0,0.0,0.0,0.0,0.0,0.0,0.0,0.0,0.0,0.0,0.0,0.0,0.0,0.0,0.0,0.0,0.0,0.0,0.0,0.0,0.0,0.0,0.0,0.0,0.0,0.0,0.0,0.0,0.0,0.0,0.0,0.0,0.0,0.0,0.0,0.0,0.0,0.0,0.0,0.0,0.0,0.0,0.0,0.0,0.0,0.0,0.0,0.0,0.0,0.0,0.0,0.0,0.0,0.0,0.0,0.0,0.0,0.0,0.0,0.0,0.0,0.0,0.0,0.0,0.0,0.0,0.0,0.0,0.0,0.0,0.0,0.0,0.0,0.0,0.0,0.0,0.0,0.0,0.0,0.0,0.0,0.0,0.0,0.0,0.0,0.0,0.0,0.0,0.0,0.0,0.0,0.0,0.0,0.0,0.0,0.0,0.0,0.0,0.0,0.0,0.0,4.1003,0.0,4.3686,4.4421,4.0176,3.6532,0.0,0.0,0.0,0.0,0.0,0.0,0.0,0.0,0.0,0.0,0.0,0.0,0.0,0.0,0.0,0.0,0.0,0.0,0.0,0.0,0.0,0.0,0.0,0.0,0.0,0.0,0.0,0.0,0.0,0.0,0.0,0.0,0.0,0.0,0.0,0.0,0.0,0.0,0.0,0.0,0.0,0.0,0.0,0.0,0.0,0.0,0.0,0.0,0.0,0.0,0.0,0.0,0.0,0.0,0.0,0.0,0.0,0.0,0.0,0.0,0.0,0.0,0.0,0.0,0.0,0.0,0.0,0.0,0.0,0.0,0.0,0.0,0.0,0.0,0.0,0.0,0.0,0.0,0.0,0.0,0.0,0.0,0.0,0.0,0.0,0.0,0.0,0.0,0.0,0.0,0.0,0.0,0.0,0.0,0.0,0.0,0.0,0.0,0.0,0.0,0.0,0.0,0.0,0.0,0.0,0.0,0.0,0.0,3.935,4.188,4.4305,4.4511,4.2343,4.0389,3.6668,0.0,0.0,0.0,0.0,0.0,0.0,0.0,0.0,0.0,0.0,0.0,0.0,0.0,0.0,0.0,0.0,0.0,0.0,0.0,0.0,0.0,0.0,0.0,0.0,0.0,0.0,0.0,0.0,0.0,0.0,0.0,0.0,0.0,0.0,0.0,0.0,0.0,0.0,0.0,0.0,0.0,0.0,0.0,0.0,0.0,0.0,0.0,0.0,0.0,0.0,0.0,0.0,0.0,0.0,0.0,0.0,0.0,0.0,0.0,0.0,0.0,0.0,0.0,0.0,0.0,0.0,0.0,0.0,0.0,0.0,0.0,0.0,0.0,0.0,0.0,0.0,0.0,0.0,0.0,0.0,0.0,0.0,0.0,0.0,0.0,0.0,0.0,0.0,0.0,0.0,0.0,0.0,0.0,0.0,0.0,0.0,0.0,0.0,0.0,0.0,0.0,0.0,0.0,0.0,0.0,0.0,0.0,0.0,0.0,4.0163,4.2125,4.3685,4.4511,3.968,3.6348,0.0,0.0,0.0,0.0,0.0,0.0,0.0,0.0,0.0,0.0,0.0,0.0,0.0,0.0,0.0,0.0,0.0,0.0,0.0,0.0,0.0,0.0,0.0,0.0,0.0,0.0,0.0,0.0,0.0,0.0,0.0,0.0,0.0,0.0,0.0,0.0,0.0,0.0,0.0,0.0,0.0,0.0,0.0,0.0,0.0,0.0,0.0,0.0,0.0,0.0,0.0,0.0,0.0,0.0,0.0,0.0,0.0,0.0,0.0,0.0,0.0,0.0,0.0,0.0,0.0,0.0,0.0,0.0,0.0,0.0,0.0,0.0,0.0,0.0,0.0,0.0,0.0,0.0,0.0,0.0,0.0,0.0,0.0,0.0,0.0,0.0,0.0,0.0,0.0,0.0,0.0,0.0,0.0,0.0,0.0,0.0,0.0,0.0,0.0,0.0,0.0,0.0,0.0,0.0,0.0,0.0,0.0,0.0,0.0,4.1748,4.3452,4.4718,4.544,4.04,3.7026,3.5521,0.0,0.0,0.0,0.0,0.0,0.0,0.0,0.0,0.0,0.0,0.0,0.0,0.0,0.0,0.0,0.0,0.0,0.0,0.0,0.0,0.0,0.0,0.0,0.0,0.0,0.0,0.0,0.0,0.0,0.0,0.0,0.0,0.0,0.0,0.0,0.0,0.0,0.0,0.0,0.0,0.0,0.0,0.0,0.0,0.0,0.0,0.0,0.0,0.0,0.0,0.0,0.0,0.0,0.0,0.0,0.0,0.0,0.0,0.0,0.0,0.0,0.0,0.0,0.0,0.0,0.0,0.0,0.0,0.0,0.0,0.0,0.0,0.0,0.0,0.0,0.0,0.0,0.0,0.0,0.0,0.0,0.0,0.0,0.0,0.0,0.0,0.0,0.0,0.0,0.0,0.0,0.0,0.0,0.0,0.0,0.0,0.0,0.0,0.0,0.0,0.0,0.0,0.0,0.0,0.0,0.0,0.0,0.0,4.5774,4.7619,4.7467,4.518,4.241,3.8684,0.0,0.0,0.0,0.0,0.0,0.0,0.0,0.0,0.0,0.0,0.0,0.0,0.0,0.0,0.0,0.0,0.0,0.0,0.0,0.0,0.0,0.0,0.0,0.0,0.0,0.0,0.0,0.0,0.0,0.0,0.0,0.0,0.0,0.0,0.0,0.0,0.0,0.0,0.0,0.0,0.0,0.0,0.0,0.0,0.0,0.0,0.0,0.0,0.0,0.0,0.0,0.0,0.0,0.0,0.0,0.0,0.0,0.0,0.0,0.0,0.0,0.0,0.0,0.0,0.0,0.0,0.0,0.0,0.0,0.0,0.0,0.0,0.0,0.0,0.0,0.0,0.0,0.0,0.0,0.0,0.0,0.0,0.0,0.0,0.0,0.0,0.0,0.0,0.0,0.0,0.0,0.0,0.0,0.0,0.0,0.0,0.0,0.0,0.0,0.0,0.0,0.0,0.0,0.0,0.0,0.0,0.0,0.0,0.0,4.8369,5.0256,5.0622,4.9376,4.4579,4.0719,0.0,0.0,0.0,0.0,0.0,0.0,0.0,0.0,0.0,0.0,0.0,0.0,0.0,0.0,0.0,0.0,0.0,0.0,0.0,0.0,0.0,0.0,0.0,0.0,0.0,0.0,0.0,0.0,0.0,0.0,0.0,0.0,0.0,0.0,0.0,0.0,0.0,0.0,0.0,0.0,0.0,0.0,0.0,0.0,0.0,0.0,0.0,0.0,0.0,0.0,0.0,0.0,0.0,0.0,0.0,0.0,0.0,0.0,0.0,0.0,0.0,0.0,0.0,0.0,0.0,0.0,0.0,0.0,0.0,0.0,0.0,0.0,0.0,0.0,0.0,0.0,0.0,0.0,0.0,0.0,0.0,0.0,0.0,0.0,0.0,0.0,0.0,0.0,0.0,0.0,0.0,0.0,0.0,0.0,0.0,0.0,0.0,0.0,0.0,0.0,0.0,0.0,0.0,0.0,0.0,0.0,0.0,0.0,4.7183,5.1078,5.298,5.3689,5.3291,4.8253,4.3677,0.0,0.0,0.0,0.0,0.0,0.0,0.0,0.0,0.0,0.0,0.0,0.0,0.0,0.0,0.0,0.0,0.0,0.0,0.0,0.0,0.0,0.0,0.0,0.0,0.0,0.0,0.0,0.0,0.0,0.0,0.0,0.0,0.0,0.0,0.0,0.0,0.0,0.0,0.0,0.0,0.0,0.0,0.0,0.0,0.0,0.0,0.0,0.0,0.0,0.0,0.0,0.0,0.0,0.0,0.0,0.0,0.0,0.0,0.0,0.0,0.0,0.0,0.0,0.0,0.0,0.0,0.0,0.0,0.0,0.0,0.0,0.0,0.0,0.0,0.0,0.0,0.0,0.0,0.0,0.0,0.0,0.0,0.0,0.0,0.0,0.0,0.0,0.0,0.0,0.0,0.0,0.0,0.0,0.0,0.0,0.0,0.0,0.0,0.0,0.0,0.0,0.0,0.0,0.0,0.0,0.0,0.0,0.0,4.9255,5.3669,5.5458,5.6394,5.6456,5.2308,4.6902,0.0,0.0,0.0,0.0,0.0,0.0,0.0,0.0,0.0,0.0,0.0,0.0,0.0,0.0,0.0,0.0,0.0,0.0,0.0,0.0,0.0,0.0,0.0,0.0,0.0,0.0,0.0,0.0,0.0,0.0,0.0,0.0,0.0,0.0,0.0,0.0,0.0,0.0,0.0,0.0,0.0,0.0,0.0,0.0,0.0,0.0,0.0,0.0,0.0,0.0,0.0,0.0,0.0,0.0,0.0,0.0,0.0,0.0,0.0,0.0,0.0,0.0,0.0,0.0,0.0,0.0,0.0,0.0,0.0,0.0,0.0,0.0,0.0,0.0,0.0,0.0,0.0,0.0,0.0,0.0,0.0,0.0,0.0,0.0,0.0,0.0,0.0,0.0,0.0,0.0,0.0,0.0,0.0,0.0,0.0,0.0,0.0,0.0,0.0,0.0,0.0,0.0,0.0,0.0,0.0,0.0,0.0,0.0,5.1026,5.542,5.6636,5.7612,5.8364,5.294,4.772,0.0,0.0,0.0,0.0,0.0,0.0,0.0,0.0,0.0,0.0,0.0,0.0,0.0,0.0,0.0,0.0,0.0,0.0,0.0,0.0,0.0,0.0,0.0,0.0,0.0,0.0,0.0,0.0,0.0,0.0,0.0,0.0,0.0,0.0,0.0,0.0,0.0,0.0,0.0,0.0,0.0,0.0,0.0,0.0,0.0,0.0,0.0,0.0,5.022,0.0,0.0,0.0,0.0,0.0,0.0,0.0,0.0,0.0,0.0,0.0,0.0,0.0,0.0,0.0,0.0,0.0,0.0,0.0,0.0,0.0,0.0,0.0,0.0,0.0,0.0,0.0,0.0,0.0,0.0,0.0,0.0,0.0,0.0,0.0,0.0,0.0,0.0,0.0,0.0,0.0,0.0,0.0,0.0,0.0,0.0,0.0,0.0,0.0,0.0,0.0,0.0,0.0,0.0,0.0,0.0,0.0,0.0,0.0,5.2619,5.6621,5.8023,5.8997,5.9434,5.5333,5.0463,0.0,0.0,0.0,0.0,0.0,0.0,0.0,0.0,0.0,0.0,0.0,0.0,0.0,0.0,0.0,0.0,0.0,0.0,0.0,0.0,0.0,0.0,0.0,0.0,0.0,0.0,0.0,0.0,0.0,0.0,0.0,0.0,0.0,0.0,0.0,0.0,0.0,0.0,0.0,0.0,0.0,0.0,0.0,0.0,0.0,0.0,0.0,0.0,0.0,0.0,0.0,0.0,0.0,0.0,0.0,0.0,0.0,0.0,0.0,0.0,0.0,0.0,0.0,0.0,0.0,0.0,0.0,0.0,0.0,0.0,0.0,0.0,0.0,0.0,0.0,0.0,0.0,0.0,0.0,0.0,0.0,0.0,0.0,0.0,0.0,0.0,0.0,0.0,0.0,0.0,0.0,0.0,0.0,0.0,0.0,0.0,0.0,0.0,0.0,0.0,0.0,0.0,0.0,0.0,0.0,0.0,0.0,5.0356,5.3723,5.7765,5.936,6.0239,6.0434,5.8039,5.3518,4.6872,0.0,0.0,0.0,0.0,0.0,0.0,0.0,0.0,0.0,0.0,0.0,0.0,0.0,0.0,0.0,0.0,0.0,0.0,0.0,0.0,0.0,0.0,0.0,0.0,0.0,0.0,0.0,0.0,0.0,0.0,0.0,0.0,0.0,0.0,0.0,0.0,0.0,0.0,4.2982,4.772,0.0,0.0,0.0,0.0,0.0,0.0,0.0,0.0,5.3006,0.0,0.0,0.0,0.0,0.0,0.0,0.0,0.0,0.0,0.0,0.0,0.0,0.0,0.0,0.0,0.0,0.0,0.0,0.0,0.0,0.0,0.0,0.0,0.0,0.0,0.0,0.0,0.0,0.0,0.0,0.0,0.0,0.0,0.0,0.0,0.0,0.0,0.0,0.0,0.0,0.0,0.0,0.0,0.0,0.0,0.0,0.0,0.0,0.0,0.0,0.0,0.0,0.0,0.0,0.0,0.0,5.0171,5.0231,5.3286,5.9498,5.9983,6.0555,6.1276,5.8921,5.4671,4.861,0.0,0.0,0.0,0.0,0.0,0.0,0.0,0.0,0.0,0.0,0.0,0.0,0.0,0.0,0.0,0.0,0.0,0.0,0.0,0.0,0.0,0.0,0.0,0.0,0.0,0.0,0.0,0.0,0.0,0.0,0.0,0.0,0.0,0.0,0.0,0.0,0.0,0.0,0.0,5.2797,5.5667,0.0,0.0,0.0,0.0,0.0,0.0,0.0,0.0,5.3873,0.0,0.0,0.0,0.0,0.0,0.0,0.0,0.0,0.0,0.0,0.0,0.0,0.0,0.0,0.0,0.0,0.0,0.0,0.0,0.0,0.0,0.0,0.0,0.0,0.0,0.0,0.0,0.0,0.0,0.0,0.0,0.0,0.0,0.0,0.0,0.0,0.0,0.0,0.0,0.0,0.0,0.0,0.0,0.0,0.0,0.0,0.0,0.0,0.0,0.0,0.0,0.0,0.0,0.0,0.0,4.9445,5.1928,5.5605,6.0553,6.0834,6.1325,6.2141,5.8077,5.3604,0.0,0.0,0.0,0.0,0.0,0.0,0.0,0.0,0.0,0.0,0.0,0.0,0.0,0.0,0.0,0.0,0.0,0.0,0.0,0.0,0.0,0.0,0.0,0.0,0.0,0.0,0.0,0.0,0.0,0.0,0.0,0.0,0.0,0.0,0.0,0.0,0.0,0.0,0.0,0.0,5.4924,5.7328,5.8235,0.0,0.0,0.0,0.0,0.0,0.0,5.4271,5.4741,0.0,0.0,0.0,0.0,0.0,0.0,0.0,0.0,0.0,0.0,0.0,0.0,0.0,0.0,0.0,0.0,0.0,0.0,0.0,0.0,0.0,0.0,0.0,0.0,0.0,0.0,0.0,0.0,0.0,0.0,0.0,0.0,0.0,0.0,0.0,0.0,0.0,0.0,0.0,0.0,0.0,0.0,0.0,0.0,0.0,0.0,0.0,0.0,0.0,0.0,0.0,0.0,0.0,0.0,0.0,4.8475,5.3236,5.7558,6.1218,6.1637,6.2045,6.2531,5.7857,5.3264,0.0,0.0,0.0,0.0,0.0,0.0,0.0,0.0,0.0,0.0,0.0,0.0,0.0,0.0,0.0,0.0,0.0,0.0,0.0,0.0,0.0,0.0,0.0,0.0,0.0,0.0,0.0,0.0,0.0,0.0,0.0,0.0,0.0,0.0,0.0,0.0,0.0,0.0,0.0,0.0,0.0,5.9033,5.9396,5.8645,0.0,0.0,0.0,0.0,5.5404,5.6575,0.0,0.0,0.0,0.0,0.0,0.0,0.0,0.0,0.0,0.0,0.0,0.0,0.0,0.0,0.0,0.0,0.0,0.0,0.0,0.0,0.0,0.0,0.0,0.0,0.0,0.0,0.0,0.0,0.0,0.0,0.0,0.0,0.0,0.0,0.0,0.0,0.0,0.0,0.0,0.0,0.0,0.0,0.0,0.0,0.0,0.0,0.0,0.0,0.0,0.0,0.0,0.0,0.0,0.0,0.0,0.0,4.8412,5.2169,5.6475,6.1229,6.2313,6.2438,6.1849,6.0432,5.6224,0.0,0.0,0.0,0.0,0.0,0.0,0.0,0.0,0.0,0.0,0.0,0.0,0.0,0.0,0.0,0.0,0.0,0.0,0.0,0.0,0.0,0.0,0.0,0.0,0.0,0.0,0.0,0.0,0.0,0.0,0.0,0.0,0.0,0.0,0.0,0.0,0.0,0.0,0.0,0.0,0.0,6.2631,5.9942,6.021,5.9808,0.0,0.0,5.9685,5.9658,6.2914,0.0,0.0,0.0,0.0,0.0,0.0,0.0,0.0,0.0,0.0,0.0,0.0,0.0,0.0,0.0,0.0,0.0,0.0,0.0,0.0,0.0,0.0,0.0,0.0,0.0,0.0,0.0,0.0,0.0,0.0,0.0,0.0,0.0,0.0,0.0,0.0,0.0,0.0,0.0,0.0,0.0,0.0,0.0,0.0,0.0,0.0,0.0,0.0,0.0,0.0,0.0,0.0,0.0,0.0,0.0,4.516,4.9299,5.4186,5.8471,6.2102,6.314,6.3265,6.2479,5.9235,5.4557,0.0,0.0,0.0,0.0,0.0,0.0,0.0,0.0,0.0,0.0,0.0,0.0,0.0,0.0,0.0,0.0,0.0,0.0,0.0,0.0,0.0,0.0,0.0,0.0,0.0,0.0,0.0,0.0,0.0,0.0,0.0,0.0,0.0,0.0,0.0,0.0,0.0,0.0,0.0,0.0,0.0,0.0,6.3199,6.2897,0.0,0.0,0.0,6.238,6.1927,0.0,0.0,0.0,0.0,0.0,0.0,0.0,0.0,0.0,0.0,0.0,0.0,0.0,0.0,0.0,0.0,0.0,0.0,0.0,0.0,0.0,0.0,0.0,0.0,0.0,0.0,0.0,0.0,0.0,0.0,0.0,0.0,0.0,0.0,0.0,0.0,0.0,0.0,0.0,0.0,0.0,0.0,0.0,0.0,0.0,0.0,0.0,0.0,0.0,0.0,0.0,0.0,0.0,0.0,0.0,0.0,0.0,4.9925,5.6075,6.0273,6.2453,6.3819,6.3943,6.2641,5.8939,0.0,0.0,0.0,0.0,0.0,0.0,0.0,0.0,0.0,0.0,0.0,0.0,0.0,0.0,0.0,0.0,0.0,0.0,0.0,0.0,0.0,0.0,0.0,0.0,0.0,0.0,0.0,2.592,0.0,0.0,0.0,0.0,0.0,0.0,0.0,0.0,0.0,0.0,0.0,0.0,0.0,0.0,6.395,6.5427,6.5334,6.4582,0.0,0.0,6.4998,6.4671,6.6727,6.672,0.0,0.0,0.0,0.0,0.0,0.0,0.0,0.0,0.0,0.0,0.0,0.0,0.0,0.0,0.0,0.0,0.0,0.0,0.0,0.0,0.0,0.0,0.0,0.0,0.0,0.0,0.0,0.0,0.0,0.0,0.0,0.0,0.0,0.0,0.0,0.0,0.0,0.0,0.0,0.0,0.0,0.0,0.0,0.0,0.0,0.0,0.0,0.0,0.0,0.0,0.0,0.0,0.0,0.0,4.6522,5.0081,5.668,6.0633,6.1705,6.4106,6.4241,6.1871,6.1442,5.7313,0.0,0.0,0.0,0.0,0.0,0.0,0.0,0.0,0.0,0.0,0.0,0.0,0.0,0.0,0.0,0.0,0.0,0.0,0.0,0.0,0.0,0.0,0.0,0.0,0.0,0.0,0.0,0.0,0.0,0.0,0.0,0.0,0.0,0.0,0.0,0.0,0.0,0.0,0.0,0.0,0.0,6.4624,6.4927,6.7036,6.8278,0.0,6.7571,6.7968,6.8825,7.3055,7.325,6.4292,0.0,0.0,0.0,0.0,0.0,0.0,0.0,0.0,0.0,0.0,0.0,0.0,0.0,0.0,0.0,0.0,0.0,0.0,0.0,0.0,0.0,0.0,0.0,0.0,0.0,0.0,0.0,0.0,0.0,0.0,0.0,0.0,0.0,0.0,0.0,0.0,0.0,0.0,0.0,0.0,0.0,0.0,0.0,0.0,0.0,0.0,0.0,0.0,0.0,0.0,0.0,0.0,0.0,4.6834,5.083,5.7556,6.1244,6.168,6.4658,6.4827,6.1798,6.1725,5.7668,0.0,0.0,0.0,0.0,0.0,0.0,0.0,0.0,0.0,0.0,0.0,0.0,0.0,0.0,0.0,0.0,0.0,0.0,0.0,0.0,0.0,0.0,0.0,0.0,0.0,0.0,0.0,0.0,2.9092,2.9864,3.0564,0.0,0.0,0.0,0.0,0.0,0.0,0.0,0.0,0.0,0.0,6.7149,6.9382,7.0252,0.0,0.0,6.994,7.0312,7.2249,7.1953,6.9972,6.5306,6.2067,0.0,0.0,0.0,0.0,0.0,0.0,0.0,0.0,0.0,0.0,0.0,0.0,0.0,0.0,0.0,0.0,0.0,0.0,0.0,0.0,0.0,0.0,0.0,0.0,0.0,0.0,4.0521,3.9923,0.0,0.0,0.0,0.0,0.0,0.0,0.0,0.0,0.0,0.0,0.0,0.0,0.0,0.0,0.0,0.0,0.0,0.0,0.0,0.0,0.0,0.0,0.0,0.0,4.7017,5.1278,5.8082,6.1729,6.2011,6.4899,6.5061,6.2228,6.1842,5.7903,0.0,0.0,0.0,0.0,0.0,0.0,0.0,0.0,0.0,0.0,0.0,0.0,0.0,0.0,0.0,0.0,0.0,0.0,0.0,0.0,0.0,0.0,0.0,0.0,0.0,0.0,0.0,0.0,3.0448,3.1118,3.17,0.0,0.0,0.0,0.0,0.0,0.0,0.0,0.0,0.0,0.0,6.9328,7.2362,7.2866,7.2639,7.1945,7.1156,7.1402,7.3442,7.1233,6.8429,6.5936,0.0,0.0,0.0,0.0,0.0,0.0,0.0,0.0,0.0,0.0,0.0,0.0,0.0,0.0,0.0,0.0,0.0,0.0,0.0,0.0,0.0,0.0,0.0,0.0,0.0,0.0,0.0,4.0523,0.0,0.0,4.0559,0.0,0.0,0.0,0.0,0.0,0.0,0.0,0.0,0.0,0.0,0.0,0.0,0.0,0.0,0.0,0.0,0.0,0.0,0.0,0.0,0.0,0.0,4.6969,5.1317,5.8139,6.2009,6.2886,6.4682,6.4804,6.3008,6.2149,5.841,5.1437,0.0,0.0,0.0,0.0,0.0,0.0,0.0,0.0,0.0,0.0,0.0,0.0,0.0,0.0,0.0,0.0,0.0,0.0,0.0,0.0,0.0,0.0,0.0,0.0,0.0,0.0,2.9339,2.9957,3.0496,0.0,0.0,0.0,0.0,0.0,0.0,0.0,0.0,0.0,6.1089,6.662,7.0745,7.274,7.4494,7.4684,7.2335,7.1221,7.096,7.199,7.1912,7.0505,0.0,0.0,0.0,0.0,0.0,0.0,0.0,0.0,0.0,0.0,0.0,0.0,0.0,0.0,0.0,0.0,0.0,0.0,0.0,0.0,0.0,0.0,0.0,0.0,0.0,0.0,0.0,4.3788,4.3299,0.0,0.0,0.0,0.0,0.0,0.0,0.0,0.0,0.0,0.0,0.0,5.3615,5.5138,0.0,0.0,0.0,0.0,0.0,0.0,0.0,0.0,0.0,0.0,0.0,0.0,4.8132,5.2991,5.9239,6.2867,6.3767,6.4899,6.471,6.3047,6.2145,5.7391,4.8304,0.0,0.0,0.0,0.0,0.0,0.0,0.0,0.0,0.0,0.0,0.0,0.0,0.0,0.0,0.0,0.0,0.0,0.0,0.0,0.0,0.0,0.0,0.0,0.0,0.0,2.9343,0.0,0.0,0.0,0.0,0.0,0.0,0.0,0.0,0.0,0.0,5.1474,5.6378,6.2891,6.7982,7.1971,7.4378,7.5268,7.5608,0.0,0.0,0.0,0.0,0.0,0.0,0.0,0.0,0.0,0.0,0.0,0.0,0.0,6.5465,6.4922,5.8897,5.7104,5.6159,5.4921,0.0,0.0,0.0,0.0,0.0,0.0,0.0,0.0,0.0,0.0,0.0,0.0,0.0,0.0,4.6978,4.7223,4.6182,0.0,0.0,0.0,0.0,0.0,0.0,0.0,0.0,5.6133,5.6984,5.6653,5.8195,5.7371,5.4398,5.2728,4.9891,0.0,0.0,0.0,0.0,0.0,0.0,0.0,0.0,4.9465,5.4237,5.9971,6.3444,6.4606,6.4932,6.4671,6.3867,6.1616,5.666,4.8763,4.3509,3.875,0.0,0.0,0.0,0.0,0.0,0.0,0.0,0.0,0.0,0.0,0.0,0.0,0.0,0.0,0.0,0.0,0.0,0.0,0.0,0.0,0.0,0.0,0.0,2.9596,0.0,0.0,0.0,0.0,0.0,0.0,0.0,0.0,0.0,4.9083,5.3419,5.8196,6.3844,6.8613,7.2199,7.3961,0.0,0.0,0.0,0.0,0.0,0.0,0.0,6.7656,6.8429,6.7448,6.6621,6.6878,6.8318,6.9182,6.8258,0.0,0.0,6.2146,6.028,5.9489,5.8827,5.8939,5.9405,6.0472,6.2225,6.3793,0.0,0.0,0.0,0.0,4.3957,0.0,0.0,0.0,4.9027,5.0324,0.0,4.9698,0.0,0.0,0.0,0.0,5.0971,5.4143,0.0,0.0,6.0594,6.1466,6.015,6.1058,6.0282,5.8006,5.7802,5.5981,5.2472,4.6027,4.1765,0.0,0.0,0.0,0.0,0.0,5.0897,5.5259,6.0351,6.3778,6.5457,6.4671,6.4609,6.5238,6.0581,5.6325,5.2745,4.7693,4.2988,3.8727,3.4389,0.0,0.0,0.0,0.0,0.0,0.0,0.0,0.0,0.0,0.0,0.0,0.0,0.0,0.0,0.0,0.0,0.0,0.0,0.0,0.0,2.8856,0.0,0.0,0.0,0.0,0.0,0.0,0.0,0.0,0.0,4.6436,5.0712,5.5497,6.0036,6.3898,0.0,0.0,0.0,0.0,7.4219,7.354,7.2626,7.2071,7.2131,7.1299,7.0409,6.9648,0.0,0.0,6.9811,7.1006,7.1357,6.8864,7.0504,7.1534,6.9764,6.7177,6.5535,6.5371,6.4627,6.4276,6.4375,6.6205,6.7928,4.9229,0.0,0.0,0.0,0.0,5.0228,5.2339,5.5132,5.6302,5.5811,5.4218,5.3994,0.0,0.0,0.0,0.0,0.0,0.0,5.7764,5.9896,6.1561,6.2432,6.268,6.3157,6.2357,6.0464,5.8699,5.6688,5.447,5.1323,4.7323,4.268,0.0,0.0,0.0,0.0,5.2979,5.779,6.1754,6.4636,6.6393,6.4964,6.375,6.2848,6.0195,5.7148,5.3737,4.982,4.5386,4.0499,3.7311,0.0,0.0,0.0,0.0,0.0,0.0,0.0,0.0,0.0,0.0,0.0,0.0,0.0,0.0,0.0,0.0,0.0,0.0,0.0,2.655,2.8411,2.9662,0.0,0.0,0.0,0.0,0.0,0.0,0.0,0.0,0.0,5.1834,5.5948,5.9968,0.0,0.0,7.1062,7.2352,7.3625,7.478,7.5772,7.4164,0.0,7.3754,7.2071,7.1021,7.2014,7.3436,7.4501,7.4843,7.4837,7.4525,7.3666,7.3744,7.3681,7.3077,7.0505,6.8249,6.75,6.753,6.8015,6.8631,7.02,7.1665,5.4896,5.2032,5.1101,5.174,5.3416,5.4587,5.6855,5.9854,6.1145,6.09,5.9599,5.8983,5.6746,5.3445,5.3215,0.0,0.0,0.0,6.0513,6.305,6.3303,6.374,6.4333,6.4204,6.3436,6.207,5.9519,5.7977,5.7282,5.4892,5.1746,4.7813,0.0,4.5592,4.7003,5.0502,5.4523,5.89,6.2387,6.487,6.6252,6.5588,6.4076,6.1797,6.1008,5.9053,5.5663,5.2526,4.8777,4.4292,4.0928,3.7203,0.0,0.0,0.0,0.0,0.0,0.0,0.0,0.0,0.0,0.0,0.0,2.5896,2.5103,0.0,0.0,0.0,2.4642,2.5649,2.7399,2.8982,0.0,0.0,0.0,0.0,0.0,0.0,0.0,4.2652,4.5037,4.782,5.1617,5.5545,5.9474,6.3307,6.7188,7.0153,7.1624,0.0,7.446,7.6244,7.5209,7.4406,7.4942,7.3744,7.3125,7.4154,7.5508,7.6505,7.6961,7.6677,7.636,7.6281,7.593,7.5623,7.5599,7.3591,7.1712,7.081,7.0996,7.1487,7.1965,7.3133,7.4249,5.9409,5.9134,5.5872,5.5498,5.7135,5.8792,6.0974,6.3331,6.4159,6.5328,6.6517,6.4092,6.2482,6.1472,5.9891,0.0,6.2817,6.282,6.4077,6.6283,6.5618,6.5289,6.5259,6.4559,6.3803,6.302,6.0461,5.9607,6.0193,5.7166,5.51,5.4017,5.0969,4.9676,5.0307,5.2785,5.5747,5.9083,6.2492,6.4597,6.5387,6.6297,6.5141,6.1797,6.2482,6.1295,5.802,5.5382,5.2395,4.8899,4.4759,4.0548,3.6254,0.0,0.0,0.0,0.0,0.0,0.0,0.0,0.0,0.0,0.0,0.0,0.0,0.0,0.0,2.3612,2.5548,0.0,2.906,3.0104,0.0,0.0,0.0,3.4816,3.7078,3.9224,4.1329,4.3369,0.0,0.0,5.0473,5.4496,5.8539,6.2056,6.5986,6.8973,7.0041,7.184,7.3588,7.5339,7.562,7.5624,7.5521,7.5423,7.536,7.5529,7.6481,7.6836,7.6829,7.6892,7.6951,7.6873,7.7068,7.7146,7.7107,7.6267,7.574,7.4826,7.4591,7.4537,7.4449,7.5101,7.5713,6.2068,6.1993,6.1158,6.1407,6.2438,6.3505,6.5074,6.6884,6.7676,6.7509,6.6644,6.5933,6.4706,6.3285,6.411,6.485,6.5451,6.6709,6.7232,6.727,6.7148,6.6796,6.6217,6.4851,6.4115,6.3754,6.132,6.0193,6.0349,5.8882,5.7321,5.584,5.4986,5.3721,5.2152,5.4515,5.7182,5.9958,6.2789,6.4279,6.456,6.6004,6.518,6.1797,6.1896,6.0679,5.7926,5.531,5.2319,4.8938,4.5896,4.2323,3.7987,3.3276,0.0,0.0,0.0,0.0,0.0,0.0,0.0,0.0,0.0,2.6462,2.3598,0.0,2.4734,0.0,2.5843,2.7255,2.9316,3.028,0.0,0.0,3.5409,3.6963,3.9094,3.9966,4.1292,4.334,4.4933,4.6917,4.9848,5.2854,5.6091,5.9616,6.4364,6.8104,6.9765,7.1591,7.3195,7.4296,7.4664,7.4675,7.4825,7.4868,7.4915,7.4892,7.5091,7.522,7.5194,7.5738,7.6115,7.6154,7.67,7.7052,7.7044,7.6938,7.6785,7.6553,7.6013,7.5495,7.5491,7.6097,7.6673,6.3788,6.4179,6.4531,6.5373,6.6518,6.6572,6.7625,6.9288,7.0094,6.9889,6.8973,6.8501,6.751,6.6244,6.7127,6.7751,6.8121,6.8682,6.8679,6.8264,6.7991,6.7411,6.6634,6.5004,6.4216,6.4163,6.1642,6.0588,6.0879,5.9654,5.852,5.7537,5.7136,5.6014,5.4401,5.5715,5.7533,5.9715,6.2672,6.4411,6.4808,6.6123,6.535,6.2414,6.229,6.0661,5.7324,5.4723,5.1756,4.8372,4.5718,4.252,3.8585,3.497,3.1848,0.0,0.0,0.0,0.0,0.0,0.0,0.0,0.0,0.0,0.0,0.0,2.5803,2.6397,2.7289,2.8759,3.0968,3.1714,3.2999,3.5312,3.6624,3.7963,3.957,4.0388,4.1432,4.2827,4.4415,4.6259,4.8486,5.1329,5.4383,5.7627,6.186,6.581,6.8718,7.1047,7.2822,7.3859,7.4117,7.4236,7.4428,7.4517,7.4566,7.4588,7.4574,7.4574,7.4591,7.4954,7.5273,7.5294,7.5638,7.5994,7.5985,7.6306,7.6458,7.6102,7.5933,7.5968,7.6314,7.6755,7.7051,6.4961,6.5824,6.6522,6.7799,6.9348,6.8648,6.928,7.0909,7.1729,7.2062,7.1993,7.1198,7.0304,6.9444,6.9251,6.9606,7.021,6.9461,6.9041,6.8914,6.8265,6.7589,6.6728,6.5042,6.4247,6.4179,6.1772,6.0939,6.1634,6.0066,5.9251,5.9114,5.8348,5.7417,5.6547,5.6718,5.7658,5.9365,6.2446,6.4457,6.5328,6.6208,6.5422,6.2993,6.2602,6.051,5.6368,5.3728,5.0818,4.75,4.5063,4.2247,3.8916,3.6876,3.4365,0.0,2.9844,0.0,0.0,0.0,0.0,0.0,0.0,0.0,0.0,2.7504,2.7033,2.8041,2.93,3.0887,3.3025,3.3585,3.4469,3.6143,3.7272,3.834,3.9314,4.0551,4.1525,4.211,4.4068,4.5763,4.7033,4.9975,5.3003,5.5944,5.9458,6.3083,6.6774,6.9854,7.2071,7.3234,7.3548,7.3566,7.4,7.4106,7.4126,7.4314,7.4033,7.4101,7.3945,7.3989,7.4051,7.4048,7.4267,7.4457,7.4447,7.511,7.5423,7.4876,7.5181,7.582,7.661,7.6816,7.6958,6.5859,6.6664,6.6761,6.7805,6.9405,6.9933,7.0746,7.1728,7.2604,7.292,7.288,7.2614,7.2054,7.1155,7.0393,7.0166,7.0266,6.9539,6.876,6.8047,6.8004,6.756,6.672,6.5022,6.4253,6.4179,6.2345,6.1554,6.1712,6.1244,6.0653,5.9977,5.9763,5.8882,5.7468,0.0,0.0,0.0,6.2524,6.3638,6.4513,6.5383,6.4579,6.2013,6.0583,0.0,5.4611,5.1974,4.9332,4.6679,4.5345,0.0,0.0,0.0,0.0,0.0,0.0,0.0,0.0,0.0,0.0,0.0,3.1162,2.9942,2.9195,2.9432,2.9738,3.0075,3.069,3.1801,3.3482,3.4569,3.5536,3.6499,3.7502,3.837,3.9098,3.9868,4.0659,4.1425,4.2815,4.4426,4.6227,4.8644,5.1294,5.4273,5.806,6.1224,6.3456,6.7265,7.0003,7.1102,7.1665,7.2132,7.3016,7.2721,7.2723,7.3087,7.2249,7.1591,7.1558,7.1499,7.1473,7.1523,7.2575,7.3498,7.3515,7.4251,7.472,7.4603,7.4712,7.5077,7.5941,7.608,7.6269,6.7734,6.8156,6.8566,6.9255,0.0,7.1429,7.221,7.2639,7.3009,7.3181,7.3183,7.351,7.291,7.1651,7.072,7.0316,7.0316,6.9552,6.8744,6.7915,6.8018,6.7641,6.6823,6.5512,6.4692,6.4258,6.2969,6.2095,6.1673,6.1526,6.1052,6.02,6.0125,5.949,5.8324,5.9182,6.0348,6.1699,6.2535,6.3646,6.4912,6.5348,6.4575,6.2389,6.0243,0.0,0.0,0.0,0.0,0.0,0.0,0.0,0.0,3.8739,3.7178,3.5795,3.4372,3.3723,3.4109,3.3922,3.4279,3.5286,3.4448,3.2706,3.0041,3.1155,3.184,3.1504,3.2041,3.2963,3.4209,3.5053,3.5849,3.6625,3.7526,3.8202,3.8649,3.9133,3.9748,4.0501,4.2034,4.3674,4.5175,4.7838,5.0513,5.3082,5.6145,5.9225,6.1855,6.5714,6.8937,7.0216,7.0706,7.1192,7.1931,7.1926,7.1876,7.2257,7.1503,7.0746,7.0675,7.0303,7.005,7.0139,7.0816,7.1445,7.1988,7.2713,7.3325,7.3381,7.3669,7.4061,7.4574,7.4876,7.5266,6.9489,6.9683,7.0405,7.0777,7.105,7.2612,7.3471,7.3744,7.3693,0.0,0.0,7.4053,7.325,7.1485,7.0518,7.0036,6.9872,6.9098,6.8483,6.7998,6.7914,6.7598,6.7068,6.6071,6.5212,6.4492,6.3633,6.2758,6.1868,6.1768,6.1295,6.0522,6.0359,6.0009,5.9437,5.9981,6.0746,6.1654,6.2569,6.3763,6.5302,6.5351,6.454,6.2812,6.0262,5.6829,5.2504,4.8704,4.5819,4.4013,4.2566,4.1289,4.0234,4.014,3.973,3.8828,3.8426,3.8337,3.8411,3.8137,3.7814,3.7516,3.6846,3.4977,3.1516,3.2802,3.3442,3.2587,3.325,3.408,3.4896,3.5321,3.5946,3.6693,3.7358,3.7901,3.8127,3.8501,3.9046,3.9866,4.1556,4.3145,4.4413,4.7307,5.0018,5.2019,5.4578,5.7406,6.098,6.5142,6.8289,6.9505,7.0133,7.0667,7.1098,7.1409,7.1615,7.1806,7.1019,7.0385,7.0238,6.9553,6.8983,6.8853,6.9035,6.9479,7.0152,7.1132,7.1747,7.1755,7.2461,7.3042,7.3134,7.3588,7.4134,6.983,7.0507,7.064,7.1128,7.1875,7.2885,7.4095,7.5423,7.5423,7.5006,7.4324,7.4361,7.3029,7.059,6.977,6.8939,6.8136,6.7423,6.7374,6.7969,6.7351,6.742,6.7932,6.6348,6.5528,6.5351,6.4531,6.3656,6.2789,6.2648,6.2172,6.1367,6.1253,6.1187,6.1089,6.0575,6.0737,6.1602,6.2524,6.349,6.4443,6.4492,6.3646,6.1876,5.9365,5.5939,5.1642,4.9523,4.7318,4.4969,4.4605,4.367,4.2058,4.1925,4.1468,4.0488,3.9741,3.9534,4.0077,3.9391,3.8575,3.7879,3.7064,3.5758,3.3922,3.4358,3.4438,3.3517,3.4021,3.4777,3.5453,3.5815,3.6231,3.6852,3.7204,3.7519,3.7976,3.8231,3.8884,4.0377,4.1321,4.2567,4.4275,4.6924,4.9243,5.0892,5.374,5.7175,6.0827,6.4954,6.7516,6.8445,6.9322,7.0086,7.0717,7.1115,7.1356,7.1552,7.0395,6.9518,6.9528,6.8281,6.7365,6.7118,6.7773,6.8279,6.8577,6.9788,7.07,7.0933,7.164,7.2158,7.226,7.2417,7.2885,7.1034,7.1442,7.1906,7.2319,7.2787,7.414,7.5394,7.6501,7.654,7.578,7.4523,7.4421,7.3208,7.1225,7.0275,6.9678,6.9267,6.8465,6.8339,6.8681,6.7975,6.7815,6.8049,6.6904,6.6044,6.5546,6.5194,6.4281,6.3023,6.282,6.2123,6.0912,6.0747,6.0981,6.1406,6.1139,6.1179,6.1603,6.2518,6.3208,6.3611,6.4062,6.3256,6.1034,5.8903,5.6003,5.2138,4.9932,4.803,4.6402,4.5898,4.5074,4.3813,4.3693,4.3246,4.2299,4.1388,4.0965,4.1282,4.0257,3.9431,3.8925,3.8442,3.7647,3.6361,3.6008,3.5304,3.4091,3.4584,3.5007,3.5033,3.5253,3.5809,3.651,3.6957,3.7526,3.8248,3.8672,3.937,4.0427,4.152,4.2622,4.3673,4.6381,4.8417,4.9653,5.3014,5.6786,5.9076,6.2326,6.5367,6.7232,6.8579,6.9626,7.033,7.0733,7.1054,7.1339,7.0098,6.9253,6.9046,6.7774,6.6836,6.6634,6.7043,6.7422,6.7871,6.8652,6.9538,7.0617,7.0966,7.1402,7.1792,7.1987,7.2417,7.2119,7.2369,7.3007,7.3548,7.4015,7.5516,7.6532,7.7091,7.7178,7.6313,7.4882,7.4537,7.3436,7.1817,7.0901,7.0459,7.0251,6.9616,6.9431,6.9616,6.8892,6.8566,6.8674,6.7883,6.6982,6.6175,6.6131,6.5139,6.3382,6.3109,6.2093,6.0382,6.0385,6.0605,6.0812,6.1273,6.1432,6.1383,6.244,6.2978,6.3013,6.3867,6.3029,6.0522,5.8871,5.6535,5.3312,5.0891,4.9279,4.8391,4.7344,4.6502,4.5825,4.552,4.5084,4.4326,4.3075,4.2125,4.1658,4.0875,4.0228,3.9972,3.9851,3.94,3.8486,3.7648,3.6474,3.5112,3.5213,3.5264,3.499,3.5143,3.5652,3.6431,3.7143,3.7974,3.8811,3.9357,3.9979,4.0815,4.2123,4.3152,4.4067,4.605,4.7997,4.9375,5.2807,5.5761,5.7051,5.9761,6.2925,6.5338,6.7421,6.888,6.9845,7.0455,7.0798,7.1131,7.0176,6.9545,6.9181,6.8006,6.6997,6.6905,6.6711,6.6902,6.754,6.7959,6.8609,6.9667,7.0141,7.0615,7.1084,7.1245,7.1753,7.244,7.3134,7.328,7.4218,7.5702,7.6653,7.7107,7.719,7.7222,7.6677,7.5763,7.4864,7.3523,7.1827,7.098,7.0258,6.9562,6.9405,6.9848,7.0424,6.9749,6.9757,7.0275,6.9538,6.8713,6.7888,6.7771,6.6433,6.417,6.392,6.264,6.0487,6.0861,6.0501,5.9503,6.0689,6.112,6.0486,6.2119,6.2996,6.3052,6.3863,6.3043,6.0471,5.9417,5.7658,5.4974,5.3206,5.1888,5.0998,4.9445,4.8535,4.8366,4.7626,4.7086,4.6823,4.4605,4.2536,4.0945,4.0917,4.0967,4.0654,4.0688,4.0364,3.9649,3.9197,3.822,3.6756,3.6076,3.5933,3.5904,3.6084,3.6458,3.72,3.8003,3.8884,3.9294,3.9948,4.0798,4.2211,4.2955,4.4079,4.5125,4.6511,4.796,4.9515,5.227,5.4649,5.5824,5.8494,6.1155,6.2997,6.5197,6.7505,6.9048,7.0026,7.0486,7.0786,7.0479,7.006,6.9705,6.8746,6.765,6.7355,6.6951,6.6684,6.6893,6.7331,6.7909,6.8534,6.9116,6.9614,6.966,6.979,7.0381,7.253,7.3314,7.3866,7.5078,7.6601,7.7066,7.7208,7.7224,7.7222,7.699,7.659,7.5662,7.4304,7.2587,7.1759,7.1156,7.0922,7.0948,7.1122,7.1382,7.0608,7.0377,7.0578,6.9816,6.8947,6.8136,6.8088,6.7018,6.5028,6.3379,6.1729,6.0293,5.9993,5.9502,5.896,5.9604,6.0049,6.033,6.1541,6.242,6.2986,6.3341,6.2557,6.0573,5.9534,5.8102,5.6082,5.4726,5.3494,5.2227,5.1469,5.0622,4.9586,4.8698,4.7993,4.7301,4.5327,4.3513,4.2208,4.2141,4.1982,4.1618,4.1725,4.1482,4.0811,4.0394,3.9846,3.9127,3.786,3.7125,3.718,3.6823,3.7044,3.8211,3.8482,3.8792,3.9707,4.0558,4.1459,4.2162,4.3061,4.4074,4.5148,4.6448,4.7784,4.934,5.1498,5.3373,5.4675,5.7175,5.9529,6.153,6.3336,6.5367,6.7666,6.9245,6.9985,7.0401,7.0285,6.9993,6.9943,6.876,6.767,6.7709,6.701,6.6561,6.6555,6.6761,6.7165,6.772,6.8642,6.935,6.935,6.938,6.9823,7.3197,7.4101,7.4961,7.6055,7.7187,7.7226,7.7223,7.7208,7.7225,7.7226,7.7103,7.6219,7.5149,7.3894,7.276,7.2158,7.2026,7.2252,7.2381,7.2261,7.169,7.1421,7.1322,7.0526,6.9503,6.8609,6.8484,6.7331,6.5145,6.3,6.1161,5.9957,5.9385,5.8803,5.822,5.8569,5.9259,5.9949,6.0848,6.1733,6.2492,6.2609,6.2011,6.0744,5.9638,5.8336,5.6839,5.5747,5.4521,5.3103,5.2794,5.2031,5.0562,4.9401,4.8185,4.6783,4.5395,4.4172,4.3265,4.3174,4.2959,4.2621,4.2743,4.2573,4.1938,4.1372,4.1034,4.0595,3.949,3.8663,3.8401,3.781,3.8056,3.9415,3.9123,3.929,4.02,4.1073,4.1667,4.2119,4.3196,4.4448,4.5607,4.6833,4.7956,4.8862,5.0507,5.2131,5.3421,5.5314,5.7559,5.9714,6.1077,6.3329,6.6293,6.8199,6.9247,6.9895,6.9865,7.0218,7.022,6.9051,6.8065,6.8259,6.729,6.6611,6.6475,6.6523,6.6601,6.7333,6.8071,6.8554,6.833,6.8561,6.8749,7.4946,7.582,7.6719,7.707,7.7226,7.7226,7.7226,7.7226,7.7226,7.7187,7.7069,7.6345,7.5868,7.5571,7.3933,7.2767,7.2221,7.29,7.3264,7.3242,7.3158,7.3158,7.3125,7.2284,7.0999,6.9433,6.9225,6.7559,6.4396,6.3232,6.144,5.9141,5.9672,5.8804,5.7055,5.8153,5.9007,5.9225,6.0076,6.0934,6.1703,6.1751,6.1651,6.1339,5.9871,5.8593,5.7641,5.6113,5.4794,5.3961,5.3185,5.2304,5.1277,4.9739,4.7741,4.5442,4.4831,4.4253,4.352,4.3731,4.3814,4.3542,4.358,4.3495,4.2923,4.2103,4.138,4.0568,4.0471,4.017,3.987,3.9251,3.9218,3.9997,4.0391,4.0535,4.0715,4.0984,4.1545,4.2193,4.3469,4.489,4.696,4.7958,4.8065,4.8499,4.9501,5.0743,5.1726,5.3193,5.5001,5.6747,5.8927,6.1628,6.4903,6.6934,6.8105,6.878,6.9544,7.0464,7.0618,7.0429,6.9485,6.8618,6.7553,6.684,6.6456,6.6341,6.6376,6.6694,6.6825,6.7035,6.7346,6.6946,6.7218,7.5013,7.5976,7.6836,7.7226,7.7226,7.7217,7.7208,7.7169,7.7142,7.7144,7.7106,7.6834,7.6441,7.5858,7.5243,7.4474,7.3732,7.3989,7.4145,7.4128,7.4134,7.4134,7.4023,7.3247,7.1924,7.0358,6.965,6.7604,6.445,6.3327,6.1529,5.9493,5.976,5.8829,5.708,5.8076,5.8958,5.9098,5.9922,6.1074,6.225,6.1909,6.1578,6.1451,5.9893,5.8632,5.7811,5.6634,5.5425,5.4039,5.3678,5.2882,5.1483,5.0285,4.8716,4.6769,4.6344,4.5819,4.4963,4.4825,4.4935,4.5092,4.4391,4.3989,4.3652,4.2624,4.1831,4.1744,4.0875,4.0663,4.1379,4.0697,4.0416,4.1215,4.0576,4.0247,4.0597,4.0616,4.0781,4.1805,4.3217,4.4534,4.5198,4.6196,4.7045,4.7418,4.8775,4.9999,5.0925,5.2236,5.3694,5.5198,5.6943,5.8835,6.0989,6.4583,6.6861,6.7657,6.8379,6.8808,6.9009,6.8937,6.814,6.7832,6.7113,6.6675,6.6221,6.609,6.614,6.6225,6.6299,6.6384,6.6446,6.6543,6.6769,7.5668,7.6321,7.6912,7.7187,7.7186,7.7169,7.7151,7.7185,7.7122,7.7091,7.7091,7.7139,7.6833,7.6366,7.6284,7.6009,7.5423,7.5169,7.5038,7.5004,7.5032,7.5038,7.4853,7.415,7.2817,7.1056,6.9299,6.7024,6.4431,6.3311,6.169,5.9607,5.9932,5.9199,5.772,5.841,5.9046,5.9469,6.0078,6.1108,6.2201,6.1627,6.1023,6.0468,5.9035,5.8087,5.7772,5.6959,5.5873,5.4635,5.4406,5.3491,5.1599,5.0568,4.9268,4.7664,4.7272,4.6776,4.5905,4.5688,4.5696,4.5697,4.5031,4.4485,4.4382,4.3188,4.2767,4.2645,4.2064,4.1797,4.2196,4.1797,4.1455,4.1882,4.0991,4.0322,4.0551,4.0217,4.0462,4.1198,4.2254,4.3119,4.3705,4.4722,4.559,4.6047,4.763,4.8943,4.9646,5.0848,5.217,5.3559,5.4703,5.6384,5.8387,6.1346,6.4331,6.5461,6.7197,6.754,6.7722,6.7515,6.7291,6.6957,6.6677,6.6293,6.6024,6.5897,6.5884,6.5967,6.6063,6.6128,6.626,6.6431,6.6555,7.6984,7.7029,7.7091,7.7097,7.7097,7.7094,7.7083,7.7101,7.7101,7.7107,7.7107,7.7107,7.7044,7.7019,7.6944,7.7052,7.6817,7.6206,7.5915,7.5926,7.5911,7.5911,7.5845,7.491,7.3462,7.1612,6.8479,6.6058,6.4458,6.3383,6.196,6.0574,6.0348,5.9844,5.8929,5.9114,5.9533,6.0099,6.0429,6.0912,6.1392,6.0876,6.0058,5.9139,5.7563,5.6995,5.7609,5.6809,5.5889,5.5235,5.5148,5.4016,5.1784,5.0699,4.9376,4.793,4.7398,4.6758,4.5974,4.6091,4.584,4.5418,4.5172,4.492,4.4632,4.3894,4.3314,4.3193,4.3098,4.2948,4.2301,4.2187,4.1977,4.1528,4.1406,4.1116,4.0438,4.0146,4.0287,4.0654,4.113,4.1739,4.2825,4.3632,4.415,4.4778,4.6017,4.7197,4.764,4.8755,4.9962,5.1145,5.2387,5.3809,5.5812,5.7998,6.0766,6.3259,6.5389,6.6701,6.7055,6.7025,6.6782,6.6544,6.6506,6.6154,6.5618,6.5532,6.559,6.5651,6.5807,6.589,6.6007,6.6128,6.6151,7.7051,7.7101,7.7073,7.7078,7.7073,7.7101,7.7095,7.7101,7.7089,7.7089,7.7101,7.7101,7.7107,7.7073,7.7073,7.7151,7.7146,7.6874,7.6755,7.6796,7.6795,7.6757,7.6505,7.5306,7.3359,7.0976,6.8197,6.6276,6.5144,6.3731,6.208,6.0768,6.0932,6.0403,5.9256,6.0165,6.0759,6.0457,6.0976,6.1398,6.153,6.08,5.9919,5.9005,5.7892,5.7056,5.6134,5.5249,5.4674,5.4445,5.4401,5.3747,5.2446,5.1484,5.0448,4.9323,4.8499,4.7722,4.6728,4.6088,4.5846,4.5645,4.5059,4.4655,4.4702,4.4005,4.3294,4.2823,4.2736,4.2385,4.1481,4.1238,4.1374,4.1821,4.131,4.07,4.0084,3.9803,3.9652,3.9673,4.0216,4.0574,4.0659,4.1453,4.2538,4.3026,4.432,4.5501,4.6139,4.6905,4.7991,4.9324,5.0268,5.1463,5.3591,5.5624,5.7824,6.0567,6.296,6.52,6.5798,6.6315,6.6155,6.615,6.6146,6.5879,6.5378,6.5188,6.5252,6.5307,6.5417,6.5575,6.5692,6.5688,6.5625,7.6225,7.656,7.6614,7.6809,7.7043,7.7067,7.7067,7.7043,7.7067,7.7036,7.7043,7.7089,7.7089,7.7128,7.7407,7.7609,7.7693,7.792,7.8083,7.7959,7.7356,7.7181,7.6941,7.5427,7.3671,7.1478,6.8708,6.6875,6.5975,6.4332,6.2758,6.172,6.1888,6.1478,6.0223,6.1049,6.1314,6.1023,6.1406,6.169,6.1481,6.0828,5.995,5.902,5.7908,5.648,5.4931,5.3963,5.3682,5.3865,5.3738,5.3235,5.2667,5.187,5.1014,5.0129,4.9425,4.8621,4.7608,4.6799,4.6304,4.6379,4.5397,4.4872,4.4959,4.4297,4.338,4.3301,4.2993,4.2409,4.1449,4.0922,4.0896,4.0831,4.0515,4.0067,3.9627,3.9485,3.9432,3.945,3.9596,3.9479,3.9643,4.0,4.0988,4.1421,4.2653,4.4093,4.4857,4.574,4.6966,4.7965,4.8786,5.0208,5.1685,5.3369,5.5009,5.7667,6.0401,6.2548,6.403,6.4822,6.512,6.5497,6.5609,6.5305,6.485,6.4853,6.4888,6.5023,6.5079,6.5039,6.5053,6.4923,6.4794,7.4844,7.5601,7.5746,7.6223,7.6847,7.6965,7.7004,7.7004,7.7004,7.7004,7.7012,7.7067,7.7145,7.7294,7.7947,7.8311,7.8591,7.9122,7.9434,7.9104,7.8233,7.7481,7.6952,7.5663,7.4331,7.2723,6.9898,6.7913,6.6835,6.5195,6.3894,6.293,6.2758,6.2512,6.1641,6.1681,6.1712,6.1807,6.1719,6.1743,6.1768,6.0856,6.008,5.9205,5.7647,5.6053,5.4685,5.3475,5.3123,5.3686,5.3152,5.2791,5.2567,5.1874,5.1008,5.0266,4.9978,4.9193,4.843,4.7586,4.7182,4.672,4.6035,4.5611,4.5512,4.4776,4.4163,4.4249,4.37,4.2847,4.1913,4.1042,4.0166,3.9058,3.9122,3.924,3.9229,3.9285,3.9283,3.9402,3.9155,3.8866,3.9271,3.9486,3.9536,3.9809,4.1075,4.228,4.34,4.4457,4.6139,4.6911,4.7415,4.8554,4.9992,5.1247,5.2909,5.4828,5.769,6.0196,6.2425,6.3608,6.4405,6.4783,6.4972,6.4633,6.4482,6.452,6.4558,6.4633,6.4588,6.4461,6.4273,6.4164,6.3835,7.4457,7.4828,7.5445,7.5845,7.6118,7.6721,7.6994,7.7014,7.6994,7.7004,7.6995,7.7012,7.7394,7.794,7.8238,7.8728,7.9326,7.966,7.9699,7.9639,7.9326,7.8239,7.7317,7.6653,7.5287,7.3247,7.1095,6.926,6.7715,6.6131,6.4565,6.3047,6.312,6.2647,6.1827,6.1788,6.2049,6.2457,6.1992,6.207,6.2342,6.1211,6.0312,5.9961,5.8384,5.6992,5.575,5.3727,5.2722,5.2992,5.284,5.2701,5.2595,5.1874,5.1244,5.0849,4.9783,4.8871,4.8314,4.7489,4.656,4.5698,4.6073,4.6015,4.5178,4.5433,4.4863,4.4082,4.3404,4.2719,4.1199,4.0144,3.9049,3.781,3.7892,3.8324,3.8698,3.8752,3.8703,3.8806,3.9083,3.8956,3.8727,3.8718,3.8988,3.9156,3.9769,4.078,4.1877,4.2883,4.4347,4.5152,4.5772,4.6961,4.8134,4.9356,5.0807,5.2319,5.4988,5.8055,6.0544,6.2737,6.3504,6.4154,6.435,6.4125,6.4166,6.4244,6.4284,6.4475,6.452,6.4519,6.3716,6.3346,6.2815,7.3471,7.3882,7.44,7.5023,7.5674,7.6196,7.6624,7.6909,7.6962,7.6936,7.7011,7.7384,7.7774,7.828,7.9062,7.9682,8.0211,8.0582,8.0777,8.0758,8.0758,7.9593,7.796,7.7017,7.5567,7.3822,7.2054,7.0342,6.8713,6.7258,6.5779,6.4462,6.4101,6.3633,6.293,6.2822,6.3029,6.3391,6.3002,6.3039,6.3369,6.2205,6.1295,6.0773,5.9506,5.8226,5.6494,5.4303,5.3019,5.2695,5.2375,5.2169,5.2124,5.1706,5.1367,5.1268,5.0307,4.9547,4.8769,4.7846,4.6988,4.643,4.6561,4.6132,4.5914,4.5947,4.5018,4.3988,4.3464,4.238,4.0788,3.9267,3.8011,3.7157,3.7157,3.7661,3.8318,3.8792,3.8937,3.9092,3.9186,3.9304,3.8699,3.881,3.8742,3.8809,3.8986,3.9753,4.0576,4.1499,4.2653,4.3891,4.4959,4.6233,4.7269,4.8397,4.969,5.1129,5.3654,5.6472,5.92,6.1809,6.2777,6.3438,6.3631,6.3823,6.4022,6.4289,6.4631,6.4753,6.4772,6.414,6.3276,6.274,6.2173,7.2173,7.2935,7.3029,7.399,7.5301,7.5585,7.6154,7.6816,7.6894,7.6894,7.7064,7.7793,7.8079,7.8312,7.979,8.0768,8.0883,8.1577,8.1961,8.1914,8.1672,8.0634,7.8845,7.7472,7.5957,7.4402,7.2821,7.1228,6.965,6.8502,6.7226,6.5872,6.5546,6.5038,6.414,6.4101,6.4297,6.434,6.4072,6.4079,6.4138,6.3382,6.2477,6.1559,6.0495,5.8965,5.7009,5.5091,5.3866,5.3061,5.2094,5.1675,5.1522,5.1402,5.1385,5.1191,5.0753,5.008,4.9519,4.8364,4.7913,4.7808,4.6682,4.6248,4.6834,4.6391,4.5544,4.4749,4.3663,4.238,4.0615,3.8699,3.7793,3.7404,3.751,3.7788,3.8213,3.9052,3.9721,3.9713,3.9501,3.9683,3.9658,3.9452,3.8889,3.8776,3.8872,3.9231,4.0014,4.1079,4.2363,4.3682,4.48,4.5804,4.6707,4.7557,4.8854,5.0309,5.3042,5.5841,5.8514,6.0738,6.1956,6.2706,6.2909,6.3482,6.4212,6.4517,6.4748,6.4681,6.4406,6.3484,6.2516,6.2372,6.1943,7.1821,7.2056,7.2744,7.3572,7.453,7.5215,7.5992,7.677,7.6809,7.6864,7.7088,7.775,7.8115,7.8192,7.9897,8.0803,8.0942,8.1733,8.2179,8.2123,8.146,8.1031,8.015,7.9111,7.7212,7.5026,7.3543,7.2099,7.047,6.8932,6.7617,6.6727,6.5998,6.5139,6.4526,6.4502,6.4626,6.4994,6.4619,6.4684,6.4944,6.4271,6.3336,6.2328,6.0864,5.9516,5.8247,5.6601,5.5657,5.4985,5.3564,5.2289,5.1669,5.1434,5.139,5.1055,4.9962,4.9311,4.9203,4.8143,4.7176,4.7694,4.7663,4.7559,4.7348,4.7384,4.6767,4.5832,4.4526,4.2708,4.0422,3.9522,3.885,3.8543,3.8748,3.915,3.9482,3.9612,3.9583,3.9327,3.946,3.955,3.946,3.9401,3.9116,3.8882,3.8939,3.8872,3.9717,4.0685,4.1952,4.3343,4.4377,4.5349,4.6359,4.7313,4.8527,4.9937,5.2437,5.4598,5.7273,5.9525,6.064,6.1544,6.2261,6.303,6.3984,6.4159,6.4287,6.4138,6.4033,6.3158,6.2429,6.2142,6.1543,7.1675,7.1757,7.221,7.2881,7.3721,7.4561,7.54,7.6177,7.6605,7.676,7.701,7.7687,7.8037,7.8209,7.9881,8.0754,8.0986,8.1733,8.2143,8.2065,8.1675,8.1343,8.0727,7.9892,7.8071,7.5371,7.4272,7.2756,7.0938,6.9755,6.8748,6.7542,6.6922,6.6408,6.5556,6.5371,6.5636,6.5917,6.5619,6.555,6.5752,6.5089,6.3867,6.2517,6.0926,5.9653,5.9126,5.8025,5.6963,5.6054,5.4917,5.3653,5.255,5.2038,5.1819,5.1501,5.0477,4.9505,4.9174,4.8471,4.7815,4.7934,4.8093,4.8021,4.7904,4.8009,4.7397,4.6404,4.5161,4.3605,4.1052,4.0588,4.0179,3.9282,3.9738,4.0134,3.9974,4.0065,4.0173,3.9866,3.9763,4.0129,4.0135,3.9964,3.9934,3.9985,3.964,3.9706,3.9744,4.0658,4.1625,4.2796,4.3822,4.4901,4.6015,4.713,4.8396,4.9848,5.1765,5.347,5.5418,5.7418,5.9278,6.0481,6.1871,6.2889,6.3743,6.3762,6.4002,6.4262,6.401,6.3059,6.2379,6.2026,6.1206,7.1559,7.1679,7.1675,7.2205,7.3021,7.3729,7.4606,7.5577,7.6065,7.6337,7.6806,7.7523,7.7676,7.8198,7.9859,8.0713,8.1208,8.1649,8.2101,8.2084,8.2104,8.1733,8.1087,8.0048,7.8604,7.6232,7.496,7.3225,7.1698,7.07,6.9644,6.8474,6.807,6.7352,6.6845,6.6693,6.6546,6.6507,6.6435,6.6387,6.6411,6.5693,6.4543,6.2831,6.133,6.0326,5.9919,5.9068,5.8041,5.6497,5.6411,5.5574,5.4246,5.3106,5.2563,5.2512,5.1447,5.0696,5.0105,4.9426,4.8919,4.8764,4.8578,4.8486,4.8643,4.8488,4.7951,4.6994,4.5908,4.453,4.2403,4.1664,4.0929,4.0238,4.0717,4.0752,4.0638,4.0891,4.1336,4.0781,4.0792,4.1152,4.1205,4.108,4.1134,4.0986,4.0716,4.0432,4.0465,4.0845,4.1807,4.2796,4.3936,4.5282,4.6335,4.7027,4.8297,4.9569,5.1245,5.2717,5.4188,5.624,5.8383,6.0384,6.1761,6.263,6.3437,6.3882,6.4151,6.4466,6.4188,6.3319,6.2598,6.1949,6.1093,7.1,7.1679,7.1675,7.2181,7.291,7.3144,7.4009,7.5222,7.4872,7.5439,7.6591,7.6842,7.6954,7.7632,7.9648,8.1049,8.1663,8.1909,8.1999,8.2073,8.2182,8.1997,8.1538,8.0321,7.9018,7.7687,7.5865,7.3931,7.2615,7.1445,7.0299,6.9231,6.8436,6.7667,6.7043,6.6702,6.6645,6.662,6.6594,6.6538,6.6439,6.604,6.5114,6.3418,6.2104,6.1288,6.0632,5.9958,5.9031,5.8124,5.8027,5.7081,5.5629,5.4116,5.3475,5.3017,5.2241,5.147,5.1177,5.0412,4.9808,4.9608,4.9701,4.967,4.9603,4.9334,4.8867,4.817,4.6632,4.4929,4.3545,4.2802,4.2484,4.2373,4.232,4.2299,4.2789,4.3186,4.3009,4.2019,4.2077,4.2273,4.2414,4.2409,4.2299,4.2149,4.193,4.1612,4.1454,4.1767,4.2424,4.3311,4.4329,4.5708,4.6982,4.741,4.8232,4.9187,5.0686,5.2295,5.3866,5.5633,5.765,5.9602,6.1051,6.1874,6.2715,6.3585,6.3928,6.4039,6.3788,6.3535,6.2854,6.2205,6.1764,7.0003,7.0406,7.0406,7.0654,7.1173,7.199,7.2755,7.3518,7.4063,7.4927,7.5805,7.6116,7.6404,7.7276,7.9034,8.0766,8.1702,8.161,8.1711,8.2016,8.2153,8.1937,8.1546,8.025,7.9299,7.8032,7.6248,7.4517,7.3275,7.1993,7.0837,7.0013,6.9078,6.8199,6.737,6.6802,6.6592,6.6524,6.6508,6.6477,6.6355,6.601,6.4851,6.3709,6.2618,6.172,6.0949,6.0519,5.9804,5.9127,5.8918,5.7956,5.6708,5.5668,5.4746,5.3976,5.2944,5.2265,5.2179,5.1456,5.1005,5.0823,5.0908,5.0674,5.0376,5.0061,4.9852,4.9097,4.8038,4.6307,4.5268,4.4418,4.3969,4.3512,4.351,4.3892,4.4316,4.5035,4.4504,4.3525,4.3579,4.3801,4.3997,4.3809,4.3516,4.3304,4.306,4.2812,4.2526,4.2948,4.3504,4.4133,4.5087,4.583,4.6961,4.7323,4.7668,4.8597,4.9883,5.1542,5.3112,5.4762,5.6689,5.8769,5.9956,6.1043,6.2234,6.3214,6.3371,6.3602,6.3565,6.3424,6.296,6.2454,6.2133,6.9072,6.9214,6.9241,6.9214,6.946,7.0823,7.1602,7.2017,7.3185,7.4456,7.5439,7.5454,7.5921,7.7049,7.8479,8.0053,8.1493,8.0981,8.1353,8.1724,8.1859,8.1524,8.0921,7.9929,7.9004,7.8242,7.6575,7.5006,7.3718,7.2608,7.1594,7.0586,6.972,6.8864,6.7903,6.7145,6.6733,6.6428,6.6428,6.6411,6.6183,6.5548,6.4535,6.3505,6.2598,6.1796,6.0839,6.0608,6.0125,5.9639,5.9332,5.8832,5.7426,5.6994,5.6343,5.5101,5.3899,5.3264,5.2813,5.2786,5.2365,5.1911,5.1821,5.1637,5.1544,5.1334,5.0714,4.9784,4.8923,4.7998,4.7156,4.6407,4.5516,4.4848,4.4939,4.532,4.5549,4.6,4.6524,4.5901,4.5569,4.5271,4.5373,4.5191,4.482,4.4682,4.4403,4.4052,4.3879,4.4439,4.4817,4.5259,4.587,4.6251,4.6711,4.6993,4.7103,4.743,4.8796,5.0379,5.1939,5.3544,5.5608,5.7618,5.9028,6.0162,6.1523,6.2724,6.3066,6.3334,6.3527,6.3498,6.3252,6.3046,6.2803,6.8577,6.9273,6.9234,6.9304,6.9372,7.0268,7.1156,7.1799,7.2072,7.3542,7.53,7.4898,7.5404,7.6897,7.7884,7.8948,7.9851,8.0534,8.0826,8.1094,8.1172,8.1063,8.0665,7.9251,7.8623,7.8038,7.663,7.5397,7.4281,7.3336,7.2069,7.0836,7.0261,6.9477,6.8062,6.7532,6.711,6.6456,6.6358,6.6358,6.6264,6.5986,6.4926,6.3792,6.2963,6.2132,6.0839,6.0571,6.0185,5.9569,5.9977,5.942,5.8066,5.7657,5.7537,5.6861,5.5815,5.4531,5.3926,5.3994,5.3778,5.3197,5.3088,5.3481,5.3377,5.2791,5.1718,4.982,4.9493,4.9281,4.8651,4.7452,4.6905,4.6393,4.6055,4.6272,4.6446,4.7182,4.7695,4.8099,4.7637,4.6974,4.665,4.6403,4.6205,4.5977,4.5782,4.5468,4.5422,4.6005,4.6475,4.7015,4.68,4.6983,4.6809,4.6961,4.6757,4.6711,4.7724,4.9161,5.071,5.2364,5.4221,5.6114,5.7598,5.9383,6.1029,6.2086,6.2678,6.3177,6.3482,6.3676,6.3713,6.36,6.336,6.7539,6.7883,6.7868,6.7868,6.7992,6.8812,6.9701,7.0463,7.1009,7.2335,7.3943,7.3895,7.4899,7.676,7.7451,7.833,7.9461,8.0033,8.0211,8.0386,8.0576,8.0392,7.9528,7.8774,7.8252,7.7541,7.6877,7.6048,7.4995,7.3703,7.2327,7.1295,7.0499,6.9652,6.8333,6.7794,6.7038,6.6476,6.6264,6.6245,6.6108,6.5616,6.471,6.333,6.2784,6.1785,6.0912,6.0408,6.0275,5.99,6.0217,5.9684,5.8673,5.8216,5.8034,5.7301,5.6715,5.6047,5.5718,5.5642,5.5172,5.4912,5.4828,5.4875,5.4796,5.3972,5.3172,5.2134,5.0796,5.0211,4.9936,4.8816,4.8458,4.8028,4.747,4.7834,4.8085,4.8434,4.8965,4.9355,4.9658,4.8951,4.8222,4.7836,4.7664,4.7586,4.7432,4.7316,4.7412,4.7913,4.8387,4.8826,4.8326,4.7854,4.7383,4.7095,4.6624,4.651,4.6621,4.805,4.946,5.1133,5.2909,5.4451,5.5866,5.781,6.0139,6.1529,6.229,6.2946,6.3557,6.3639,6.3758,6.3773,6.3654,6.682,6.682,6.6829,6.6844,6.6915,6.7734,6.8468,6.9131,6.9958,7.1175,7.2392,7.3087,7.4593,7.6322,7.679,7.7492,7.8979,7.926,7.9352,7.9629,7.9792,7.9529,7.8777,7.8222,7.7716,7.7102,7.6999,7.63,7.5326,7.4257,7.3207,7.1938,7.099,6.9845,6.8816,6.8017,6.7178,6.5749,6.5737,6.5642,6.535,6.4762,6.39,6.2998,6.2221,6.1529,6.0818,6.039,6.0303,6.0586,6.0182,5.9695,5.9125,5.8608,5.8369,5.7838,5.7479,5.7334,5.711,5.6929,5.6705,5.6583,5.6566,5.6233,5.5383,5.4656,5.4179,5.3878,5.2509,5.1622,5.1034,5.0294,4.9613,4.935,4.9124,4.9599,4.9976,5.0119,5.0258,5.0515,5.0759,5.0823,5.0141,4.9443,4.9157,4.9094,4.9092,4.9046,4.929,4.9621,4.9769,5.0064,4.9419,4.8612,4.7846,4.734,4.675,4.6317,4.6462,4.7084,4.8557,4.9823,5.1384,5.281,5.4247,5.6241,5.8522,6.0286,6.1939,6.2826,6.3482,6.3602,6.3647,6.3773,6.3904,6.6828,6.691,6.6862,6.6839,6.6912,6.7732,6.8083,6.8279,6.9117,7.005,7.1256,7.2528,7.4155,7.5491,7.5902,7.6427,7.7341,7.8125,7.8397,7.8511,7.8514,7.8614,7.8168,7.7706,7.7297,7.7061,7.7131,7.6543,7.5633,7.5154,7.3974,7.2731,7.1695,7.022,6.8938,6.8019,6.6892,6.5543,6.5164,6.4685,6.4222,6.3653,6.306,6.231,6.194,6.1759,6.1496,6.0733,6.0608,6.1157,6.0425,5.9874,5.9457,5.8878,5.8562,5.8577,5.8127,5.8127,5.8164,5.7603,5.6999,5.7279,5.7513,5.7309,5.6161,5.6381,5.5981,5.4927,5.3639,5.3135,5.2558,5.1838,5.0748,5.07,5.0686,5.0945,5.1256,5.1454,5.1617,5.178,5.1952,5.2067,5.2071,5.1446,5.0769,5.0652,5.0694,5.0757,5.0687,5.0905,5.0883,5.0815,5.0251,4.9405,4.836,4.7681,4.7221,4.6614,4.6429,4.6962,4.7842,4.9061,5.0247,5.1699,5.3288,5.5092,5.6973,5.911,6.1091,6.2623,6.3445,6.3594,6.387,6.4071,6.424,6.6869,6.6787,6.627,6.6051,6.6127,6.6432,6.6859,6.748,6.8297,6.9484,7.0741,7.1981,7.3134,7.4106,7.4935,7.5538,7.6404,7.7222,7.7495,7.7806,7.8024,7.8032,7.7792,7.7677,7.7618,7.7206,7.7313,7.7136,7.6259,7.5663,7.4563,7.3379,7.2452,7.059,6.9128,6.7576,6.6357,6.5702,6.498,6.4524,6.4147,6.3068,6.2421,6.1991,6.13,6.1364,6.1409,6.079,6.0912,6.1019,6.0469,6.0064,5.9815,5.9204,5.899,5.9097,5.8595,5.8628,5.8747,5.8266,5.8074,5.7942,5.8215,5.8017,5.6993,5.7059,5.6667,5.5743,5.4636,5.3867,5.3411,5.245,5.1694,5.2018,5.2256,5.2386,5.2645,5.2916,5.2889,5.3085,5.3317,5.3486,5.3554,5.3489,5.2785,5.2238,5.2329,5.2404,5.2337,5.2268,5.226,5.2047,5.1526,5.0582,4.9505,4.8609,4.7787,4.72,4.6684,4.7244,4.7939,4.825,4.9427,5.0871,5.2451,5.4301,5.6311,5.8372,6.0222,6.1934,6.303,6.3734,6.401,6.4435,6.4674,6.6872,6.6699,6.5566,6.5283,6.5543,6.5312,6.5547,6.6207,6.7023,6.8396,6.9955,7.0664,7.1523,7.25,7.3398,7.4249,7.5169,7.6107,7.6605,7.7023,7.7368,7.7543,7.7463,7.7423,7.7428,7.7143,7.7283,7.7132,7.6497,7.5808,7.5036,7.4102,7.3022,7.112,6.8578,6.6821,6.5756,6.5269,6.4974,6.4446,6.4001,6.2872,6.2103,6.1748,6.1134,6.1377,6.1502,6.1162,6.1179,6.1406,6.1197,6.0264,6.0025,5.9852,5.9547,5.9185,5.8974,5.9011,5.8985,5.8809,5.8777,5.854,5.8492,5.84,5.812,5.7626,5.7279,5.6593,5.5222,5.4236,5.4199,5.3443,5.3157,5.353,5.37,5.3821,5.4251,5.4547,5.443,5.4349,5.454,5.4559,5.4303,5.4266,5.4009,5.3529,5.3489,5.3676,5.3983,5.3853,5.3788,5.3483,5.3075,5.1962,5.0788,5.0149,4.9473,4.8777,4.8282,4.8013,4.8413,4.8685,4.9191,5.0716,5.231,5.3763,5.5596,5.7801,5.959,6.1299,6.2609,6.4012,6.4772,6.5199,6.5385,6.6836,6.6678,6.5004,6.4708,6.5238,6.4614,6.4356,6.4604,6.5385,6.6676,6.816,6.846,6.9347,7.0714,7.1772,7.2739,7.3749,7.5032,7.584,7.617,7.6708,7.6975,7.7116,7.7157,7.73,7.6825,7.6976,7.7021,7.6521,7.6243,7.5605,7.4552,7.3224,7.1304,6.8321,6.6433,6.5217,6.4489,6.4496,6.3997,6.3384,6.254,6.2145,6.1658,6.1352,6.1735,6.2092,6.1277,6.1522,6.2807,6.1595,6.0846,6.0808,6.0867,6.0315,5.9153,5.9442,5.9546,5.9546,5.9017,5.8725,5.8725,5.8714,5.8529,5.8437,5.8201,5.7788,5.6956,5.6014,5.553,5.5192,5.4781,5.4675,5.4838,5.501,5.5243,5.5644,5.5808,5.5605,5.545,5.5451,5.546,5.5062,5.4782,5.486,5.4695,5.4683,5.4868,5.5248,5.5262,5.5035,5.5037,5.4566,5.3517,5.2472,5.1832,5.1125,5.0388,4.9788,4.9354,4.9321,4.9657,5.0292,5.1085,5.2267,5.3862,5.5472,5.7243,5.9598,6.1981,6.3309,6.4604,6.5356,6.5949,6.6229,6.6476,6.5893,6.4708,6.4037,6.3787,6.3494,6.3388,6.3516,6.4345,6.5399,6.6371,6.6985,6.7888,6.9137,7.0426,7.1519,7.2534,7.342,7.4336,7.5716,7.6097,7.6515,7.6846,7.7273,7.7268,7.6993,7.7021,7.6919,7.6441,7.6339,7.5697,7.461,7.2784,7.0333,6.8454,6.6931,6.5924,6.5091,6.4556,6.402,6.3647,6.2978,6.2344,6.1885,6.2015,6.2464,6.2935,6.1697,6.2208,6.3503,6.2097,6.1306,6.1274,6.1272,6.0333,5.9509,5.9604,5.9522,5.93,5.8991,5.882,5.8931,5.8826,5.8566,5.8437,5.8393,5.7869,5.7235,5.6551,5.6103,5.5698,5.5346,5.5277,5.5852,5.6134,5.6452,5.6709,5.6731,5.6638,5.6485,5.6438,5.5993,5.5623,5.5354,5.5391,5.5483,5.5383,5.5741,5.616,5.6125,5.6008,5.6284,5.6016,5.4998,5.412,5.3583,5.2539,5.1531,5.0894,5.0426,5.0526,5.076,5.1027,5.1657,5.278,5.4025,5.5812,5.7853,6.0665,6.2896,6.407,6.5397,6.6482,6.6938,6.7061,6.5555,6.4973,6.4099,6.3388,6.2843,6.2563,6.2616,6.2981,6.3623,6.4325,6.5106,6.5785,6.6449,6.7459,6.8669,7.0147,7.1117,7.232,7.3657,7.5122,7.5601,7.6169,7.6844,7.7252,7.7054,7.6885,7.6961,7.6885,7.6378,7.6198,7.5331,7.3898,7.2294,7.0623,6.8832,6.7324,6.6147,6.5352,6.478,6.4558,6.4253,6.3779,6.3112,6.2825,6.2853,6.3176,6.3083,6.2824,6.2673,6.3217,6.2856,6.1842,6.1732,6.1379,6.0462,5.9899,5.9421,5.9384,5.92,5.9016,5.9034,5.9255,5.8843,5.8517,5.8326,5.8141,5.7476,5.6953,5.6719,5.643,5.6024,5.5705,5.6397,5.694,5.7299,5.7584,5.7664,5.7692,5.7837,5.7637,5.7477,5.6954,5.629,5.6042,5.5879,5.5998,5.6059,5.6564,5.7007,5.7157,5.7219,5.7463,5.7404,5.6586,5.5809,5.5335,5.4185,5.2768,5.223,5.1894,5.1959,5.223,5.2329,5.2394,5.3473,5.4669,5.6361,5.8556,6.1151,6.3174,6.4632,6.5975,6.7455,6.7839,6.8012,6.4197,6.4029,6.3175,6.2785,6.262,6.1985,6.2134,6.2903,6.2948,6.3394,6.4158,6.4232,6.4887,6.5663,6.6561,6.7955,6.9504,7.1065,7.2596,7.3924,7.4595,7.5534,7.6187,7.6549,7.6458,7.6415,7.6498,7.6606,7.6276,7.6052,7.5003,7.366,7.292,7.1063,6.9137,6.7474,6.6331,6.5645,6.5117,6.4965,6.4737,6.4419,6.3947,6.3673,6.3609,6.3647,6.3579,6.3307,6.3655,6.3871,6.3691,6.3201,6.2857,6.2566,6.1322,6.0222,5.9475,5.9098,5.9171,5.9108,5.8961,5.8934,5.8718,5.8511,5.8252,5.7851,5.7191,5.671,5.6446,5.6385,5.6203,5.6941,5.7677,5.8079,5.8406,5.8578,5.8629,5.8787,5.8967,5.8919,5.8789,5.8264,5.7335,5.6922,5.6588,5.6617,5.6879,5.741,5.7966,5.8386,5.8542,5.8717,5.859,5.8084,5.7439,5.6656,5.5667,5.4244,5.411,5.384,5.3772,5.3626,5.3587,5.3776,5.4252,5.5472,5.7418,5.9313,6.1313,6.3189,6.4912,6.65,6.7893,6.8624,6.8934,6.3787,6.3185,6.2951,6.2503,6.1899,6.1627,6.1724,6.1993,6.2009,6.2226,6.2428,6.3052,6.38,6.4704,6.6115,6.7319,6.8483,6.9631,7.1,7.2178,7.3145,7.3883,7.4739,7.5564,7.5604,7.5769,7.5925,7.6173,7.5947,7.5802,7.4789,7.343,7.2936,7.1235,6.9459,6.7721,6.6809,6.6007,6.5407,6.5103,6.5061,6.4752,6.4438,6.4121,6.4305,6.4298,6.3962,6.3682,6.3979,6.4329,6.3653,6.3008,6.2636,6.2383,6.155,6.0257,5.9208,5.8437,5.8951,5.8694,5.84,5.852,5.8415,5.8467,5.8215,5.7709,5.6978,5.657,5.65,5.6503,5.6769,5.7478,5.8368,5.9032,5.9324,5.9424,5.959,6.0075,6.0257,6.0236,6.0069,5.9329,5.8402,5.7683,5.7362,5.7377,5.764,5.821,5.8698,5.9188,5.9495,5.9671,5.951,5.894,5.8288,5.7538,5.668,5.583,5.5697,5.5386,5.5022,5.4869,5.4896,5.5199,5.5742,5.7,5.8736,6.0445,6.1704,6.3628,6.539,6.6875,6.8231,6.8999,6.979,6.2828,6.2357,6.2348,6.1811,6.1106,6.1328,6.134,6.1139,6.1373,6.1547,6.1634,6.2102,6.2851,6.3811,6.5059,6.6299,6.7586,6.8544,6.9907,7.1575,7.1562,7.2944,7.395,7.4732,7.4939,7.5136,7.5401,7.5732,7.5284,7.4758,7.3897,7.3089,7.2577,7.1172,6.9507,6.807,6.7197,6.6362,6.5644,6.5075,6.4924,6.4958,6.4613,6.4495,6.4909,6.4676,6.4339,6.4055,6.4289,6.4483,6.3648,6.3289,6.2754,6.2142,6.1107,5.9784,5.8731,5.829,5.8474,5.829,5.8116,5.8088,5.8305,5.84,5.8042,5.7492,5.6871,5.6392,5.6655,5.6918,5.7332,5.7821,5.8899,5.9901,6.0083,6.0221,6.0715,6.1311,6.147,6.1492,6.097,6.0269,5.9454,5.8733,5.8208,5.8182,5.8445,5.8944,5.9361,5.976,5.9999,6.0211,6.0023,5.9663,5.8975,5.8392,5.7776,5.726,5.7062,5.6738,5.6283,5.6129,5.6212,5.6674,5.719,5.8519,5.9828,6.0653,6.1981,6.3877,6.5616,6.699,6.8328,6.9412,7.0202,6.1595,6.1598,6.1445,6.0903,6.0268,6.0812,6.0656,6.01,6.0783,6.1334,6.1422,6.1528,6.2094,6.3088,6.3896,6.4977,6.6156,6.7197,6.8499,7.1212,7.0805,7.162,7.3006,7.4319,7.3899,7.4243,7.4615,7.484,7.3927,7.353,7.3318,7.2695,7.201,7.0948,6.9739,6.8111,6.724,6.705,6.5838,6.4853,6.4886,6.4886,6.4853,6.4815,6.4853,6.4777,6.4668,6.4595,6.4558,6.4326,6.4083,6.3798,6.2992,6.1382,6.0078,5.9381,5.8427,5.807,5.8107,5.8033,5.8079,5.8179,5.8312,5.84,5.8079,5.7501,5.6915,5.6586,5.6734,5.6813,5.7153,5.8163,5.9244,6.0136,6.0617,6.1316,6.222,6.2808,6.3174,6.3079,6.2639,6.1823,6.0824,6.01,5.9166,5.9086,5.9086,5.9549,5.9763,6.0078,6.0335,6.0547,6.0262,5.9937,5.9698,5.9149,5.8975,5.8567,5.8253,5.7954,5.7409,5.7375,5.7596,5.8089,5.8746,5.9605,6.066,6.1629,6.2792,6.4369,6.5946,6.7066,6.8312,6.9595,7.0584,6.1568,6.1468,6.0798,5.9983,5.918,5.9335,5.9279,5.8971,5.9181,6.0109,6.1227,6.1434,6.1875,6.26,6.2899,6.3794,6.4662,6.57,6.6581,6.7884,6.8519,6.9903,7.1068,7.2081,7.2274,7.2854,7.335,7.3649,7.3245,7.2914,7.2525,7.1967,7.1403,7.0688,6.9815,6.8187,6.7391,6.7504,6.588,6.486,6.4784,6.4746,6.4671,6.4671,6.4671,6.4671,6.4558,6.4444,6.4403,6.4284,6.3995,6.3654,6.3252,6.0687,5.9773,5.9674,5.8537,5.7997,5.7923,5.7997,5.8042,5.8125,5.826,5.8393,5.819,5.7621,5.7221,5.6925,5.6777,5.6855,5.7229,5.8388,5.9547,6.0367,6.1147,6.2327,6.3535,6.4261,6.4806,6.461,6.4202,6.3329,6.2326,6.1336,6.0428,5.9894,5.9609,5.9716,5.9749,6.0017,6.0371,6.0485,6.0297,6.0036,5.9902,5.9657,5.9341,5.9081,5.8721,5.8517,5.8403,5.8637,5.8969,5.959,6.0236,6.1043,6.1825,6.2855,6.4081,6.5228,6.6296,6.7451,6.873,6.9989,7.0939,6.0429,6.0328,5.9814,5.905,5.8372,5.8537,5.8419,5.8062,5.8297,5.9029,6.0029,6.0506,6.1174,6.202,6.2315,6.2626,6.334,6.4171,6.5442,6.6281,6.6805,6.8123,6.9143,7.0073,7.0246,7.0783,7.1286,7.1658,7.2225,7.1866,7.1315,7.106,7.0688,7.027,6.9587,6.8332,6.7567,6.7789,6.5793,6.5003,6.478,6.4668,6.4558,6.452,6.4481,6.4481,6.4403,6.4284,6.4203,6.4,6.3698,6.3428,6.2656,6.0848,5.9981,5.9674,5.8877,5.7694,5.7886,5.7997,5.8042,5.8125,5.862,5.8821,5.8634,5.8136,5.7955,5.7661,5.7376,5.7416,5.7564,5.8497,5.9766,6.0774,6.1358,6.2234,6.4002,6.552,6.5741,6.5632,6.515,6.4472,6.3429,6.2292,6.145,6.097,6.0651,6.0068,6.0088,5.9929,6.0246,6.0388,6.0129,6.0135,6.0199,5.9847,5.9487,5.9319,5.9253,5.9407,5.9459,5.9943,6.0391,6.092,6.1557,6.2279,6.3101,6.4033,6.4816,6.5815,6.6846,6.7816,6.9091,7.0288,7.1029,5.8978,5.8782,5.8532,5.7892,5.724,5.7731,5.7544,5.6946,5.758,5.7983,5.8273,5.905,5.994,6.0906,6.1524,6.1872,6.2317,6.3033,6.4327,6.5059,6.5715,6.6692,6.7779,6.8758,6.8844,6.8887,6.9268,7.0178,7.1073,7.0556,7.0225,7.0119,6.9967,6.9738,6.9159,6.8429,6.7621,6.7042,6.5913,6.5197,6.4907,6.4694,6.4477,6.4326,6.4326,6.4284,6.4244,6.4162,6.4,6.3786,6.3519,6.3242,6.2487,6.1056,6.0469,5.9846,5.8611,5.796,5.7923,5.7997,5.8042,5.8281,5.8952,5.9079,5.8776,5.8597,5.8381,5.8169,5.7928,5.7861,5.8005,5.8452,5.9719,6.1172,6.1713,6.2517,6.4614,6.6445,6.6492,6.6418,6.6007,6.54,6.4405,6.3298,6.2606,6.2062,6.1486,6.0972,6.0494,6.0219,6.0192,6.0058,5.9854,5.996,6.0227,5.9682,5.9143,5.9951,6.0048,6.0254,6.0575,6.1074,6.1579,6.2157,6.2781,6.3479,6.4242,6.5077,6.586,6.6565,6.7579,6.8674,6.9544,7.0592,7.1126,5.852,5.7716,5.6946,5.6133,5.541,5.54,5.521,5.5132,5.5818,5.6505,5.7043,5.7328,5.8204,5.9858,5.9865,6.0242,6.105,6.1867,6.2127,6.2656,6.4001,6.5167,6.6216,6.7208,6.7493,6.7744,6.7992,6.8569,6.9344,6.9236,6.9357,6.9664,6.9622,6.9124,6.8241,6.7503,6.6849,6.6306,6.5478,6.4588,6.4743,6.457,6.4278,6.4244,6.4284,6.4284,6.4244,6.4079,6.3958,6.3786,6.3437,6.311,6.2279,6.1116,6.0371,5.9688,5.8454,5.805,5.7941,5.8134,5.8217,5.8217,5.8667,5.8685,5.8481,5.8408,5.8223,5.815,5.7962,5.7914,5.8103,5.8364,5.9367,6.1137,6.2234,6.3678,6.5445,6.6384,6.6861,6.6916,6.6828,6.609,6.5235,6.4232,6.3428,6.2764,6.1805,6.1219,6.0368,6.0206,6.0107,5.9861,5.9552,5.9854,6.0184,5.9072,5.8697,5.9811,6.0805,6.1024,6.1444,6.2193,6.2732,6.3149,6.3955,6.4772,6.553,6.626,6.6846,6.7573,6.8604,6.9581,7.0324,7.1065,7.1671]},{"header":{"parameterUnit":"m.s-1","parameterCategory":1,"la1":31.0,"la2":29.5877,"lo1":-88.7671,"lo2":-86.6584,"dy":0.0162,"dx":0.0185,"nx":115,"ny":88,"refTime":"2023-08-30T12:00:00:Z","depth":0,"parameterNumber":3,"parameterNumberName":"V-component_of_WINDS"},"data":[0.0,0.0,0.0,0.0,0.0,0.0,0.0,0.0,0.0,0.0,0.0,0.0,0.0,0.0,0.0,0.0,0.0,0.0,0.0,0.0,0.0,0.0,0.0,0.0,0.0,0.0,0.0,0.0,0.0,0.0,0.0,0.0,0.0,0.0,0.0,0.0,0.0,0.0,0.0,0.0,0.0,0.0,0.0,0.0,0.0,0.0,0.0,0.0,0.0,0.0,0.0,0.0,0.0,0.0,0.0,0.0,0.0,0.0,0.0,0.0,0.0,0.0,0.0,0.0,0.0,0.0,0.0,0.0,0.0,0.0,0.0,0.0,0.0,0.0,0.0,0.0,0.0,0.0,0.0,0.0,0.0,0.0,0.0,0.0,0.0,0.0,0.0,0.0,0.0,0.0,0.0,0.0,0.0,0.0,0.0,0.0,0.0,0.0,0.0,0.0,0.0,0.0,0.0,0.0,0.0,0.0,0.0,0.0,0.0,0.0,0.0,0.0,0.0,0.0,0.0,0.0,0.0,0.0,0.0,0.0,0.0,0.0,0.0,0.0,0.0,0.0,0.0,0.0,0.0,0.0,0.0,0.0,0.0,0.0,0.0,0.0,0.0,0.0,0.0,0.0,0.0,0.0,0.0,0.0,0.0,0.0,0.0,0.0,0.0,0.0,0.0,0.0,0.0,0.0,0.0,0.0,0.0,0.0,0.0,0.0,0.0,0.0,0.0,0.0,0.0,0.0,0.0,0.0,0.0,0.0,0.0,0.0,0.0,0.0,0.0,0.0,0.0,0.0,0.0,0.0,0.0,0.0,0.0,0.0,0.0,0.0,0.0,0.0,0.0,0.0,0.0,0.0,0.0,0.0,0.0,0.0,0.0,0.0,0.0,0.0,0.0,0.0,0.0,0.0,0.0,0.0,0.0,0.0,0.0,0.0,0.0,0.0,0.0,0.0,0.0,0.0,0.0,0.0,0.0,0.0,0.0,0.0,0.0,0.0,0.0,0.0,0.0,0.0,0.0,0.0,0.0,0.0,0.0,0.0,0.0,0.0,0.0,0.0,0.0,0.0,0.0,0.0,0.0,0.0,0.0,0.0,0.0,0.0,0.0,0.0,0.0,0.0,0.0,0.0,0.0,0.0,0.0,0.0,0.0,0.0,0.0,0.0,0.0,0.0,0.0,0.0,0.0,0.0,0.0,0.0,0.0,0.0,0.0,0.0,0.0,0.0,0.0,0.0,0.0,0.0,0.0,0.0,0.0,0.0,0.0,0.0,0.0,0.0,0.0,0.0,0.0,0.0,0.0,0.0,0.0,0.0,0.0,0.0,0.0,0.0,0.0,0.0,0.0,0.0,0.0,0.0,0.0,0.0,0.0,0.0,0.0,0.0,0.0,0.0,0.0,0.0,0.0,0.0,0.0,0.0,0.0,0.0,0.0,0.0,0.0,0.0,0.0,0.0,0.0,0.0,0.0,0.0,0.0,0.0,0.0,0.0,0.0,0.0,0.0,0.0,0.0,0.0,0.0,0.0,0.0,0.0,0.0,0.0,0.0,0.0,0.0,0.0,0.0,0.0,0.0,0.0,0.0,0.0,0.0,0.0,0.0,0.0,0.0,0.0,0.0,0.0,0.0,0.0,0.0,0.0,0.0,0.0,0.0,0.0,0.0,0.0,0.0,0.0,0.0,0.0,0.0,0.0,0.0,0.0,0.0,0.0,0.0,0.0,0.0,0.0,0.0,0.0,0.0,0.0,0.0,0.0,0.0,0.0,0.0,0.0,0.0,0.0,0.0,0.0,0.0,0.0,0.0,0.0,0.0,0.0,0.0,0.0,0.0,0.0,0.0,0.0,0.0,0.0,0.0,0.0,0.0,0.0,0.0,0.0,0.0,0.0,0.0,0.0,0.0,0.0,0.0,0.0,0.0,0.0,0.0,0.0,0.0,0.0,0.0,0.0,0.0,0.0,0.0,0.0,0.0,0.0,0.0,0.0,0.0,0.0,0.0,0.0,0.0,0.0,0.0,0.0,0.0,0.0,0.0,0.0,0.0,0.0,0.0,0.0,0.0,0.0,0.0,0.0,0.0,0.0,0.0,0.0,0.0,0.0,0.0,0.0,0.0,0.0,0.0,0.0,0.0,0.0,0.0,0.0,0.0,0.0,0.0,0.0,0.0,0.0,0.0,0.0,0.0,0.0,0.0,0.0,0.0,0.0,0.0,0.0,0.0,0.0,0.0,0.0,0.0,0.0,0.0,0.0,0.0,0.0,0.0,0.0,0.0,0.0,0.0,0.0,0.0,0.0,0.0,0.0,0.0,0.0,0.0,0.0,0.0,0.0,0.0,0.0,0.0,0.0,0.0,0.0,0.0,0.0,0.0,0.0,0.0,0.0,0.0,0.0,0.0,0.0,0.0,0.0,0.0,0.0,0.0,0.0,0.0,0.0,0.0,0.0,0.0,0.0,0.0,0.0,0.0,0.0,0.0,0.0,0.0,0.0,0.0,0.0,0.0,0.0,0.0,0.0,0.0,0.0,0.0,0.0,0.0,0.0,0.0,0.0,0.0,0.0,0.0,0.0,0.0,0.0,0.0,0.0,0.0,0.0,0.0,0.0,0.0,0.0,0.0,0.0,0.0,0.0,0.0,0.0,0.0,0.0,0.0,0.0,0.0,0.0,0.0,0.0,0.0,0.0,0.0,0.0,0.0,0.0,0.0,0.0,0.0,0.0,0.0,0.0,0.0,0.0,0.0,0.0,0.0,0.0,0.0,0.0,0.0,0.0,0.0,0.0,0.0,0.0,0.0,0.0,0.0,0.0,0.0,0.0,0.0,0.0,0.0,0.0,0.0,0.0,0.0,0.0,0.0,0.0,0.0,0.0,0.0,0.0,0.0,0.0,0.0,0.0,0.0,0.0,0.0,0.0,0.0,0.0,0.0,0.0,0.0,0.0,0.0,0.0,0.0,0.0,0.0,0.0,0.0,0.0,0.0,0.0,0.0,0.0,0.0,0.0,0.0,0.0,0.0,0.0,0.0,0.0,0.0,0.0,0.0,0.0,0.0,0.0,0.0,0.0,0.0,0.0,0.0,0.0,0.0,0.0,0.0,0.0,0.0,0.0,0.0,0.0,0.0,0.0,0.0,0.0,0.0,0.0,0.0,0.0,0.0,0.0,0.0,0.0,0.0,0.0,0.0,0.0,0.0,0.0,0.0,0.0,0.0,0.0,0.0,0.0,0.0,0.0,0.0,0.0,0.0,0.0,0.0,0.0,0.0,0.0,0.0,0.0,0.0,0.0,0.0,0.0,0.0,0.0,0.0,0.0,0.0,0.0,0.0,0.0,0.0,0.0,0.0,0.0,0.0,0.0,0.0,0.0,0.0,0.0,0.0,0.0,0.0,0.0,0.0,0.0,0.0,0.0,0.0,0.0,0.0,0.0,0.0,0.0,0.0,0.0,0.0,0.0,0.0,0.0,0.0,0.0,0.0,0.0,0.0,0.0,0.0,0.0,0.0,0.0,0.0,0.0,0.0,0.0,0.0,0.0,0.0,0.0,0.0,0.0,0.0,0.0,0.0,0.0,0.0,0.0,0.0,0.0,0.0,0.0,0.0,0.0,0.0,0.0,0.0,0.0,0.0,0.0,0.0,0.0,0.0,0.0,0.0,0.0,0.0,0.0,0.0,0.0,0.0,0.0,0.0,0.0,0.0,0.0,0.0,0.0,0.0,0.0,0.0,0.0,0.0,0.0,0.0,0.0,0.0,0.0,0.0,0.0,0.0,0.0,0.0,0.0,0.0,0.0,0.0,0.0,0.0,0.0,0.0,0.0,0.0,0.0,0.0,0.0,0.0,0.0,0.0,0.0,0.0,0.0,0.0,0.0,0.0,0.0,0.0,0.0,0.0,0.0,0.0,0.0,0.0,0.0,0.0,0.0,0.0,0.0,0.0,0.0,0.0,0.0,0.0,0.0,0.0,0.0,0.0,0.0,0.0,0.0,0.0,0.0,0.0,0.0,0.0,0.0,0.0,0.0,0.0,0.0,0.0,0.0,0.0,0.0,0.0,0.0,0.0,0.0,0.0,0.0,0.0,0.0,0.0,0.0,0.0,0.0,0.0,0.0,0.0,0.0,0.0,0.0,0.0,0.0,0.0,0.0,0.0,0.0,0.0,0.0,0.0,0.0,0.0,0.0,0.0,0.0,0.0,0.0,0.0,0.0,0.0,0.0,0.0,0.0,0.0,0.0,0.0,0.0,0.0,0.0,0.0,0.0,0.0,0.0,0.0,0.0,-0.3502,0.0,0.0,0.0,0.0,0.0,0.0,0.0,0.0,0.0,0.0,0.0,0.0,0.0,0.0,0.0,0.0,0.0,0.0,0.0,0.0,0.0,0.0,0.0,0.0,0.0,0.0,0.0,0.0,0.0,0.0,0.0,0.0,0.0,0.0,0.0,0.0,0.0,0.0,0.0,0.0,0.0,0.0,0.0,0.0,0.0,0.0,0.0,0.0,0.0,0.0,0.0,0.0,0.0,0.0,0.0,0.0,0.0,0.0,0.0,0.0,0.0,0.0,0.0,0.0,0.0,0.0,0.0,0.0,0.0,0.0,0.0,0.0,0.0,0.0,0.0,0.0,0.0,0.0,0.0,0.0,0.0,0.0,0.0,0.0,0.0,0.0,0.0,0.0,0.0,0.0,0.0,0.0,0.0,0.0,0.0,0.0,0.0,0.0,0.0,0.0,0.0,0.0,0.0,0.0,0.0,0.0,0.0,0.0,0.0,0.0,-0.43,-0.4295,-0.3356,-0.2997,-0.3332,0.0,0.0,0.0,0.0,0.0,0.0,0.0,0.0,0.0,0.0,0.0,0.0,0.0,0.0,0.0,0.0,0.0,0.0,0.0,0.0,0.0,0.0,0.0,0.0,0.0,0.0,0.0,0.0,0.0,0.0,0.0,0.0,0.0,0.0,0.0,0.0,0.0,0.0,0.0,0.0,0.0,0.0,0.0,0.0,0.0,0.0,0.0,0.0,0.0,0.0,0.0,0.0,0.0,0.0,0.0,0.0,0.0,0.0,0.0,0.0,0.0,0.0,0.0,0.0,0.0,0.0,0.0,0.0,0.0,0.0,0.0,0.0,0.0,0.0,0.0,0.0,0.0,0.0,0.0,0.0,0.0,0.0,0.0,0.0,0.0,0.0,0.0,0.0,0.0,0.0,0.0,0.0,0.0,0.0,0.0,0.0,0.0,0.0,0.0,0.0,0.0,0.0,0.0,0.0,0.0,0.0,0.0,0.0,0.0,0.0,0.0,0.0,-0.3598,-0.3202,-0.3308,0.0,0.0,0.0,0.0,0.0,0.0,0.0,0.0,0.0,0.0,0.0,0.0,0.0,0.0,0.0,0.0,0.0,0.0,0.0,0.0,0.0,0.0,0.0,0.0,0.0,0.0,0.0,0.0,0.0,0.0,0.0,0.0,0.0,0.0,0.0,0.0,0.0,0.0,0.0,0.0,0.0,0.0,0.0,0.0,0.0,0.0,0.0,0.0,0.0,0.0,0.0,0.0,0.0,0.0,0.0,0.0,0.0,0.0,0.0,0.0,0.0,0.0,0.0,0.0,0.0,0.0,0.0,0.0,0.0,0.0,0.0,0.0,0.0,0.0,0.0,0.0,0.0,0.0,0.0,0.0,0.0,0.0,0.0,0.0,0.0,0.0,0.0,0.0,0.0,0.0,0.0,0.0,0.0,0.0,0.0,0.0,0.0,0.0,0.0,0.0,0.0,0.0,0.0,0.0,0.0,0.0,0.0,0.0,0.0,0.0,-0.4468,-0.4922,-0.417,0.0,-0.42,0.0,0.0,0.0,0.0,0.0,0.0,0.0,0.0,0.0,0.0,0.0,0.0,0.0,0.0,0.0,0.0,0.0,0.0,0.0,0.0,0.0,0.0,0.0,0.0,0.0,0.0,0.0,0.0,0.0,0.0,0.0,0.0,0.0,0.0,0.0,0.0,0.0,0.0,0.0,0.0,0.0,0.0,0.0,0.0,0.0,0.0,0.0,0.0,0.0,0.0,0.0,0.0,0.0,0.0,0.0,0.0,0.0,0.0,0.0,0.0,0.0,0.0,0.0,0.0,0.0,0.0,0.0,0.0,0.0,0.0,0.0,0.0,0.0,0.0,0.0,0.0,0.0,0.0,0.0,0.0,0.0,0.0,0.0,0.0,0.0,0.0,0.0,0.0,0.0,0.0,0.0,0.0,0.0,0.0,0.0,0.0,0.0,0.0,0.0,0.0,0.0,0.0,0.0,0.0,0.0,0.0,0.0,0.0,0.0,0.0,-0.4899,-0.5426,-0.4922,-0.4765,0.0,0.0,0.0,0.0,0.0,0.0,0.0,0.0,0.0,0.0,0.0,0.0,0.0,0.0,0.0,0.0,0.0,0.0,0.0,0.0,0.0,0.0,0.0,0.0,0.0,0.0,0.0,0.0,0.0,0.0,0.0,0.0,0.0,0.0,0.0,0.0,0.0,0.0,0.0,0.0,0.0,0.0,0.0,0.0,0.0,0.0,0.0,0.0,0.0,0.0,0.0,0.0,0.0,0.0,0.0,0.0,0.0,0.0,0.0,0.0,0.0,0.0,0.0,0.0,0.0,0.0,0.0,0.0,0.0,0.0,0.0,0.0,0.0,0.0,0.0,0.0,0.0,0.0,0.0,0.0,0.0,0.0,0.0,0.0,0.0,0.0,0.0,0.0,0.0,0.0,0.0,0.0,0.0,0.0,0.0,0.0,0.0,0.0,0.0,0.0,0.0,0.0,0.0,0.0,0.0,0.0,0.0,0.0,0.0,0.0,-0.5213,-0.5139,-0.5541,-0.5365,-0.522,-0.5231,0.0,0.0,0.0,0.0,0.0,0.0,0.0,0.0,0.0,0.0,0.0,0.0,0.0,0.0,0.0,0.0,0.0,0.0,0.0,0.0,0.0,0.0,0.0,0.0,0.0,0.0,0.0,0.0,0.0,0.0,0.0,0.0,0.0,0.0,0.0,0.0,0.0,0.0,0.0,0.0,0.0,0.0,0.0,0.0,0.0,0.0,0.0,0.0,0.0,0.0,0.0,0.0,0.0,0.0,0.0,0.0,0.0,0.0,0.0,0.0,0.0,0.0,0.0,0.0,0.0,0.0,0.0,0.0,0.0,0.0,0.0,0.0,0.0,0.0,0.0,0.0,0.0,0.0,0.0,0.0,0.0,0.0,0.0,0.0,0.0,0.0,0.0,0.0,0.0,0.0,0.0,0.0,0.0,0.0,0.0,0.0,0.0,0.0,0.0,0.0,0.0,0.0,0.0,0.0,0.0,0.0,0.0,0.0,-0.4259,-0.4836,-0.527,-0.5368,-0.5457,-0.5297,0.0,0.0,0.0,0.0,0.0,0.0,0.0,0.0,0.0,0.0,0.0,0.0,0.0,0.0,0.0,0.0,0.0,0.0,0.0,0.0,0.0,0.0,0.0,0.0,0.0,0.0,0.0,0.0,0.0,0.0,0.0,0.0,0.0,0.0,0.0,0.0,0.0,0.0,0.0,0.0,0.0,0.0,0.0,0.0,0.0,0.0,0.0,0.0,0.0,0.0,0.0,0.0,0.0,0.0,0.0,0.0,0.0,0.0,0.0,0.0,0.0,0.0,0.0,0.0,0.0,0.0,0.0,0.0,0.0,0.0,0.0,0.0,0.0,0.0,0.0,0.0,0.0,0.0,0.0,0.0,0.0,0.0,0.0,0.0,0.0,0.0,0.0,0.0,0.0,0.0,0.0,0.0,0.0,0.0,0.0,0.0,0.0,0.0,0.0,0.0,0.0,0.0,0.0,0.0,0.0,0.0,0.0,0.0,0.0,-0.5383,-0.5644,-0.5868,-0.5945,-0.5594,-0.5454,0.0,0.0,0.0,0.0,0.0,0.0,0.0,0.0,0.0,0.0,0.0,0.0,0.0,0.0,0.0,0.0,0.0,0.0,0.0,0.0,0.0,0.0,0.0,0.0,0.0,0.0,0.0,0.0,0.0,0.0,0.0,0.0,0.0,0.0,0.0,0.0,0.0,0.0,0.0,0.0,0.0,0.0,0.0,0.0,0.0,0.0,0.0,0.0,0.0,0.0,0.0,0.0,0.0,0.0,0.0,0.0,0.0,0.0,0.0,0.0,0.0,0.0,0.0,0.0,0.0,0.0,0.0,0.0,0.0,0.0,0.0,0.0,0.0,0.0,0.0,0.0,0.0,0.0,0.0,0.0,0.0,0.0,0.0,0.0,0.0,0.0,0.0,0.0,0.0,0.0,0.0,0.0,0.0,0.0,0.0,0.0,0.0,0.0,0.0,0.0,0.0,0.0,0.0,0.0,0.0,0.0,0.0,0.0,0.0,-0.6037,0.0,-0.6042,-0.5848,-0.5468,-0.5297,0.0,0.0,0.0,0.0,0.0,0.0,0.0,0.0,0.0,0.0,0.0,0.0,0.0,0.0,0.0,0.0,0.0,0.0,0.0,0.0,0.0,0.0,0.0,0.0,0.0,0.0,0.0,0.0,0.0,0.0,0.0,0.0,0.0,0.0,0.0,0.0,0.0,0.0,0.0,0.0,0.0,0.0,0.0,0.0,0.0,0.0,0.0,0.0,0.0,0.0,0.0,0.0,0.0,0.0,0.0,0.0,0.0,0.0,0.0,0.0,0.0,0.0,0.0,0.0,0.0,0.0,0.0,0.0,0.0,0.0,0.0,0.0,0.0,0.0,0.0,0.0,0.0,0.0,0.0,0.0,0.0,0.0,0.0,0.0,0.0,0.0,0.0,0.0,0.0,0.0,0.0,0.0,0.0,0.0,0.0,0.0,0.0,0.0,0.0,0.0,0.0,0.0,0.0,0.0,0.0,0.0,0.0,0.0,-0.6497,-0.5979,-0.6128,-0.5761,-0.4824,-0.5049,-0.4583,0.0,0.0,0.0,0.0,0.0,0.0,0.0,0.0,0.0,0.0,0.0,0.0,0.0,0.0,0.0,0.0,0.0,0.0,0.0,0.0,0.0,0.0,0.0,0.0,0.0,0.0,0.0,0.0,0.0,0.0,0.0,0.0,0.0,0.0,0.0,0.0,0.0,0.0,0.0,0.0,0.0,0.0,0.0,0.0,0.0,0.0,0.0,0.0,0.0,0.0,0.0,0.0,0.0,0.0,0.0,0.0,0.0,0.0,0.0,0.0,0.0,0.0,0.0,0.0,0.0,0.0,0.0,0.0,0.0,0.0,0.0,0.0,0.0,0.0,0.0,0.0,0.0,0.0,0.0,0.0,0.0,0.0,0.0,0.0,0.0,0.0,0.0,0.0,0.0,0.0,0.0,0.0,0.0,0.0,0.0,0.0,0.0,0.0,0.0,0.0,0.0,0.0,0.0,0.0,0.0,0.0,0.0,0.0,0.0,-0.6361,-0.592,-0.5751,-0.6058,-0.5048,-0.4302,0.0,0.0,0.0,0.0,0.0,0.0,0.0,0.0,0.0,0.0,0.0,0.0,0.0,0.0,0.0,0.0,0.0,0.0,0.0,0.0,0.0,0.0,0.0,0.0,0.0,0.0,0.0,0.0,0.0,0.0,0.0,0.0,0.0,0.0,0.0,0.0,0.0,0.0,0.0,0.0,0.0,0.0,0.0,0.0,0.0,0.0,0.0,0.0,0.0,0.0,0.0,0.0,0.0,0.0,0.0,0.0,0.0,0.0,0.0,0.0,0.0,0.0,0.0,0.0,0.0,0.0,0.0,0.0,0.0,0.0,0.0,0.0,0.0,0.0,0.0,0.0,0.0,0.0,0.0,0.0,0.0,0.0,0.0,0.0,0.0,0.0,0.0,0.0,0.0,0.0,0.0,0.0,0.0,0.0,0.0,0.0,0.0,0.0,0.0,0.0,0.0,0.0,0.0,0.0,0.0,0.0,0.0,0.0,0.0,-0.708,-0.63,-0.5987,-0.6184,-0.496,-0.4219,-0.3969,0.0,0.0,0.0,0.0,0.0,0.0,0.0,0.0,0.0,0.0,0.0,0.0,0.0,0.0,0.0,0.0,0.0,0.0,0.0,0.0,0.0,0.0,0.0,0.0,0.0,0.0,0.0,0.0,0.0,0.0,0.0,0.0,0.0,0.0,0.0,0.0,0.0,0.0,0.0,0.0,0.0,0.0,0.0,0.0,0.0,0.0,0.0,0.0,0.0,0.0,0.0,0.0,0.0,0.0,0.0,0.0,0.0,0.0,0.0,0.0,0.0,0.0,0.0,0.0,0.0,0.0,0.0,0.0,0.0,0.0,0.0,0.0,0.0,0.0,0.0,0.0,0.0,0.0,0.0,0.0,0.0,0.0,0.0,0.0,0.0,0.0,0.0,0.0,0.0,0.0,0.0,0.0,0.0,0.0,0.0,0.0,0.0,0.0,0.0,0.0,0.0,0.0,0.0,0.0,0.0,0.0,0.0,0.0,-0.7865,-0.7223,-0.6355,-0.5447,-0.4926,-0.4151,0.0,0.0,0.0,0.0,0.0,0.0,0.0,0.0,0.0,0.0,0.0,0.0,0.0,0.0,0.0,0.0,0.0,0.0,0.0,0.0,0.0,0.0,0.0,0.0,0.0,0.0,0.0,0.0,0.0,0.0,0.0,0.0,0.0,0.0,0.0,0.0,0.0,0.0,0.0,0.0,0.0,0.0,0.0,0.0,0.0,0.0,0.0,0.0,0.0,0.0,0.0,0.0,0.0,0.0,0.0,0.0,0.0,0.0,0.0,0.0,0.0,0.0,0.0,0.0,0.0,0.0,0.0,0.0,0.0,0.0,0.0,0.0,0.0,0.0,0.0,0.0,0.0,0.0,0.0,0.0,0.0,0.0,0.0,0.0,0.0,0.0,0.0,0.0,0.0,0.0,0.0,0.0,0.0,0.0,0.0,0.0,0.0,0.0,0.0,0.0,0.0,0.0,0.0,0.0,0.0,0.0,0.0,0.0,0.0,-0.7986,-0.7287,-0.6328,-0.519,-0.4489,-0.3831,0.0,0.0,0.0,0.0,0.0,0.0,0.0,0.0,0.0,0.0,0.0,0.0,0.0,0.0,0.0,0.0,0.0,0.0,0.0,0.0,0.0,0.0,0.0,0.0,0.0,0.0,0.0,0.0,0.0,0.0,0.0,0.0,0.0,0.0,0.0,0.0,0.0,0.0,0.0,0.0,0.0,0.0,0.0,0.0,0.0,0.0,0.0,0.0,0.0,0.0,0.0,0.0,0.0,0.0,0.0,0.0,0.0,0.0,0.0,0.0,0.0,0.0,0.0,0.0,0.0,0.0,0.0,0.0,0.0,0.0,0.0,0.0,0.0,0.0,0.0,0.0,0.0,0.0,0.0,0.0,0.0,0.0,0.0,0.0,0.0,0.0,0.0,0.0,0.0,0.0,0.0,0.0,0.0,0.0,0.0,0.0,0.0,0.0,0.0,0.0,0.0,0.0,0.0,0.0,0.0,0.0,0.0,0.0,-0.8426,-0.7862,-0.6975,-0.5998,-0.4897,-0.4222,-0.3629,0.0,0.0,0.0,0.0,0.0,0.0,0.0,0.0,0.0,0.0,0.0,0.0,0.0,0.0,0.0,0.0,0.0,0.0,0.0,0.0,0.0,0.0,0.0,0.0,0.0,0.0,0.0,0.0,0.0,0.0,0.0,0.0,0.0,0.0,0.0,0.0,0.0,0.0,0.0,0.0,0.0,0.0,0.0,0.0,0.0,0.0,0.0,0.0,0.0,0.0,0.0,0.0,0.0,0.0,0.0,0.0,0.0,0.0,0.0,0.0,0.0,0.0,0.0,0.0,0.0,0.0,0.0,0.0,0.0,0.0,0.0,0.0,0.0,0.0,0.0,0.0,0.0,0.0,0.0,0.0,0.0,0.0,0.0,0.0,0.0,0.0,0.0,0.0,0.0,0.0,0.0,0.0,0.0,0.0,0.0,0.0,0.0,0.0,0.0,0.0,0.0,0.0,0.0,0.0,0.0,0.0,0.0,0.0,-0.8132,-0.7423,-0.6687,-0.5679,-0.4567,-0.4002,-0.3485,0.0,0.0,0.0,0.0,0.0,0.0,0.0,0.0,0.0,0.0,0.0,0.0,0.0,0.0,0.0,0.0,0.0,0.0,0.0,0.0,0.0,0.0,0.0,0.0,0.0,0.0,0.0,0.0,0.0,0.0,0.0,0.0,0.0,0.0,0.0,0.0,0.0,0.0,0.0,0.0,0.0,0.0,0.0,0.0,0.0,0.0,0.0,0.0,0.0,0.0,0.0,0.0,0.0,0.0,0.0,0.0,0.0,0.0,0.0,0.0,0.0,0.0,0.0,0.0,0.0,0.0,0.0,0.0,0.0,0.0,0.0,0.0,0.0,0.0,0.0,0.0,0.0,0.0,0.0,0.0,0.0,0.0,0.0,0.0,0.0,0.0,0.0,0.0,0.0,0.0,0.0,0.0,0.0,0.0,0.0,0.0,0.0,0.0,0.0,0.0,0.0,0.0,0.0,0.0,0.0,0.0,0.0,0.0,-0.8196,-0.7296,-0.6703,-0.5674,-0.4209,-0.3934,-0.3546,0.0,0.0,0.0,0.0,0.0,0.0,0.0,0.0,0.0,0.0,0.0,0.0,0.0,0.0,0.0,0.0,0.0,0.0,0.0,0.0,0.0,0.0,0.0,0.0,0.0,0.0,0.0,0.0,0.0,0.0,0.0,0.0,0.0,0.0,0.0,0.0,0.0,0.0,0.0,0.0,0.0,0.0,0.0,0.0,0.0,0.0,0.0,0.0,-0.1205,0.0,0.0,0.0,0.0,0.0,0.0,0.0,0.0,0.0,0.0,0.0,0.0,0.0,0.0,0.0,0.0,0.0,0.0,0.0,0.0,0.0,0.0,0.0,0.0,0.0,0.0,0.0,0.0,0.0,0.0,0.0,0.0,0.0,0.0,0.0,0.0,0.0,0.0,0.0,0.0,0.0,0.0,0.0,0.0,0.0,0.0,0.0,0.0,0.0,0.0,0.0,0.0,0.0,0.0,0.0,0.0,0.0,0.0,0.0,-0.7864,-0.6827,-0.6611,-0.5551,-0.4026,-0.3869,-0.3529,0.0,0.0,0.0,0.0,0.0,0.0,0.0,0.0,0.0,0.0,0.0,0.0,0.0,0.0,0.0,0.0,0.0,0.0,0.0,0.0,0.0,0.0,0.0,0.0,0.0,0.0,0.0,0.0,0.0,0.0,0.0,0.0,0.0,0.0,0.0,0.0,0.0,0.0,0.0,0.0,0.0,0.0,0.0,0.0,0.0,0.0,0.0,0.0,0.0,0.0,0.0,0.0,0.0,0.0,0.0,0.0,0.0,0.0,0.0,0.0,0.0,0.0,0.0,0.0,0.0,0.0,0.0,0.0,0.0,0.0,0.0,0.0,0.0,0.0,0.0,0.0,0.0,0.0,0.0,0.0,0.0,0.0,0.0,0.0,0.0,0.0,0.0,0.0,0.0,0.0,0.0,0.0,0.0,0.0,0.0,0.0,0.0,0.0,0.0,0.0,0.0,0.0,0.0,0.0,0.0,0.0,0.0,-0.7413,-0.7311,-0.6454,-0.6239,-0.527,-0.3696,-0.3804,-0.3508,-0.2764,0.0,0.0,0.0,0.0,0.0,0.0,0.0,0.0,0.0,0.0,0.0,0.0,0.0,0.0,0.0,0.0,0.0,0.0,0.0,0.0,0.0,0.0,0.0,0.0,0.0,0.0,0.0,0.0,0.0,0.0,0.0,0.0,0.0,0.0,0.0,0.0,0.0,0.0,-1.459,-1.2675,0.0,0.0,0.0,0.0,0.0,0.0,0.0,0.0,0.0463,0.0,0.0,0.0,0.0,0.0,0.0,0.0,0.0,0.0,0.0,0.0,0.0,0.0,0.0,0.0,0.0,0.0,0.0,0.0,0.0,0.0,0.0,0.0,0.0,0.0,0.0,0.0,0.0,0.0,0.0,0.0,0.0,0.0,0.0,0.0,0.0,0.0,0.0,0.0,0.0,0.0,0.0,0.0,0.0,0.0,0.0,0.0,0.0,0.0,0.0,0.0,0.0,0.0,0.0,0.0,0.0,-0.7051,-0.6613,-0.6425,-0.6779,-0.5908,-0.4766,-0.3345,-0.3475,-0.3224,-0.2441,0.0,0.0,0.0,0.0,0.0,0.0,0.0,0.0,0.0,0.0,0.0,0.0,0.0,0.0,0.0,0.0,0.0,0.0,0.0,0.0,0.0,0.0,0.0,0.0,0.0,0.0,0.0,0.0,0.0,0.0,0.0,0.0,0.0,0.0,0.0,0.0,0.0,0.0,0.0,-1.2675,-1.1073,0.0,0.0,0.0,0.0,0.0,0.0,0.0,0.0,0.1881,0.0,0.0,0.0,0.0,0.0,0.0,0.0,0.0,0.0,0.0,0.0,0.0,0.0,0.0,0.0,0.0,0.0,0.0,0.0,0.0,0.0,0.0,0.0,0.0,0.0,0.0,0.0,0.0,0.0,0.0,0.0,0.0,0.0,0.0,0.0,0.0,0.0,0.0,0.0,0.0,0.0,0.0,0.0,0.0,0.0,0.0,0.0,0.0,0.0,0.0,0.0,0.0,0.0,0.0,0.0,-0.629,-0.6261,-0.609,-0.5697,-0.5189,-0.4423,-0.3257,-0.3171,-0.2692,0.0,0.0,0.0,0.0,0.0,0.0,0.0,0.0,0.0,0.0,0.0,0.0,0.0,0.0,0.0,0.0,0.0,0.0,0.0,0.0,0.0,0.0,0.0,0.0,0.0,0.0,0.0,0.0,0.0,0.0,0.0,0.0,0.0,0.0,0.0,0.0,0.0,0.0,0.0,0.0,-1.3186,-1.1924,-0.9615,0.0,0.0,0.0,0.0,0.0,0.0,0.1658,0.2629,0.0,0.0,0.0,0.0,0.0,0.0,0.0,0.0,0.0,0.0,0.0,0.0,0.0,0.0,0.0,0.0,0.0,0.0,0.0,0.0,0.0,0.0,0.0,0.0,0.0,0.0,0.0,0.0,0.0,0.0,0.0,0.0,0.0,0.0,0.0,0.0,0.0,0.0,0.0,0.0,0.0,0.0,0.0,0.0,0.0,0.0,0.0,0.0,0.0,0.0,0.0,0.0,0.0,0.0,0.0,-0.5523,-0.583,-0.5416,-0.4281,-0.4445,-0.4203,-0.3277,-0.2906,-0.2442,0.0,0.0,0.0,0.0,0.0,0.0,0.0,0.0,0.0,0.0,0.0,0.0,0.0,0.0,0.0,0.0,0.0,0.0,0.0,0.0,0.0,0.0,0.0,0.0,0.0,0.0,0.0,0.0,0.0,0.0,0.0,0.0,0.0,0.0,0.0,0.0,0.0,0.0,0.0,0.0,0.0,-1.2548,-1.0473,-0.8765,0.0,0.0,0.0,0.0,0.1693,0.2718,0.0,0.0,0.0,0.0,0.0,0.0,0.0,0.0,0.0,0.0,0.0,0.0,0.0,0.0,0.0,0.0,0.0,0.0,0.0,0.0,0.0,0.0,0.0,0.0,0.0,0.0,0.0,0.0,0.0,0.0,0.0,0.0,0.0,0.0,0.0,0.0,0.0,0.0,0.0,0.0,0.0,0.0,0.0,0.0,0.0,0.0,0.0,0.0,0.0,0.0,0.0,0.0,0.0,0.0,0.0,0.0,-0.573,-0.5138,-0.4321,-0.3477,-0.3675,-0.3546,-0.2836,-0.3035,-0.2701,0.0,0.0,0.0,0.0,0.0,0.0,0.0,0.0,0.0,0.0,0.0,0.0,0.0,0.0,0.0,0.0,0.0,0.0,0.0,0.0,0.0,0.0,0.0,0.0,0.0,0.0,0.0,0.0,0.0,0.0,0.0,0.0,0.0,0.0,0.0,0.0,0.0,0.0,0.0,0.0,0.0,-1.1891,-1.03,-0.9133,-0.7476,0.0,0.0,0.0521,0.2866,0.3435,0.0,0.0,0.0,0.0,0.0,0.0,0.0,0.0,0.0,0.0,0.0,0.0,0.0,0.0,0.0,0.0,0.0,0.0,0.0,0.0,0.0,0.0,0.0,0.0,0.0,0.0,0.0,0.0,0.0,0.0,0.0,0.0,0.0,0.0,0.0,0.0,0.0,0.0,0.0,0.0,0.0,0.0,0.0,0.0,0.0,0.0,0.0,0.0,0.0,0.0,0.0,0.0,0.0,0.0,0.0,-0.4946,-0.5181,-0.4979,-0.4345,-0.3255,-0.3585,-0.3454,-0.2728,-0.2716,-0.2382,0.0,0.0,0.0,0.0,0.0,0.0,0.0,0.0,0.0,0.0,0.0,0.0,0.0,0.0,0.0,0.0,0.0,0.0,0.0,0.0,0.0,0.0,0.0,0.0,0.0,0.0,0.0,0.0,0.0,0.0,0.0,0.0,0.0,0.0,0.0,0.0,0.0,0.0,0.0,0.0,0.0,0.0,-1.0718,-0.912,0.0,0.0,0.0,0.0544,0.2839,0.0,0.0,0.0,0.0,0.0,0.0,0.0,0.0,0.0,0.0,0.0,0.0,0.0,0.0,0.0,0.0,0.0,0.0,0.0,0.0,0.0,0.0,0.0,0.0,0.0,0.0,0.0,0.0,0.0,0.0,0.0,0.0,0.0,0.0,0.0,0.0,0.0,0.0,0.0,0.0,0.0,0.0,0.0,0.0,0.0,0.0,0.0,0.0,0.0,0.0,0.0,0.0,0.0,0.0,0.0,0.0,0.0,-0.4807,-0.4906,-0.4347,-0.3273,-0.3345,-0.3211,-0.2598,-0.2316,0.0,0.0,0.0,0.0,0.0,0.0,0.0,0.0,0.0,0.0,0.0,0.0,0.0,0.0,0.0,0.0,0.0,0.0,0.0,0.0,0.0,0.0,0.0,0.0,0.0,0.0,0.0,-1.98,0.0,0.0,0.0,0.0,0.0,0.0,0.0,0.0,0.0,0.0,0.0,0.0,0.0,0.0,-1.1852,-1.0655,-0.9182,-0.7358,0.0,0.0,0.0425,0.2682,0.3059,0.3205,0.0,0.0,0.0,0.0,0.0,0.0,0.0,0.0,0.0,0.0,0.0,0.0,0.0,0.0,0.0,0.0,0.0,0.0,0.0,0.0,0.0,0.0,0.0,0.0,0.0,0.0,0.0,0.0,0.0,0.0,0.0,0.0,0.0,0.0,0.0,0.0,0.0,0.0,0.0,0.0,0.0,0.0,0.0,0.0,0.0,0.0,0.0,0.0,0.0,0.0,0.0,0.0,0.0,0.0,-0.4685,-0.4822,-0.471,-0.424,-0.3369,-0.3079,-0.2664,-0.2296,-0.228,-0.1876,0.0,0.0,0.0,0.0,0.0,0.0,0.0,0.0,0.0,0.0,0.0,0.0,0.0,0.0,0.0,0.0,0.0,0.0,0.0,0.0,0.0,0.0,0.0,0.0,0.0,0.0,0.0,0.0,0.0,0.0,0.0,0.0,0.0,0.0,0.0,0.0,0.0,0.0,0.0,0.0,0.0,-1.0959,-0.9269,-0.9421,-0.8989,0.0,-0.3393,-0.0148,0.2403,0.319,0.3198,0.2386,0.0,0.0,0.0,0.0,0.0,0.0,0.0,0.0,0.0,0.0,0.0,0.0,0.0,0.0,0.0,0.0,0.0,0.0,0.0,0.0,0.0,0.0,0.0,0.0,0.0,0.0,0.0,0.0,0.0,0.0,0.0,0.0,0.0,0.0,0.0,0.0,0.0,0.0,0.0,0.0,0.0,0.0,0.0,0.0,0.0,0.0,0.0,0.0,0.0,0.0,0.0,0.0,0.0,-0.4303,-0.4782,-0.453,-0.388,-0.3098,-0.2964,-0.2689,-0.2158,-0.2021,-0.1762,0.0,0.0,0.0,0.0,0.0,0.0,0.0,0.0,0.0,0.0,0.0,0.0,0.0,0.0,0.0,0.0,0.0,0.0,0.0,0.0,0.0,0.0,0.0,0.0,0.0,0.0,0.0,0.0,-2.1823,-2.1897,-2.0908,0.0,0.0,0.0,0.0,0.0,0.0,0.0,0.0,0.0,0.0,-0.9736,-0.898,-0.8315,0.0,0.0,-0.2901,-0.0307,0.2839,0.2356,0.1985,0.2423,0.2303,0.0,0.0,0.0,0.0,0.0,0.0,0.0,0.0,0.0,0.0,0.0,0.0,0.0,0.0,0.0,0.0,0.0,0.0,0.0,0.0,0.0,0.0,0.0,0.0,0.0,0.0,-0.6599,-0.686,0.0,0.0,0.0,0.0,0.0,0.0,0.0,0.0,0.0,0.0,0.0,0.0,0.0,0.0,0.0,0.0,0.0,0.0,0.0,0.0,0.0,0.0,0.0,0.0,-0.401,-0.4599,-0.4316,-0.364,-0.2707,-0.2834,-0.2698,-0.2173,-0.2024,-0.1769,0.0,0.0,0.0,0.0,0.0,0.0,0.0,0.0,0.0,0.0,0.0,0.0,0.0,0.0,0.0,0.0,0.0,0.0,0.0,0.0,0.0,0.0,0.0,0.0,0.0,0.0,0.0,0.0,-2.2223,-2.2094,-2.1181,0.0,0.0,0.0,0.0,0.0,0.0,0.0,0.0,0.0,0.0,-0.744,-0.8085,-0.7016,-0.5557,-0.4243,-0.2796,-0.0779,0.2244,0.1554,0.1045,0.2303,0.0,0.0,0.0,0.0,0.0,0.0,0.0,0.0,0.0,0.0,0.0,0.0,0.0,0.0,0.0,0.0,0.0,0.0,0.0,0.0,0.0,0.0,0.0,0.0,0.0,0.0,0.0,-0.7054,0.0,0.0,-0.7517,0.0,0.0,0.0,0.0,0.0,0.0,0.0,0.0,0.0,0.0,0.0,0.0,0.0,0.0,0.0,0.0,0.0,0.0,0.0,0.0,0.0,0.0,-0.4109,-0.4151,-0.4065,-0.3521,-0.2333,-0.24,-0.2263,-0.22,-0.217,-0.1785,-0.0898,0.0,0.0,0.0,0.0,0.0,0.0,0.0,0.0,0.0,0.0,0.0,0.0,0.0,0.0,0.0,0.0,0.0,0.0,0.0,0.0,0.0,0.0,0.0,0.0,0.0,0.0,-2.1024,-2.1368,-2.1553,0.0,0.0,0.0,0.0,0.0,0.0,0.0,0.0,0.0,-1.0772,-0.6268,-0.4017,-0.6684,-0.5372,-0.4241,-0.4266,-0.311,-0.1548,0.0471,0.0471,0.0615,0.0,0.0,0.0,0.0,0.0,0.0,0.0,0.0,0.0,0.0,0.0,0.0,0.0,0.0,0.0,0.0,0.0,0.0,0.0,0.0,0.0,0.0,0.0,0.0,0.0,0.0,0.0,-0.6154,-0.5989,0.0,0.0,0.0,0.0,0.0,0.0,0.0,0.0,0.0,0.0,0.0,-0.694,-0.5674,0.0,0.0,0.0,0.0,0.0,0.0,0.0,0.0,0.0,0.0,0.0,0.0,-0.3788,-0.4287,-0.4013,-0.357,-0.2784,-0.2834,-0.2684,-0.2202,-0.2306,-0.1879,-0.1265,0.0,0.0,0.0,0.0,0.0,0.0,0.0,0.0,0.0,0.0,0.0,0.0,0.0,0.0,0.0,0.0,0.0,0.0,0.0,0.0,0.0,0.0,0.0,0.0,0.0,-2.1417,0.0,0.0,0.0,0.0,0.0,0.0,0.0,0.0,0.0,0.0,-1.4639,-1.3146,-1.0665,-0.5948,-0.3772,-0.6344,-0.4933,-0.3797,0.0,0.0,0.0,0.0,0.0,0.0,0.0,0.0,0.0,0.0,0.0,0.0,0.0,0.0714,0.0142,-0.1028,-0.2244,-0.3189,-0.36,0.0,0.0,0.0,0.0,0.0,0.0,0.0,0.0,0.0,0.0,0.0,0.0,0.0,0.0,-0.5872,-0.5798,-0.6799,0.0,0.0,0.0,0.0,0.0,0.0,0.0,0.0,-0.9394,-0.8516,-0.7207,-0.5732,-0.4389,-0.3208,-0.2187,-0.1742,0.0,0.0,0.0,0.0,0.0,0.0,0.0,0.0,-0.3784,-0.4388,-0.4194,-0.3742,-0.3245,-0.2977,-0.2682,-0.223,-0.1748,-0.1484,-0.1596,-0.1995,-0.2455,0.0,0.0,0.0,0.0,0.0,0.0,0.0,0.0,0.0,0.0,0.0,0.0,0.0,0.0,0.0,0.0,0.0,0.0,0.0,0.0,0.0,0.0,0.0,-2.18,0.0,0.0,0.0,0.0,0.0,0.0,0.0,0.0,0.0,-1.6423,-1.494,-1.3436,-1.1114,-0.6758,-0.4574,-0.6633,0.0,0.0,0.0,0.0,0.0,0.0,0.0,-0.0,0.1045,0.1325,0.1599,0.2189,0.2386,0.2265,0.1787,0.0,0.0,-0.0542,-0.1973,-0.3118,-0.3727,-0.438,-0.4936,-0.5291,-0.5855,-0.6283,0.0,0.0,0.0,0.0,-0.4426,0.0,0.0,0.0,-0.5153,-0.5511,0.0,-0.6764,0.0,0.0,0.0,0.0,-0.853,-0.9669,0.0,0.0,-0.9462,-0.8638,-0.7252,-0.5745,-0.4215,-0.304,-0.2397,-0.1955,-0.1718,-0.1607,-0.1641,0.0,0.0,0.0,0.0,0.0,-0.4006,-0.4349,-0.4352,-0.4041,-0.343,-0.2682,-0.2256,-0.2136,-0.0793,-0.0614,-0.1727,-0.1978,-0.2253,-0.2793,-0.3539,0.0,0.0,0.0,0.0,0.0,0.0,0.0,0.0,0.0,0.0,0.0,0.0,0.0,0.0,0.0,0.0,0.0,0.0,0.0,0.0,-2.1158,0.0,0.0,0.0,0.0,0.0,0.0,0.0,0.0,0.0,-2.0553,-1.7215,-1.4741,-1.2898,-1.2131,0.0,0.0,0.0,0.0,-0.3403,-0.3693,-0.3171,-0.2359,-0.1574,-0.2023,-0.169,0.0304,0.0,0.0,0.2133,0.2635,0.2648,0.2405,0.2462,0.2029,0.0457,-0.1173,-0.2575,-0.3569,-0.4236,-0.4777,-0.5491,-0.6083,-0.6541,-0.258,0.0,0.0,0.0,0.0,-0.4505,-0.4579,-0.446,-0.5421,-0.562,-0.5459,-0.6749,0.0,0.0,0.0,0.0,0.0,0.0,-1.0055,-0.9621,-0.9338,-0.8497,-0.7142,-0.5526,-0.4224,-0.3169,-0.2435,-0.1856,-0.1545,-0.2129,-0.2377,-0.2143,0.0,0.0,0.0,0.0,-0.3937,-0.4548,-0.4454,-0.4095,-0.348,-0.312,-0.2226,-0.0686,0.0131,0.0,-0.1173,-0.1522,-0.1982,-0.2654,-0.3346,0.0,0.0,0.0,0.0,0.0,0.0,0.0,0.0,0.0,0.0,0.0,0.0,0.0,0.0,0.0,0.0,0.0,0.0,0.0,-2.1214,-2.2197,-2.3071,0.0,0.0,0.0,0.0,0.0,0.0,0.0,0.0,0.0,-1.8738,-1.6043,-1.3569,0.0,0.0,-0.6999,-0.7445,-0.5471,-0.3919,-0.364,-0.3725,0.0,-0.2253,-0.2359,-0.217,-0.1571,0.0481,0.2114,0.245,0.2613,0.2602,0.2572,0.2575,0.209,0.1116,-0.0615,-0.2085,-0.3242,-0.413,-0.5054,-0.5703,-0.6142,-0.6427,-0.1677,-0.2841,-0.3349,-0.3731,-0.3852,-0.4416,-0.4475,-0.4185,-0.5215,-0.5328,-0.4952,-0.646,-0.7093,-0.7036,-0.7834,0.0,0.0,0.0,-0.972,-0.9423,-0.8756,-0.7826,-0.6762,-0.5194,-0.388,-0.3117,-0.2469,-0.1898,-0.1625,-0.2757,-0.3052,-0.2715,0.0,-0.3188,-0.3699,-0.3531,-0.3693,-0.4377,-0.4362,-0.411,-0.3907,-0.315,-0.1818,-0.0,0.0932,0.1031,0.0243,-0.1146,-0.2236,-0.2709,-0.3221,-0.3664,0.0,0.0,0.0,0.0,0.0,0.0,0.0,0.0,0.0,0.0,0.0,-1.1938,-1.1974,0.0,0.0,0.0,-1.7986,-2.0402,-2.3195,-2.4104,0.0,0.0,0.0,0.0,0.0,0.0,0.0,-2.4009,-2.2948,-2.1667,-2.0202,-1.7647,-1.4966,-1.2306,-0.9742,-0.8148,-0.8002,0.0,-0.4717,-0.4329,-0.3942,-0.3574,-0.2944,-0.2575,-0.2394,-0.1942,0.0,0.1669,0.2183,0.251,0.2667,0.2664,0.2652,0.2476,0.198,0.0642,-0.0939,-0.2627,-0.3721,-0.4686,-0.5664,-0.5756,-0.6007,-0.0778,-0.2323,-0.3417,-0.3759,-0.387,-0.424,-0.4397,-0.429,-0.4768,-0.4855,-0.4651,-0.603,-0.6429,-0.6325,-0.7752,0.0,-0.827,-0.8829,-0.9148,-0.9168,-0.7912,-0.7006,-0.614,-0.4656,-0.3623,-0.2889,-0.2376,-0.2212,-0.2233,-0.3371,-0.3853,-0.3659,-0.3564,-0.3583,-0.3518,-0.3344,-0.3532,-0.4002,-0.3959,-0.4092,-0.4572,-0.304,-0.1421,0.0,0.15,0.2007,0.1773,-0.0967,-0.2631,-0.2884,-0.3326,-0.3548,-0.373,0.0,0.0,0.0,0.0,0.0,0.0,0.0,0.0,0.0,0.0,0.0,0.0,0.0,0.0,-1.5777,-1.9515,0.0,-2.5039,-2.6517,0.0,0.0,0.0,-2.7324,-2.5842,-2.6582,-2.6584,-2.5039,0.0,0.0,-2.1555,-1.9298,-1.6786,-1.39,-1.1338,-0.9387,-0.8755,-0.7076,-0.5953,-0.5599,-0.4294,-0.3467,-0.3132,-0.2634,-0.2138,-0.1648,-0.0667,0.0168,0.1006,0.1846,0.2519,0.2517,0.2523,0.2525,0.2524,0.1831,0.0496,-0.1633,-0.2931,-0.4069,-0.488,-0.5087,-0.5294,-0.0542,-0.2165,-0.2537,-0.3084,-0.3546,-0.4023,-0.398,-0.3798,-0.4881,-0.5017,-0.4514,-0.6058,-0.6944,-0.735,-0.8014,-0.8394,-0.8617,-0.8931,-0.8851,-0.8558,-0.7948,-0.6873,-0.5502,-0.4393,-0.3641,-0.3062,-0.2409,-0.2233,-0.2239,-0.3472,-0.4008,-0.3905,-0.4327,-0.4464,-0.399,-0.3812,-0.3748,-0.3798,-0.3565,-0.3509,-0.3383,-0.2593,-0.1422,-0.0,0.1486,0.1721,0.0632,-0.0483,-0.1598,-0.2886,-0.331,-0.3424,-0.324,-0.3277,0.0,0.0,0.0,0.0,0.0,0.0,0.0,0.0,0.0,-1.1437,-1.1319,0.0,-1.6063,0.0,-2.0282,-2.3484,-2.6051,-2.6907,0.0,0.0,-2.9449,-2.927,-2.8928,-2.7984,-2.7072,-2.6689,-2.5293,-2.3905,-2.2586,-2.0686,-1.8496,-1.5974,-1.2803,-1.0482,-0.965,-0.8949,-0.8016,-0.6827,-0.5712,-0.4404,-0.294,-0.147,-0.0981,-0.2125,-0.1966,-0.1477,-0.0492,0.0826,0.1661,0.1662,0.1674,0.1681,0.2017,0.1511,0.134,0.1169,-0.0663,-0.2801,-0.3791,-0.4155,-0.4354,-0.0278,-0.2241,-0.2253,-0.2711,-0.3341,-0.378,-0.384,-0.348,-0.4441,-0.4581,-0.4219,-0.5843,-0.6798,-0.7255,-0.7797,-0.8169,-0.8364,-0.8281,-0.7977,-0.7476,-0.6697,-0.575,-0.466,-0.3833,-0.3225,-0.2661,-0.2153,-0.2116,-0.2658,-0.3649,-0.422,-0.4276,-0.4873,-0.5147,-0.476,-0.4018,-0.3771,-0.3914,-0.3559,-0.3235,-0.3113,-0.1154,-0.0428,-0.0953,0.1359,0.2251,0.1501,0.0597,-0.0452,-0.1584,-0.2396,-0.288,-0.3121,-0.3213,-0.3418,0.0,0.0,0.0,0.0,0.0,0.0,0.0,0.0,0.0,0.0,0.0,-1.6998,-1.9622,-2.2596,-2.5444,-2.8129,-2.8934,-2.9843,-3.1241,-3.128,-3.1017,-3.0501,-2.9343,-2.8475,-2.8079,-2.6952,-2.5642,-2.4439,-2.2719,-2.0739,-1.8447,-1.5567,-1.2941,-1.1345,-1.0618,-1.0073,-0.8742,-0.7463,-0.568,-0.3087,-0.1463,-0.0813,-0.179,-0.2278,-0.2278,-0.1628,-0.0981,0.0164,0.1643,0.1981,0.1824,0.2156,0.1832,0.2002,0.2159,0.0828,-0.116,-0.2832,-0.3519,-0.387,-0.0142,-0.2155,-0.2323,-0.2664,-0.3028,-0.3748,-0.3631,-0.3096,-0.3916,-0.425,-0.4088,-0.5447,-0.6305,-0.6687,-0.7431,-0.7777,-0.7999,-0.7301,-0.68,-0.6484,-0.5373,-0.443,-0.3789,-0.3124,-0.2524,-0.2241,-0.1752,-0.2128,-0.323,-0.3937,-0.4403,-0.4652,-0.5361,-0.5655,-0.532,-0.4215,-0.3653,-0.3891,-0.3409,-0.3096,-0.2852,0.0578,0.0999,-0.1375,0.1366,0.3039,0.2954,0.1524,0.0443,-0.0,-0.118,-0.2214,-0.2892,-0.3388,-0.3764,0.0,-0.4593,0.0,0.0,0.0,0.0,0.0,0.0,0.0,0.0,-1.5641,-1.8666,-2.2911,-2.5358,-2.7811,-3.0394,-3.1456,-3.2284,-3.283,-3.2976,-3.2458,-3.1272,-3.0696,-3.017,-2.9349,-2.8892,-2.8043,-2.634,-2.478,-2.3184,-2.0917,-1.8747,-1.6461,-1.3889,-1.2789,-1.1899,-1.0782,-0.9356,-0.7084,-0.3878,-0.2264,-0.1456,-0.1784,-0.21,-0.2426,-0.2421,-0.2261,-0.1293,0.1454,0.2107,0.2275,0.26,0.2623,0.2634,0.2615,0.1476,-0.0165,-0.2173,-0.3018,-0.336,0.0144,-0.1455,-0.2186,-0.2516,-0.2575,-0.3053,-0.3243,-0.3132,-0.3646,-0.43,-0.4936,-0.5874,-0.6462,-0.6851,-0.7399,-0.7684,-0.7851,-0.6084,-0.5562,-0.6103,-0.5203,-0.428,-0.3205,-0.2697,-0.2384,-0.2241,-0.2177,-0.2418,-0.3234,-0.388,-0.4507,-0.5116,-0.5754,-0.5929,-0.5534,0.0,0.0,0.0,-0.2593,-0.2083,-0.1548,0.0999,0.1973,0.1488,0.2248,0.0,0.2026,0.1361,0.0646,-0.0102,-0.0791,0.0,0.0,0.0,0.0,0.0,0.0,0.0,0.0,0.0,0.0,0.0,-1.0276,-1.2022,-1.3459,-1.7684,-2.1606,-2.4682,-2.6915,-2.9013,-3.1223,-3.2519,-3.3429,-3.3887,-3.4065,-3.3798,-3.2953,-3.2141,-3.1199,-3.0374,-2.984,-2.8988,-2.7502,-2.6411,-2.5018,-2.2898,-2.1276,-1.9893,-1.8346,-1.5994,-1.4083,-1.2697,-1.071,-0.8378,-0.5747,-0.3652,-0.2698,-0.3351,-0.2839,-0.2656,-0.2499,-0.1872,-0.1248,-0.0,0.0633,0.1604,0.2407,0.2593,0.2609,0.2605,0.1467,-0.0328,-0.232,-0.2823,-0.2997,0.0296,-0.1041,-0.1945,-0.2418,0.0,-0.2806,-0.2837,-0.2854,-0.3347,-0.3835,-0.4476,-0.5947,-0.6539,-0.6584,-0.7277,-0.739,-0.739,-0.5932,-0.5259,-0.5345,-0.4458,-0.3545,-0.2625,-0.2145,-0.2118,-0.2244,-0.2199,-0.2575,-0.3232,-0.3763,-0.4403,-0.5267,-0.6054,-0.6122,-0.5616,-0.4788,-0.3823,-0.2694,-0.232,-0.1806,-0.1133,0.0713,0.2114,0.2997,0.2894,0.0,0.0,0.0,0.0,0.0,0.0,0.0,0.0,-0.2624,-0.3908,-0.4633,-0.5214,-0.5568,-0.5861,-0.7056,-0.8151,-0.8961,-1.1778,-1.4221,-1.5889,-1.9944,-2.3561,-2.6202,-2.8099,-2.9941,-3.1761,-3.2974,-3.3724,-3.4153,-3.4386,-3.4397,-3.3894,-3.3275,-3.2476,-3.1785,-3.1389,-3.0723,-2.9197,-2.8461,-2.7142,-2.5177,-2.3688,-2.2291,-2.0847,-1.8688,-1.6391,-1.4605,-1.2467,-1.0164,-0.7719,-0.5661,-0.4081,-0.4261,-0.3747,-0.3243,-0.3086,-0.2609,-0.1987,-0.153,-0.0773,0.0156,0.0785,0.1745,0.224,0.1601,0.0643,-0.0485,-0.2278,-0.2615,-0.2628,0.0606,-0.076,-0.1844,-0.2472,-0.2481,-0.2536,-0.2566,-0.2575,-0.2895,0.0,0.0,-0.5503,-0.6248,-0.6254,-0.6945,-0.7052,-0.6728,-0.5742,-0.5089,-0.4755,-0.3559,-0.2804,-0.2342,-0.173,-0.1708,-0.2252,-0.2222,-0.2603,-0.3242,-0.3643,-0.4286,-0.5162,-0.6078,-0.6043,-0.5461,-0.4589,-0.3715,-0.2827,-0.2458,-0.1809,-0.114,0.0285,0.1972,0.3842,0.329,0.3103,0.3441,0.2872,0.2702,0.2788,0.1022,0.009,0.0176,-0.2104,-0.3913,-0.4939,-0.5572,-0.6158,-0.6428,-0.7499,-0.8643,-0.9702,-1.332,-1.6403,-1.838,-2.1711,-2.4746,-2.7344,-2.9031,-3.0686,-3.2399,-3.3373,-3.3963,-3.4366,-3.4684,-3.4729,-3.4481,-3.4063,-3.3496,-3.3009,-3.2907,-3.2512,-3.1099,-3.0575,-2.961,-2.7805,-2.6032,-2.4515,-2.2951,-2.0852,-1.8618,-1.6366,-1.4428,-1.2461,-0.9992,-0.7821,-0.6108,-0.5179,-0.4655,-0.4151,-0.3988,-0.3645,-0.3313,-0.2705,-0.1958,-0.1364,-0.0765,0.031,0.1252,0.0626,-0.0,-0.0797,-0.2075,-0.257,-0.2589,0.1371,-0.0154,-0.185,-0.2484,-0.2353,-0.2545,-0.2587,-0.2634,-0.2634,-0.3275,-0.4383,-0.5037,-0.5587,-0.6176,-0.6564,-0.6638,-0.6411,-0.4567,-0.4121,-0.4604,-0.3088,-0.2354,-0.2224,-0.1593,-0.1573,-0.2282,-0.2253,-0.264,-0.3565,-0.3969,-0.462,-0.5369,-0.5763,-0.5622,-0.4942,-0.4502,-0.3848,-0.3094,-0.2593,-0.1801,-0.1125,0.0141,0.1806,0.3785,0.3241,0.2932,0.2819,0.2921,0.248,0.1669,0.0584,0.0381,0.101,-0.2381,-0.4908,-0.578,-0.5762,-0.6085,-0.6886,-0.739,-0.8817,-1.131,-1.3858,-1.6202,-1.8323,-2.1678,-2.4906,-2.7875,-2.9574,-3.1313,-3.3061,-3.3987,-3.4684,-3.5278,-3.5305,-3.5141,-3.4647,-3.4424,-3.41,-3.3433,-3.3761,-3.3708,-3.2762,-3.2552,-3.1826,-3.0127,-2.7975,-2.6661,-2.5351,-2.3001,-2.032,-1.834,-1.6963,-1.5217,-1.2628,-1.0153,-0.8288,-0.7205,-0.5695,-0.4861,-0.4709,-0.4625,-0.4268,-0.3811,-0.3255,-0.2384,-0.1496,-0.1523,-0.0617,0.0774,-0.0313,-0.2047,-0.2523,-0.2529,-0.2545,0.1705,0.0623,-0.1098,-0.1894,-0.1906,-0.2427,-0.2304,-0.1836,-0.1837,-0.2481,-0.358,-0.4715,-0.528,-0.5606,-0.6612,-0.6709,-0.606,-0.4788,-0.4329,-0.4502,-0.3116,-0.222,-0.2228,-0.1168,-0.1153,-0.2289,-0.2277,-0.2666,-0.3579,-0.3705,-0.4208,-0.5195,-0.5716,-0.5738,-0.5372,-0.4812,-0.4278,-0.3768,-0.273,-0.2069,-0.1666,0.0,0.1795,0.3466,0.3087,0.318,0.3646,0.3273,0.2307,0.0607,-0.0,-0.059,-0.1147,-0.3439,-0.4832,-0.5194,-0.5541,-0.6031,-0.6538,-0.7643,-0.9103,-1.107,-1.3613,-1.598,-1.803,-2.1529,-2.4835,-2.7606,-2.9277,-3.0701,-3.1961,-3.2874,-3.3539,-3.4047,-3.4312,-3.4386,-3.4288,-3.4517,-3.4375,-3.3922,-3.4379,-3.4514,-3.3815,-3.3853,-3.3276,-3.1329,-2.9085,-2.739,-2.7391,-2.5816,-2.3469,-2.0715,-1.918,-1.7198,-1.4629,-1.2313,-1.0302,-0.8759,-0.7213,-0.6211,-0.5889,-0.5632,-0.5113,-0.466,-0.4394,-0.3976,-0.2815,-0.2847,-0.2125,-0.1079,-0.1239,-0.2493,-0.2507,-0.2514,-0.2529,0.2046,0.1421,-0.0319,-0.0963,-0.113,-0.2142,-0.2171,-0.1682,-0.1179,-0.1499,-0.2451,-0.4069,-0.4813,-0.5022,-0.6203,-0.6319,-0.5529,-0.4563,-0.4399,-0.4563,-0.2707,-0.1945,-0.2248,-0.1037,-0.1169,-0.2166,-0.2309,-0.2702,-0.346,-0.3445,-0.407,-0.5416,-0.5814,-0.5969,-0.5856,-0.5091,-0.4565,-0.4158,-0.2726,-0.1924,-0.2063,-0.0139,0.1513,0.2775,0.2957,0.3458,0.4196,0.3559,0.2367,0.0845,-0.0103,-0.1421,-0.3204,-0.4083,-0.454,-0.4659,-0.5289,-0.592,-0.6412,-0.7945,-0.9472,-1.0804,-1.3237,-1.5619,-1.7844,-2.1192,-2.4371,-2.6942,-2.8642,-2.9985,-3.0957,-3.1782,-3.2384,-3.2803,-3.3297,-3.3597,-3.359,-3.4212,-3.4448,-3.3945,-3.4569,-3.51,-3.4896,-3.5017,-3.4553,-3.2836,-3.0488,-2.9337,-2.9226,-2.8504,-2.671,-2.3781,-2.142,-1.9264,-1.6286,-1.4014,-1.2165,-1.0314,-0.8617,-0.7616,-0.6966,-0.6548,-0.6009,-0.5706,-0.569,-0.5265,-0.4575,-0.4157,-0.3746,-0.2889,-0.2756,-0.262,-0.2638,-0.2488,-0.2506,0.1739,0.2075,0.048,-0.0162,-0.033,-0.2007,-0.2524,-0.2358,-0.0842,-0.0669,-0.1653,-0.2941,-0.4014,-0.4865,-0.4652,-0.4913,-0.5322,-0.3486,-0.3202,-0.4153,-0.1522,-0.1065,-0.2301,-0.2125,-0.2249,-0.2371,-0.2367,-0.261,-0.3363,-0.363,-0.4655,-0.6357,-0.6531,-0.6225,-0.5598,-0.5043,-0.4542,-0.4097,-0.1898,-0.1237,-0.2064,-0.0697,0.0688,0.2112,0.2984,0.3653,0.3965,0.3487,0.3287,0.3119,0.0863,-0.1377,-0.3276,-0.3748,-0.4119,-0.4818,-0.4984,-0.5506,-0.6668,-0.8139,-0.9741,-1.1561,-1.3319,-1.5293,-1.7549,-2.0296,-2.3307,-2.6097,-2.8186,-2.9489,-3.08,-3.1784,-3.254,-3.3057,-3.3328,-3.3505,-3.3265,-3.352,-3.3781,-3.3276,-3.4785,-3.5694,-3.5574,-3.6338,-3.6635,-3.5318,-3.4761,-3.3653,-3.1745,-3.0938,-2.9662,-2.6741,-2.4052,-2.1284,-1.8501,-1.5845,-1.3861,-1.2004,-0.9905,-0.8602,-0.7942,-0.7377,-0.6961,-0.6782,-0.6889,-0.6421,-0.5852,-0.5299,-0.4898,-0.4342,-0.3773,-0.3192,-0.3041,-0.2742,-0.2612,0.1108,0.096,0.0322,0.0,0.0,-0.0841,-0.1685,-0.2528,-0.0842,-0.0504,-0.1337,-0.2477,-0.3244,-0.3963,-0.4075,-0.4352,-0.4338,-0.2013,-0.1241,-0.1869,-0.1541,-0.1382,-0.1078,-0.1981,-0.2257,-0.1933,-0.2229,-0.2633,-0.3408,-0.4154,-0.5265,-0.6337,-0.657,-0.6385,-0.5937,-0.5346,-0.4726,-0.4086,-0.1612,0.0409,0.1649,0.152,0.1638,0.2512,0.299,0.3426,0.3799,0.3587,0.3272,0.2851,0.1235,-0.0552,-0.249,-0.2978,-0.3566,-0.4346,-0.4464,-0.5246,-0.6685,-0.8191,-0.9692,-1.1151,-1.3156,-1.5201,-1.7323,-1.992,-2.2544,-2.4807,-2.6633,-2.8103,-2.931,-2.9819,-3.0537,-3.1639,-3.1863,-3.1978,-3.2587,-3.3582,-3.4024,-3.3839,-3.5026,-3.601,-3.6235,-3.7112,-3.7501,-3.7012,-3.7244,-3.634,-3.3834,-3.2844,-3.132,-2.8692,-2.6235,-2.3469,-2.0365,-1.7908,-1.5675,-1.3685,-1.1447,-0.9993,-0.9208,-0.829,-0.786,-0.7864,-0.7783,-0.7584,-0.7289,-0.6428,-0.5876,-0.533,-0.4499,-0.3786,-0.3786,-0.3181,-0.2896,0.0958,0.0,0.0,0.0,0.0,0.0,-0.0674,-0.1685,-0.0505,-0.0337,-0.1009,-0.2162,-0.2624,-0.2742,-0.3654,-0.394,-0.346,-0.1419,-0.0474,-0.0788,-0.2034,-0.187,-0.0934,-0.1693,-0.1972,-0.1797,-0.2092,-0.2645,-0.3414,-0.4544,-0.5485,-0.6169,-0.6373,-0.631,-0.6248,-0.5511,-0.4794,-0.3929,-0.1195,0.1751,0.3959,0.3281,0.2707,0.3051,0.3256,0.344,0.3601,0.3532,0.3096,0.2551,0.1382,-0.0,-0.1545,-0.2265,-0.3053,-0.399,-0.4571,-0.5326,-0.6756,-0.8197,-0.9622,-1.1023,-1.317,-1.5285,-1.7157,-1.9512,-2.1589,-2.3437,-2.5037,-2.6572,-2.8156,-2.8492,-2.9201,-3.0381,-3.0567,-3.1113,-3.1977,-3.326,-3.3892,-3.3955,-3.5293,-3.6478,-3.7097,-3.7755,-3.7976,-3.7833,-3.806,-3.7702,-3.5358,-3.4063,-3.2565,-2.9935,-2.7995,-2.5426,-2.186,-1.9234,-1.7426,-1.5176,-1.2949,-1.1121,-1.0338,-0.9397,-0.881,-0.8835,-0.871,-0.8474,-0.8309,-0.7579,-0.6853,-0.6187,-0.5357,-0.4643,-0.4479,-0.3893,-0.3302,0.1472,0.0,0.0,0.0,0.0,0.0,0.0,-0.0168,0.0,-0.0,-0.0336,-0.1833,-0.2152,-0.1484,-0.2743,-0.3495,-0.3469,-0.2068,-0.1599,-0.2398,-0.2555,-0.2555,-0.2394,-0.1735,-0.1549,-0.1667,-0.2115,-0.2802,-0.3516,-0.4006,-0.497,-0.6086,-0.5877,-0.5921,-0.6123,-0.5344,-0.4514,-0.3622,-0.0524,0.2261,0.4044,0.3912,0.3636,0.3617,0.3924,0.3712,0.3273,0.3309,0.3111,0.2592,0.1393,0.0114,-0.1119,-0.1628,-0.2606,-0.4076,-0.5405,-0.6219,-0.6893,-0.8402,-0.9914,-1.1362,-1.3636,-1.5724,-1.6908,-1.8856,-2.0744,-2.2372,-2.3958,-2.5714,-2.7917,-2.8648,-2.9285,-3.0003,-3.0714,-3.1104,-3.1383,-3.2309,-3.3047,-3.3863,-3.5515,-3.7169,-3.8711,-3.8662,-3.8404,-3.8234,-3.8156,-3.7548,-3.6387,-3.5207,-3.3376,-3.1133,-2.906,-2.6957,-2.3143,-2.0623,-1.8249,-1.6037,-1.3991,-1.2266,-1.1343,-1.0526,-1.023,-0.9949,-0.9945,-0.9691,-0.934,-0.8734,-0.815,-0.7451,-0.6582,-0.6012,-0.5596,-0.4681,-0.4111,0.1964,0.0,0.0,0.0,0.0,0.1179,0.1685,0.1684,0.101,0.0842,0.0673,-0.0503,-0.0834,-0.0496,-0.2135,-0.2926,-0.2897,-0.2261,-0.2265,-0.2751,-0.2589,-0.2589,-0.2423,-0.2238,-0.204,-0.215,-0.228,-0.2656,-0.3237,-0.3735,-0.4303,-0.4813,-0.536,-0.5665,-0.5496,-0.5336,-0.464,-0.3097,-0.0131,0.2667,0.4626,0.4465,0.4171,0.4297,0.4188,0.3715,0.303,0.3092,0.3026,0.2596,0.1874,0.0923,-0.0337,-0.1646,-0.266,-0.3681,-0.5588,-0.6848,-0.7021,-0.8713,-1.0271,-1.1452,-1.3255,-1.5147,-1.6756,-1.8644,-2.0629,-2.2665,-2.4197,-2.603,-2.7648,-2.8233,-2.8431,-2.9263,-2.9616,-3.0191,-3.1151,-3.2019,-3.2877,-3.4156,-3.5943,-3.7535,-3.8263,-3.8592,-3.8609,-3.8398,-3.8451,-3.802,-3.7169,-3.6407,-3.487,-3.2514,-3.0277,-2.7905,-2.4332,-2.1923,-1.9646,-1.7183,-1.5159,-1.3687,-1.2634,-1.1691,-1.125,-1.1199,-1.1231,-1.1008,-1.0637,-1.0468,-0.9885,-0.9013,-0.814,-0.7417,-0.6837,-0.5822,-0.4962,0.2312,0.0999,0.0503,0.0337,0.0505,0.1684,0.2357,0.2527,0.202,0.1682,0.1682,0.1178,0.0671,0.0333,-0.0832,-0.0995,-0.0987,-0.1968,-0.2456,-0.2292,-0.262,-0.2456,-0.2124,-0.2104,-0.2225,-0.2326,-0.2269,-0.2487,-0.2813,-0.3318,-0.3638,-0.3776,-0.4717,-0.5049,-0.4923,-0.511,-0.4517,-0.2726,0.0131,0.2802,0.4759,0.458,0.4267,0.4361,0.4128,0.368,0.3028,0.2861,0.2684,0.2385,0.2257,0.1634,0.045,-0.1324,-0.2582,-0.3229,-0.5386,-0.6782,-0.7065,-0.8777,-1.0445,-1.1288,-1.3019,-1.4777,-1.6483,-1.8221,-2.0399,-2.2555,-2.4408,-2.5991,-2.7402,-2.7796,-2.8094,-2.8785,-2.897,-2.9565,-3.0696,-3.1704,-3.3206,-3.5187,-3.6893,-3.7981,-3.8497,-3.8877,-3.8766,-3.8467,-3.857,-3.8238,-3.7581,-3.6943,-3.6023,-3.363,-3.1424,-2.8729,-2.5691,-2.3089,-2.0438,-1.8,-1.6443,-1.4973,-1.3932,-1.2971,-1.2472,-1.2561,-1.2358,-1.2287,-1.2237,-1.2065,-1.1469,-1.0743,-0.9873,-0.9147,-0.8136,-0.6982,-0.6116,0.2688,0.2522,0.1682,0.1346,0.1346,0.1514,0.2018,0.2692,0.2692,0.2524,0.2524,0.2524,0.2017,0.1344,0.1175,0.1681,0.1676,-0.0831,-0.1822,-0.1325,-0.1988,-0.1988,-0.1489,-0.1308,-0.1443,-0.2032,-0.2242,-0.2163,-0.211,-0.2629,-0.2976,-0.3307,-0.3823,-0.4316,-0.4508,-0.4652,-0.4293,-0.2624,0.0264,0.2793,0.4024,0.4123,0.4068,0.3747,0.3899,0.3611,0.3145,0.2729,0.2318,0.205,0.2287,0.224,0.113,-0.0664,-0.194,-0.2722,-0.4564,-0.6052,-0.6871,-0.8751,-1.0162,-1.1114,-1.2953,-1.4704,-1.6025,-1.7846,-1.9968,-2.2008,-2.4013,-2.5678,-2.6949,-2.8055,-2.8715,-2.8541,-2.9263,-2.9736,-3.0197,-3.1225,-3.3358,-3.6285,-3.7854,-3.9093,-3.9761,-3.9633,-3.9232,-3.8753,-3.8442,-3.805,-3.7557,-3.7074,-3.5968,-3.4336,-3.226,-2.9827,-2.7071,-2.432,-2.1369,-1.8738,-1.7368,-1.6168,-1.5173,-1.44,-1.4043,-1.3841,-1.3833,-1.3609,-1.3499,-1.3333,-1.3047,-1.2316,-1.1456,-1.0731,-0.9718,-0.8559,-0.7391,0.387,0.2692,0.2355,0.2187,0.2355,0.2692,0.2861,0.2692,0.3029,0.3029,0.2692,0.2692,0.2524,0.2355,0.2355,0.2357,0.2525,0.0335,-0.067,-0.0335,0.0503,-0.0335,-0.1669,-0.0986,-0.016,-0.0,-0.0893,-0.1301,-0.1279,-0.153,-0.1897,-0.252,-0.3193,-0.3562,-0.3754,-0.4207,-0.4116,-0.3301,0.0266,0.2412,0.2956,0.3452,0.3796,0.3997,0.3668,0.324,0.2942,0.2654,0.2387,0.2258,0.2375,0.2112,0.1259,-0.0225,-0.1431,-0.2261,-0.3604,-0.5226,-0.6567,-0.8334,-0.9954,-1.1169,-1.292,-1.4509,-1.583,-1.7779,-1.973,-2.1702,-2.4179,-2.6228,-2.7067,-2.8342,-2.9105,-2.9148,-2.9466,-2.9843,-3.0343,-3.1661,-3.3568,-3.5566,-3.7175,-3.8336,-3.9264,-3.9509,-3.9668,-3.9254,-3.9039,-3.869,-3.7865,-3.7478,-3.6659,-3.5182,-3.3114,-3.1075,-2.8345,-2.5643,-2.2777,-2.0265,-1.865,-1.7318,-1.6405,-1.5768,-1.5425,-1.5272,-1.5119,-1.5058,-1.4794,-1.475,-1.4466,-1.403,-1.3309,-1.2302,-1.1435,-1.0257,-0.9077,0.4662,0.351,0.3178,0.3186,0.3195,0.3533,0.3533,0.3195,0.3533,0.3363,0.3195,0.3029,0.3029,0.303,0.2872,0.271,0.2543,0.119,0.0681,0.1191,0.2026,0.101,-0.1343,-0.0658,0.0321,0.0936,0.06,0.0,-0.0432,-0.0702,-0.1369,-0.2155,-0.2837,-0.3222,-0.3288,-0.3868,-0.4019,-0.2931,0.0,0.1885,0.2281,0.2922,0.3273,0.3093,0.2655,0.2219,0.1798,0.1531,0.1757,0.2116,0.2346,0.2208,0.1724,0.0679,-0.0445,-0.1641,-0.3239,-0.4896,-0.6479,-0.8357,-1.0054,-1.1456,-1.3017,-1.4472,-1.5921,-1.7785,-1.9541,-2.1707,-2.42,-2.6115,-2.7046,-2.8388,-2.9306,-2.953,-2.9301,-2.9648,-3.0683,-3.2118,-3.3827,-3.5521,-3.6924,-3.8125,-3.9298,-3.9826,-4.0103,-3.9825,-3.9601,-3.9355,-3.8481,-3.8042,-3.7025,-3.5981,-3.4319,-3.1986,-2.954,-2.69,-2.4348,-2.1992,-1.9771,-1.8528,-1.7457,-1.7066,-1.6538,-1.6482,-1.6358,-1.6282,-1.6169,-1.632,-1.6178,-1.5461,-1.4875,-1.3973,-1.294,-1.174,-1.0407,0.5398,0.4624,0.4135,0.3995,0.4027,0.4034,0.4036,0.4036,0.4036,0.4036,0.3868,0.3533,0.3537,0.3713,0.3063,0.2735,0.2573,0.1726,0.1733,0.2417,0.2732,0.1691,0.0336,0.033,0.0811,0.1269,0.183,0.1482,0.0292,-0.0284,-0.1255,-0.2198,-0.2603,-0.2866,-0.3096,-0.3773,-0.3234,-0.1888,0.0,0.1347,0.1887,0.2258,0.2098,0.1292,0.1006,0.0367,-0.0477,-0.035,0.0464,0.164,0.2321,0.2536,0.2295,0.2038,0.089,-0.0877,-0.3166,-0.5062,-0.6806,-0.8391,-1.0244,-1.1865,-1.32,-1.46,-1.6117,-1.7638,-1.9317,-2.1462,-2.3727,-2.5618,-2.683,-2.8076,-2.8916,-2.9432,-2.9347,-2.9839,-3.1064,-3.224,-3.37,-3.5634,-3.6994,-3.8027,-3.9615,-4.0006,-4.0232,-4.051,-4.0014,-3.9773,-3.9249,-3.8646,-3.7865,-3.6651,-3.5085,-3.3215,-3.0785,-2.8407,-2.5806,-2.3982,-2.1713,-2.0141,-1.8936,-1.8239,-1.7861,-1.7814,-1.7713,-1.7621,-1.758,-1.759,-1.7449,-1.7017,-1.6253,-1.5625,-1.4544,-1.32,-1.1831,0.586,0.5068,0.4614,0.4473,0.4489,0.486,0.4878,0.4542,0.4878,0.471,0.4204,0.3868,0.4056,0.4085,0.3587,0.3093,0.277,0.2086,0.2087,0.2781,0.277,0.2561,0.2025,0.2007,0.1971,0.2238,0.2327,0.2267,0.1625,0.0433,-0.0845,-0.2202,-0.2342,-0.2461,-0.2429,-0.2428,-0.1625,-0.0681,-0.0135,0.0271,0.0408,0.0134,-0.0132,-0.0131,-0.1274,-0.2115,-0.28,-0.2581,-0.115,0.1272,0.2307,0.2762,0.2526,0.2038,0.0783,-0.0999,-0.3154,-0.5137,-0.679,-0.8267,-0.979,-1.1606,-1.3211,-1.4619,-1.5888,-1.7782,-1.9275,-2.0908,-2.2957,-2.4913,-2.5619,-2.6824,-2.7725,-2.8492,-2.9605,-3.0758,-3.1477,-3.2087,-3.3056,-3.4484,-3.5345,-3.6807,-3.8391,-3.9228,-3.9674,-4.0547,-4.0824,-4.0426,-3.9914,-3.9468,-3.8891,-3.722,-3.5761,-3.4119,-3.2162,-2.9803,-2.7586,-2.5943,-2.3909,-2.185,-2.0699,-1.9781,-1.9415,-1.9156,-1.8909,-1.8843,-1.8703,-1.8573,-1.8433,-1.8336,-1.759,-1.6836,-1.6034,-1.4916,-1.3352,0.5944,0.5166,0.5039,0.5082,0.5292,0.5662,0.5694,0.5547,0.5888,0.5717,0.5216,0.4902,0.4927,0.4959,0.4316,0.3653,0.3152,0.2638,0.2644,0.3173,0.3173,0.2953,0.2722,0.2858,0.2969,0.2578,0.2831,0.261,0.2249,0.1027,-0.0574,-0.1969,-0.2238,-0.2222,-0.2198,-0.1919,-0.1513,-0.0968,-0.0825,-0.0963,-0.1936,-0.1629,-0.2007,-0.2388,-0.3509,-0.3944,-0.4074,-0.4035,-0.2663,-0.023,0.0914,0.1366,0.1593,0.1128,0.0112,-0.1454,-0.3518,-0.5426,-0.6637,-0.7792,-0.9453,-1.1576,-1.3351,-1.4767,-1.6034,-1.7753,-1.9109,-2.0279,-2.2506,-2.3855,-2.4873,-2.6238,-2.7364,-2.8255,-3.0089,-3.1322,-3.1447,-3.1978,-3.2962,-3.3982,-3.4821,-3.5858,-3.803,-3.8473,-3.9424,-4.0718,-4.1625,-4.1165,-4.0576,-4.025,-3.9601,-3.7986,-3.6407,-3.4839,-3.2945,-3.0684,-2.8544,-2.69,-2.4877,-2.3103,-2.2134,-2.0981,-2.0549,-2.0154,-2.0063,-1.997,-1.9726,-1.9655,-1.9606,-1.9334,-1.8573,-1.7938,-1.7103,-1.6226,-1.4783,0.5997,0.526,0.5587,0.5823,0.6092,0.6447,0.6663,0.6721,0.6727,0.6727,0.6573,0.6293,0.6145,0.6163,0.523,0.4586,0.3885,0.3205,0.3399,0.3576,0.3744,0.3344,0.3098,0.3213,0.2984,0.2761,0.3179,0.2954,0.228,0.1345,-0.0293,-0.1869,-0.2289,-0.2271,-0.224,-0.2238,-0.2245,-0.2106,-0.1958,-0.2798,-0.3923,-0.346,-0.3548,-0.444,-0.5027,-0.5029,-0.4988,-0.4941,-0.4121,-0.1621,-0.125,-0.0676,-0.0337,-0.0673,-0.1458,-0.2459,-0.4329,-0.5927,-0.6629,-0.7768,-0.9205,-1.1699,-1.3496,-1.4915,-1.6241,-1.7576,-1.8865,-1.9924,-2.177,-2.313,-2.4404,-2.6103,-2.7332,-2.8058,-2.9837,-3.0737,-3.1082,-3.1907,-3.3183,-3.4219,-3.4641,-3.573,-3.7144,-3.8265,-3.9059,-4.0154,-4.1142,-4.1341,-4.1075,-4.09,-4.0026,-3.8817,-3.7095,-3.5465,-3.347,-3.1478,-2.95,-2.76,-2.5442,-2.3703,-2.3049,-2.2257,-2.1636,-2.1133,-2.0897,-2.078,-2.0554,-2.0497,-2.0415,-2.0239,-1.9537,-1.8805,-1.8222,-1.7151,-1.5875,0.6441,0.5987,0.6204,0.6598,0.6848,0.7077,0.715,0.7223,0.7227,0.7063,0.6744,0.6802,0.6662,0.6669,0.5937,0.5296,0.4951,0.4105,0.3768,0.4124,0.4091,0.4069,0.3675,0.3281,0.2865,0.2784,0.2729,0.2675,0.2307,0.1354,-0.0,-0.2039,-0.2737,-0.2702,-0.2394,-0.2957,-0.2822,-0.2412,-0.2963,-0.3956,-0.5254,-0.534,-0.5263,-0.559,-0.6129,-0.6255,-0.5994,-0.6324,-0.5973,-0.4811,-0.3393,-0.2397,-0.2256,-0.3033,-0.3706,-0.4467,-0.5582,-0.6711,-0.7463,-0.8381,-0.9705,-1.1671,-1.333,-1.4654,-1.6188,-1.7599,-1.8658,-1.9691,-2.0881,-2.2351,-2.3811,-2.5422,-2.6576,-2.7493,-2.8541,-2.9635,-3.0295,-3.165,-3.2921,-3.3589,-3.3553,-3.3929,-3.5686,-3.6903,-3.7939,-3.9395,-4.0322,-4.1142,-4.1308,-4.1402,-4.0513,-3.937,-3.7901,-3.6234,-3.4148,-3.1913,-2.9737,-2.8109,-2.6144,-2.4309,-2.3723,-2.3148,-2.2522,-2.2097,-2.159,-2.1396,-2.1254,-2.0847,-2.0578,-2.0531,-2.0343,-1.9611,-1.8789,-1.7966,-1.6778,0.6744,0.6278,0.6476,0.6857,0.7099,0.7344,0.7592,0.7671,0.7714,0.7729,0.7585,0.748,0.7514,0.7359,0.6638,0.6001,0.5486,0.482,0.4485,0.448,0.4459,0.4085,0.3878,0.3314,0.2897,0.2961,0.308,0.2859,0.2322,0.1218,-0.045,-0.2211,-0.3068,-0.319,-0.3006,-0.3569,-0.3727,-0.3599,-0.4013,-0.5015,-0.5897,-0.6267,-0.6713,-0.6847,-0.7346,-0.7457,-0.726,-0.7253,-0.7247,-0.6634,-0.553,-0.434,-0.3905,-0.4438,-0.5104,-0.5527,-0.6533,-0.7288,-0.7898,-0.8984,-1.0272,-1.184,-1.3677,-1.5141,-1.6495,-1.7711,-1.8551,-1.934,-2.0343,-2.1622,-2.3108,-2.4751,-2.5844,-2.6496,-2.7696,-2.876,-2.9445,-3.0882,-3.2386,-3.3009,-3.3071,-3.3972,-3.5043,-3.5826,-3.7076,-3.8613,-3.9467,-4.0229,-4.1336,-4.1374,-4.0905,-3.9907,-3.86,-3.6849,-3.4675,-3.2391,-2.9802,-2.8346,-2.6947,-2.5361,-2.4096,-2.3783,-2.335,-2.2613,-2.1758,-2.1808,-2.1483,-2.118,-2.095,-2.1035,-2.0798,-2.0185,-1.922,-1.8226,-1.7118,0.6733,0.6271,0.6744,0.6953,0.7031,0.7424,0.7677,0.7777,0.7995,0.8023,0.8412,0.8319,0.7993,0.7874,0.7338,0.6529,0.5679,0.553,0.5201,0.4841,0.4483,0.4105,0.3718,0.332,0.326,0.3828,0.3437,0.2877,0.1721,0.0617,-0.076,-0.2391,-0.3567,-0.3825,-0.3796,-0.4371,-0.4799,-0.4796,-0.5229,-0.5808,-0.6395,-0.6905,-0.7354,-0.7854,-0.8483,-0.8612,-0.8421,-0.8301,-0.8028,-0.8066,-0.7552,-0.6701,-0.5941,-0.5582,-0.5873,-0.5983,-0.723,-0.8029,-0.8497,-0.9608,-1.1069,-1.2385,-1.4389,-1.5988,-1.6868,-1.7768,-1.8527,-1.9346,-2.02,-2.124,-2.2427,-2.3693,-2.4715,-2.5388,-2.695,-2.7877,-2.8455,-2.9846,-3.1149,-3.2439,-3.2739,-3.3473,-3.427,-3.5085,-3.6392,-3.7722,-3.847,-3.9387,-4.0465,-4.1024,-4.055,-3.9907,-3.853,-3.6505,-3.4443,-3.2472,-2.9887,-2.8908,-2.7679,-2.6284,-2.4838,-2.4163,-2.3588,-2.2427,-2.1719,-2.1718,-2.1534,-2.1065,-2.0999,-2.1414,-2.1011,-2.0269,-1.9437,-1.835,-1.7374,0.6836,0.6271,0.6744,0.6791,0.6539,0.656,0.6963,0.7409,0.7374,0.7596,0.8219,0.8076,0.7749,0.7646,0.7494,0.6735,0.5889,0.5728,0.5554,0.502,0.4487,0.4297,0.4095,0.3331,0.3623,0.4411,0.3312,0.1452,0.0475,0.0,-0.138,-0.3023,-0.4036,-0.4435,-0.4394,-0.481,-0.5538,-0.5829,-0.6119,-0.67,-0.7276,-0.767,-0.7851,-0.849,-0.9143,-0.957,-0.9468,-0.9228,-0.9086,-0.8816,-0.8931,-0.8658,-0.8066,-0.7606,-0.7397,-0.7569,-0.8508,-0.9307,-0.9601,-1.083,-1.2073,-1.3176,-1.4722,-1.6139,-1.708,-1.7956,-1.8758,-1.9462,-2.0397,-2.131,-2.183,-2.2758,-2.3428,-2.4341,-2.5053,-2.5921,-2.7128,-2.8314,-2.9559,-3.0951,-3.1852,-3.2879,-3.3586,-3.4342,-3.5336,-3.6478,-3.726,-3.7964,-3.8826,-3.9462,-3.9561,-3.8998,-3.8197,-3.6033,-3.3823,-3.1979,-2.9993,-2.9554,-2.8531,-2.7368,-2.5982,-2.477,-2.3732,-2.273,-2.1619,-2.1154,-2.0984,-2.0967,-2.0926,-2.0962,-2.0726,-2.0491,-1.9667,-1.8721,-1.8149,0.6586,0.6469,0.6469,0.6337,0.6227,0.6298,0.6525,0.6755,0.6805,0.7215,0.7466,0.7497,0.7357,0.7271,0.6915,0.6356,0.5892,0.5528,0.5177,0.4657,0.4305,0.3936,0.3917,0.3153,0.3462,0.2895,0.0499,-0.1463,-0.2559,-0.2357,-0.2938,-0.3822,-0.4982,-0.5218,-0.5302,-0.5991,-0.6559,-0.6845,-0.699,-0.728,-0.8,-0.8251,-0.8682,-0.9237,-0.9918,-1.0328,-1.0199,-1.0399,-1.0411,-1.0426,-1.0256,-1.0089,-0.9744,-0.9566,-0.9161,-0.9032,-0.9932,-1.0752,-1.0972,-1.2235,-1.3547,-1.4214,-1.5322,-1.6587,-1.7592,-1.8469,-1.9136,-2.0086,-2.0888,-2.1593,-2.1957,-2.2267,-2.2889,-2.3502,-2.3994,-2.4833,-2.5974,-2.706,-2.8216,-2.9496,-3.0656,-3.1823,-3.3004,-3.3768,-3.4459,-3.5223,-3.6132,-3.6726,-3.7294,-3.7997,-3.8489,-3.8364,-3.7665,-3.613,-3.4119,-3.2524,-3.0809,-3.0219,-2.953,-2.8277,-2.7062,-2.5827,-2.4502,-2.315,-2.2119,-2.1168,-2.0823,-2.0845,-2.0743,-2.0665,-2.0653,-2.0455,-1.9851,-1.9243,-1.8552,0.6043,0.6208,0.5906,0.5751,0.5619,0.5729,0.5792,0.5984,0.6081,0.635,0.6766,0.6601,0.6642,0.6741,0.6521,0.5949,0.552,0.4953,0.462,0.4283,0.3932,0.3559,0.3003,0.2268,0.1724,-0.0171,-0.2005,-0.4752,-0.4025,-0.4282,-0.4849,-0.5245,-0.5793,-0.6176,-0.6389,-0.6909,-0.7456,-0.7715,-0.7715,-0.786,-0.8126,-0.9066,-0.9789,-1.0058,-1.0756,-1.1035,-1.1276,-1.1233,-1.1687,-1.1728,-1.1667,-1.117,-1.1033,-1.1208,-1.108,-1.0711,-1.1334,-1.1687,-1.2436,-1.3529,-1.4645,-1.5377,-1.6339,-1.7528,-1.8506,-1.9193,-1.9722,-2.0876,-2.1399,-2.1748,-2.1989,-2.2384,-2.2693,-2.2975,-2.3394,-2.4097,-2.4989,-2.6025,-2.6996,-2.8266,-2.9452,-3.068,-3.1771,-3.2833,-3.3469,-3.3977,-3.4848,-3.5041,-3.5692,-3.6796,-3.744,-3.7642,-3.7145,-3.5973,-3.4722,-3.3674,-3.2222,-3.1245,-3.0491,-2.938,-2.8201,-2.6988,-2.5489,-2.4014,-2.2807,-2.1897,-2.1334,-2.0835,-2.0796,-2.0731,-2.0641,-2.0479,-2.0095,-1.9576,-1.8902,0.5397,0.4996,0.4993,0.4542,0.4091,0.4144,0.4352,0.4706,0.4724,0.4981,0.5596,0.573,0.5769,0.5714,0.613,0.5521,0.4884,0.4573,0.4236,0.3541,0.3544,0.3362,0.2465,0.1037,-0.1201,-0.2725,-0.3681,-0.3292,-0.373,-0.5128,-0.583,-0.6042,-0.6765,-0.7149,-0.7154,-0.7694,-0.7943,-0.8454,-0.8295,-0.8295,-0.8724,-0.9862,-1.0574,-1.0961,-1.1386,-1.1796,-1.2102,-1.2048,-1.2382,-1.3206,-1.2612,-1.2224,-1.221,-1.2255,-1.2624,-1.2606,-1.263,-1.2464,-1.332,-1.4468,-1.5675,-1.6518,-1.7377,-1.8415,-1.9296,-1.9869,-2.0372,-2.0891,-2.1264,-2.1556,-2.1916,-2.2001,-2.2247,-2.2502,-2.2837,-2.345,-2.4307,-2.5087,-2.6031,-2.7075,-2.8341,-2.9352,-3.044,-3.1447,-3.2353,-3.2946,-3.3415,-3.3645,-3.4228,-3.5461,-3.6638,-3.6898,-3.6729,-3.5726,-3.5113,-3.4119,-3.3198,-3.2104,-3.1438,-3.057,-2.9277,-2.7989,-2.6592,-2.513,-2.3858,-2.2646,-2.1912,-2.1378,-2.0972,-2.0833,-2.078,-2.069,-2.0702,-1.99,-1.922,0.3244,0.3409,0.3705,0.3705,0.3563,0.3606,0.3805,0.4155,0.4188,0.4266,0.4199,0.4358,0.4581,0.4863,0.5076,0.4791,0.4164,0.3669,0.3152,0.2632,0.2814,0.2456,0.0694,-0.1547,-0.4101,-0.4233,-0.487,-0.4984,-0.4915,-0.5477,-0.6487,-0.7022,-0.7877,-0.8398,-0.8239,-0.8775,-0.9123,-0.9195,-0.9018,-0.8868,-0.9291,-0.9953,-1.0684,-1.0882,-1.1495,-1.215,-1.2531,-1.284,-1.3087,-1.3692,-1.335,-1.3232,-1.3276,-1.3173,-1.3265,-1.4154,-1.4404,-1.4495,-1.4669,-1.5693,-1.6605,-1.7446,-1.8212,-1.9163,-2.008,-2.0718,-2.0945,-2.1329,-2.1693,-2.1963,-2.2103,-2.2118,-2.2339,-2.2523,-2.2515,-2.3201,-2.3843,-2.4281,-2.5219,-2.6243,-2.7243,-2.8262,-2.9262,-3.0183,-3.1102,-3.1646,-3.2295,-3.2672,-3.3353,-3.4334,-3.5478,-3.646,-3.6086,-3.541,-3.5062,-3.4531,-3.3719,-3.287,-3.2644,-3.1653,-3.0309,-2.893,-2.7543,-2.6118,-2.4727,-2.3651,-2.2635,-2.1789,-2.1145,-2.0909,-2.0804,-2.0678,-2.0563,-2.0261,-1.9461,0.1458,0.1458,0.248,0.3065,0.3214,0.3254,0.3439,0.3472,0.336,0.3263,0.3161,0.3351,0.3746,0.4334,0.436,0.44,0.3621,0.2422,0.1905,0.1738,0.1393,0.0521,-0.1375,-0.3928,-0.4583,-0.4378,-0.5384,-0.5837,-0.6259,-0.6823,-0.7533,-0.8355,-0.9031,-0.935,-0.9671,-1.0014,-1.034,-1.012,-0.9678,-0.9518,-0.9621,-1.0113,-1.055,-1.0967,-1.1532,-1.2239,-1.2789,-1.3112,-1.3507,-1.3848,-1.4033,-1.4056,-1.3922,-1.4071,-1.4553,-1.5363,-1.594,-1.617,-1.6241,-1.6728,-1.7472,-1.8249,-1.8927,-1.9775,-2.0295,-2.1117,-2.1478,-2.1495,-2.175,-2.2045,-2.2323,-2.2261,-2.2349,-2.236,-2.2387,-2.3128,-2.3704,-2.404,-2.4648,-2.5878,-2.6847,-2.7308,-2.8224,-2.9124,-2.9829,-3.0381,-3.0975,-3.1699,-3.247,-3.3312,-3.4206,-3.5218,-3.525,-3.4835,-3.4762,-3.4395,-3.381,-3.3343,-3.3141,-3.2663,-3.1233,-2.9937,-2.8482,-2.7053,-2.5729,-2.4454,-2.3348,-2.2241,-2.1327,-2.1021,-2.078,-2.0665,-2.0527,-2.0261,-1.9843,0.1021,-0.073,0.1313,0.2188,0.2337,0.2365,0.2378,0.2384,0.181,0.1987,0.2177,0.2691,0.3076,0.3791,0.4144,0.3838,0.2532,0.017,0.0513,0.0856,0.0514,-0.1715,-0.3413,-0.4072,-0.4389,-0.5051,-0.5732,-0.6697,-0.7616,-0.8065,-0.9411,-1.0708,-1.0236,-1.0338,-1.0457,-1.0773,-1.0894,-1.0674,-1.0321,-1.01,-1.0028,-1.0367,-1.0836,-1.1267,-1.176,-1.2285,-1.2791,-1.3186,-1.3575,-1.3979,-1.4367,-1.4651,-1.4549,-1.509,-1.5829,-1.6797,-1.7494,-1.7632,-1.7644,-1.7474,-1.7972,-1.8888,-1.9663,-2.0013,-2.0441,-2.0521,-2.093,-2.1498,-2.1672,-2.1873,-2.2039,-2.2138,-2.2198,-2.2308,-2.2435,-2.2815,-2.3359,-2.3585,-2.4344,-2.5535,-2.6328,-2.696,-2.7541,-2.837,-2.9017,-2.9688,-3.0611,-3.1257,-3.1519,-3.2274,-3.2886,-3.3634,-3.4054,-3.4114,-3.4178,-3.3853,-3.3218,-3.2791,-3.251,-3.2427,-3.1967,-3.0657,-2.9451,-2.807,-2.6714,-2.5398,-2.4037,-2.3135,-2.2085,-2.1258,-2.0768,-2.0816,-2.0599,-2.0355,-1.9947,0.0875,-0.1166,-0.1591,-0.0721,0.0866,0.1305,0.1459,0.162,0.1788,0.1061,0.0309,0.1256,0.2075,0.2264,0.1962,0.1154,-0.05,-0.0842,-0.0845,-0.1019,-0.1873,-0.2895,-0.3907,-0.4581,-0.4917,-0.523,-0.5915,-0.7088,-0.8015,-0.9123,-1.0313,-1.113,-1.099,-1.1023,-1.1258,-1.1308,-1.1253,-1.1142,-1.0728,-1.0364,-1.0735,-1.0554,-1.0866,-1.1489,-1.1361,-1.2067,-1.2633,-1.2921,-1.3643,-1.4228,-1.4517,-1.4697,-1.5052,-1.6002,-1.7194,-1.8068,-1.8756,-1.8908,-1.8664,-1.8371,-1.859,-1.9247,-1.9903,-2.0118,-2.0322,-2.0486,-2.0765,-2.1119,-2.1384,-2.1627,-2.1715,-2.1994,-2.2076,-2.2214,-2.2451,-2.2642,-2.3027,-2.3284,-2.3825,-2.4895,-2.5861,-2.6667,-2.714,-2.7696,-2.8362,-2.8956,-2.9909,-3.0715,-3.0983,-3.1251,-3.1869,-3.2365,-3.2826,-3.2848,-3.2922,-3.2787,-3.2537,-3.2288,-3.1936,-3.2016,-3.2032,-3.1634,-3.0437,-2.9075,-2.7742,-2.6338,-2.5071,-2.403,-2.2967,-2.1932,-2.1396,-2.1016,-2.0798,-2.0626,-2.0392,0.0584,-0.1601,-0.358,-0.2993,-0.0715,-0.0285,0.0143,0.0722,0.1024,0.0597,-0.0916,-0.0,0.0156,0.0,-0.032,-0.1134,-0.1968,-0.1993,-0.234,-0.269,-0.2871,-0.3386,-0.4229,-0.4905,-0.5414,-0.5564,-0.6761,-0.7937,-0.9054,-1.0149,-1.088,-1.1571,-1.1892,-1.1901,-1.1938,-1.1782,-1.1743,-1.1803,-1.1457,-1.1074,-1.1573,-1.1228,-1.109,-1.1723,-1.1607,-1.1792,-1.2373,-1.2861,-1.3703,-1.4459,-1.4833,-1.5026,-1.5803,-1.6739,-1.8063,-1.9088,-1.9732,-1.9745,-1.945,-1.9108,-1.8956,-1.9304,-1.9571,-1.9966,-2.0297,-2.0407,-2.0565,-2.0738,-2.106,-2.1228,-2.1213,-2.1321,-2.1612,-2.1628,-2.1833,-2.2156,-2.2749,-2.3154,-2.3526,-2.4198,-2.5288,-2.661,-2.6779,-2.7204,-2.7966,-2.8462,-2.9194,-2.9906,-3.0077,-3.0469,-3.0898,-3.1347,-3.1576,-3.1532,-3.1429,-3.1642,-3.1975,-3.1827,-3.1655,-3.1779,-3.1741,-3.1466,-3.1037,-2.9577,-2.8254,-2.7246,-2.6073,-2.4684,-2.3623,-2.2767,-2.2017,-2.1418,-2.1359,-2.1185,-2.1245,-0.0146,-0.2328,-0.3833,-0.3533,-0.2136,-0.2115,-0.1545,-0.0846,-0.0856,-0.0727,-0.0744,-0.1494,-0.1967,-0.2006,-0.1879,-0.2222,-0.2414,-0.262,-0.298,-0.3492,-0.3685,-0.4539,-0.5392,-0.5903,-0.6084,-0.7059,-0.7921,-0.8946,-1.0414,-1.0715,-1.1299,-1.1975,-1.2582,-1.2894,-1.3126,-1.3214,-1.312,-1.2974,-1.2537,-1.244,-1.2321,-1.2157,-1.1939,-1.1985,-1.1926,-1.2,-1.221,-1.2885,-1.378,-1.4645,-1.55,-1.5594,-1.5585,-1.7597,-1.9017,-1.9936,-2.0178,-2.0358,-2.0358,-1.9604,-1.9365,-1.9365,-1.9646,-1.9584,-1.9979,-2.0182,-2.0181,-2.0309,-2.0388,-2.0348,-2.0361,-2.0346,-2.0851,-2.1188,-2.1392,-2.1761,-2.234,-2.2974,-2.346,-2.3823,-2.527,-2.6453,-2.6559,-2.6867,-2.7502,-2.817,-2.8618,-2.9021,-2.9221,-2.9693,-3.0193,-3.0351,-3.0715,-3.0743,-3.0754,-3.1144,-3.1329,-3.1333,-3.1262,-3.1291,-3.127,-3.1029,-3.0368,-2.9643,-2.8823,-2.7741,-2.6608,-2.5187,-2.4231,-2.3174,-2.2263,-2.1616,-2.1709,-2.1906,-2.1679,-0.1015,-0.3309,-0.3533,-0.3636,-0.3203,-0.2772,-0.2491,-0.2218,-0.1966,-0.1998,-0.2173,-0.2485,-0.2371,-0.2414,-0.2459,-0.2497,-0.2533,-0.2885,-0.3408,-0.3968,-0.4155,-0.5015,-0.5879,-0.6421,-0.693,-0.7753,-0.8605,-0.9785,-1.1254,-1.1409,-1.1989,-1.282,-1.349,-1.3831,-1.3461,-1.3313,-1.3562,-1.3539,-1.3428,-1.3316,-1.3384,-1.2956,-1.2543,-1.245,-1.2195,-1.2142,-1.2376,-1.2974,-1.3934,-1.5099,-1.6059,-1.5998,-1.6275,-1.8295,-1.9603,-2.0345,-2.0669,-2.0786,-2.0709,-2.0168,-1.9824,-1.9861,-1.9683,-1.9596,-1.9979,-2.0106,-2.0067,-1.9987,-2.0165,-2.0143,-1.9998,-2.0281,-2.0805,-2.1161,-2.1408,-2.167,-2.2196,-2.2777,-2.3316,-2.3686,-2.4687,-2.5961,-2.6382,-2.6402,-2.6866,-2.7211,-2.7764,-2.8096,-2.8307,-2.9062,-2.9623,-2.9769,-2.9941,-3.0017,-3.0154,-3.047,-3.064,-3.0658,-3.058,-3.0449,-3.0359,-3.05,-3.0358,-2.9824,-2.9106,-2.8274,-2.6621,-2.5155,-2.451,-2.3516,-2.2688,-2.2199,-2.2406,-2.2397,-2.2276,-0.2003,-0.3689,-0.392,-0.4016,-0.3981,-0.3416,-0.3145,-0.2887,-0.25,-0.2527,-0.2558,-0.2154,-0.2175,-0.2356,-0.2398,-0.2603,-0.2794,-0.3,-0.3699,-0.4101,-0.4624,-0.5493,-0.6385,-0.7099,-0.7929,-0.876,-0.945,-1.0634,-1.1415,-1.2069,-1.2775,-1.3696,-1.438,-1.4368,-1.416,-1.431,-1.4211,-1.4189,-1.4065,-1.4164,-1.4097,-1.3702,-1.3271,-1.2925,-1.2788,-1.2567,-1.2834,-1.3497,-1.4182,-1.5615,-1.6402,-1.657,-1.741,-1.8619,-2.0084,-2.0771,-2.1188,-2.1175,-2.1109,-2.1044,-2.076,-2.0838,-2.0118,-1.9864,-1.9941,-1.9878,-1.965,-1.961,-1.9807,-1.9568,-1.9427,-1.9863,-2.0249,-2.0584,-2.0855,-2.1101,-2.156,-2.2146,-2.2637,-2.3141,-2.425,-2.5357,-2.6248,-2.6133,-2.6205,-2.6411,-2.6739,-2.7131,-2.7651,-2.8497,-2.9155,-2.9279,-2.9565,-2.9614,-2.9831,-2.9888,-3.0035,-3.0007,-3.0003,-2.9961,-2.9848,-3.0003,-2.9909,-2.9794,-2.8732,-2.7705,-2.6282,-2.5006,-2.4242,-2.3777,-2.3205,-2.304,-2.3062,-2.3028,-2.2757,-0.2803,-0.3776,-0.4833,-0.4803,-0.4379,-0.3927,-0.3392,-0.2884,-0.2748,-0.2352,-0.168,-0.1822,-0.2124,-0.2293,-0.2324,-0.267,-0.3035,-0.3103,-0.3805,-0.4521,-0.5053,-0.6111,-0.7168,-0.7877,-0.8711,-0.9721,-1.0581,-1.0937,-1.157,-1.2727,-1.3732,-1.4318,-1.4836,-1.4943,-1.5169,-1.5268,-1.5009,-1.4854,-1.4884,-1.4849,-1.4797,-1.4429,-1.4031,-1.3825,-1.3375,-1.3384,-1.3514,-1.4035,-1.5135,-1.6221,-1.7215,-1.7379,-1.8024,-1.9278,-2.0221,-2.1031,-2.15,-2.151,-2.1537,-2.1368,-2.1314,-2.1159,-2.0362,-2.0004,-1.9916,-1.9638,-1.9275,-1.9112,-1.9161,-1.8729,-1.8533,-1.8914,-1.9299,-1.9574,-1.9826,-2.017,-2.0618,-2.1107,-2.1754,-2.2765,-2.4351,-2.5485,-2.6129,-2.6091,-2.5789,-2.6101,-2.6372,-2.6619,-2.7184,-2.8477,-2.887,-2.8956,-2.9212,-2.9436,-2.9583,-2.965,-2.9599,-2.9605,-2.9686,-2.9691,-2.9653,-2.9268,-2.9095,-2.8744,-2.8092,-2.7056,-2.5564,-2.472,-2.4152,-2.3625,-2.3466,-2.3549,-2.3709,-2.3629,-2.3568,-0.3203,-0.4141,-0.4126,-0.4371,-0.46,-0.458,-0.4316,-0.3792,-0.3521,-0.3125,-0.2999,-0.3029,-0.2925,-0.2825,-0.2742,-0.2939,-0.314,-0.3649,-0.4343,-0.4889,-0.5596,-0.6626,-0.7526,-0.8276,-0.9283,-1.0143,-1.1009,-1.1724,-1.288,-1.3707,-1.403,-1.4273,-1.5337,-1.5629,-1.5876,-1.6102,-1.5885,-1.5543,-1.5703,-1.563,-1.547,-1.5247,-1.4877,-1.4509,-1.4403,-1.4255,-1.4326,-1.4849,-1.5952,-1.6637,-1.7503,-1.8067,-1.9449,-2.0119,-2.0894,-2.1635,-2.155,-2.1269,-2.1456,-2.1363,-2.1256,-2.1155,-2.04,-2.0132,-1.9903,-1.9449,-1.8926,-1.8791,-1.8631,-1.8495,-1.8309,-1.8399,-1.8824,-1.9181,-1.9419,-1.9739,-2.0228,-2.0979,-2.1635,-2.2821,-2.4422,-2.5184,-2.585,-2.5833,-2.5689,-2.5846,-2.6117,-2.6374,-2.6905,-2.8073,-2.8697,-2.8782,-2.9025,-2.9386,-2.9379,-2.9475,-2.9349,-2.9374,-2.9459,-2.9294,-2.8643,-2.8259,-2.8122,-2.7521,-2.6587,-2.5826,-2.4781,-2.4115,-2.3686,-2.3789,-2.3638,-2.4011,-2.4162,-2.4096,-2.4201,-0.3568,-0.4224,-0.436,-0.4729,-0.5212,-0.5366,-0.5232,-0.4812,-0.4292,-0.4034,-0.3905,-0.3934,-0.3844,-0.3484,-0.3552,-0.3765,-0.3838,-0.4192,-0.4888,-0.5633,-0.6261,-0.7024,-0.7936,-0.901,-0.9866,-1.0727,-1.1605,-1.2503,-1.3275,-1.4193,-1.4532,-1.5369,-1.6256,-1.6268,-1.6527,-1.6657,-1.6443,-1.6239,-1.6215,-1.6074,-1.6037,-1.5895,-1.5661,-1.5484,-1.5434,-1.5229,-1.5298,-1.5971,-1.6477,-1.7278,-1.8101,-1.9048,-2.0239,-2.1094,-2.134,-2.1907,-2.1376,-2.1216,-2.1283,-2.1216,-2.1009,-2.0856,-2.0361,-1.9966,-1.9562,-1.9237,-1.8753,-1.8459,-1.8408,-1.8356,-1.8214,-1.8092,-1.8571,-1.9031,-1.9233,-1.9567,-2.0315,-2.1111,-2.207,-2.3144,-2.417,-2.4964,-2.539,-2.5386,-2.5612,-2.6056,-2.6328,-2.6552,-2.7052,-2.7866,-2.8458,-2.8558,-2.8952,-2.9422,-2.9404,-2.9432,-2.9438,-2.9333,-2.9546,-2.9066,-2.8062,-2.7224,-2.6962,-2.5977,-2.5015,-2.4389,-2.3869,-2.3587,-2.3174,-2.3566,-2.4044,-2.4382,-2.4701,-2.4921,-2.5032,-0.3902,-0.4442,-0.5376,-0.573,-0.5803,-0.6257,-0.6241,-0.5919,-0.5318,-0.4827,-0.4699,-0.4842,-0.4614,-0.4412,-0.4608,-0.4829,-0.4771,-0.4994,-0.5391,-0.623,-0.6818,-0.7686,-0.8641,-0.9784,-1.055,-1.1427,-1.2319,-1.286,-1.2869,-1.396,-1.5417,-1.6616,-1.6459,-1.6543,-1.7065,-1.714,-1.7077,-1.6873,-1.6568,-1.632,-1.6028,-1.6028,-1.632,-1.631,-1.632,-1.6301,-1.6574,-1.7007,-1.7298,-1.8142,-1.8982,-1.9657,-2.0772,-2.1737,-2.2015,-2.176,-2.141,-2.1136,-2.1149,-2.1122,-2.0996,-2.0602,-2.0221,-1.9966,-1.9574,-1.8961,-1.8493,-1.8113,-1.8161,-1.7913,-1.761,-1.7782,-1.8254,-1.8673,-1.8967,-1.948,-2.0367,-2.132,-2.2526,-2.3584,-2.4516,-2.5292,-2.5662,-2.5666,-2.6342,-2.6616,-2.6616,-2.6825,-2.7393,-2.8015,-2.8295,-2.8395,-2.8905,-2.9395,-2.944,-2.9491,-2.9404,-2.952,-2.9362,-2.8737,-2.7537,-2.6602,-2.5643,-2.4807,-2.3735,-2.3479,-2.3134,-2.2889,-2.301,-2.3588,-2.4165,-2.4742,-2.5202,-2.5675,-2.604,-0.4305,-0.5108,-0.5587,-0.5908,-0.609,-0.6106,-0.6623,-0.7241,-0.7135,-0.6583,-0.603,-0.5915,-0.5822,-0.5614,-0.578,-0.5862,-0.5799,-0.6037,-0.6264,-0.6985,-0.7655,-0.8274,-0.9041,-1.0291,-1.1124,-1.2192,-1.2769,-1.3318,-1.3575,-1.4669,-1.5581,-1.6119,-1.6485,-1.7297,-1.7569,-1.7476,-1.7743,-1.7772,-1.7498,-1.7228,-1.7056,-1.6895,-1.7026,-1.7026,-1.7026,-1.7026,-1.7298,-1.7721,-1.8012,-1.8433,-1.9413,-2.0376,-2.1471,-2.1939,-2.2051,-2.1867,-2.1451,-2.1109,-2.1082,-2.1109,-2.0982,-2.0869,-2.0488,-2.0106,-1.9611,-1.8722,-1.8179,-1.7948,-1.7766,-1.7382,-1.736,-1.7712,-1.8063,-1.8456,-1.8841,-1.9652,-2.0491,-2.1657,-2.2949,-2.3836,-2.4806,-2.5426,-2.5816,-2.6352,-2.7062,-2.7295,-2.7166,-2.7214,-2.7703,-2.8146,-2.8312,-2.8527,-2.8922,-2.9282,-2.9378,-2.9258,-2.9103,-2.8656,-2.8324,-2.7755,-2.7079,-2.5801,-2.4426,-2.3623,-2.2821,-2.2671,-2.2809,-2.2722,-2.3007,-2.3741,-2.4458,-2.5051,-2.5868,-2.6516,-2.6876,-0.4358,-0.5145,-0.5628,-0.6206,-0.6651,-0.6928,-0.7561,-0.816,-0.8453,-0.8296,-0.7903,-0.7563,-0.724,-0.7066,-0.7238,-0.7274,-0.7217,-0.717,-0.7746,-0.8285,-0.8499,-0.8969,-0.9871,-1.0785,-1.144,-1.2481,-1.3212,-1.3767,-1.453,-1.5112,-1.581,-1.6406,-1.7297,-1.7683,-1.7834,-1.8309,-1.8738,-1.8959,-1.8555,-1.8333,-1.8117,-1.7934,-1.76,-1.759,-1.7731,-1.7731,-1.8012,-1.8433,-1.8714,-1.9262,-2.0237,-2.1069,-2.1881,-2.2297,-2.2277,-2.1867,-2.143,-2.1141,-2.1069,-2.1109,-2.0982,-2.0869,-2.0759,-2.0541,-1.9761,-1.903,-1.8831,-1.8596,-1.7816,-1.7417,-1.7736,-1.8024,-1.8415,-1.8726,-1.9346,-2.0071,-2.095,-2.2082,-2.3119,-2.3888,-2.4846,-2.5722,-2.6111,-2.6602,-2.7359,-2.7947,-2.78,-2.7851,-2.8179,-2.8424,-2.8575,-2.8642,-2.9003,-2.9168,-2.9036,-2.8867,-2.8533,-2.7977,-2.7473,-2.6761,-2.6163,-2.4523,-2.3182,-2.2777,-2.2405,-2.2361,-2.25,-2.2675,-2.3271,-2.3955,-2.4661,-2.5524,-2.6349,-2.7157,-2.7622,-0.4383,-0.4884,-0.5894,-0.6724,-0.7536,-0.7985,-0.8472,-0.9019,-0.9506,-0.9703,-0.9621,-0.9221,-0.8824,-0.8695,-0.9058,-0.9109,-0.9036,-0.8999,-0.9327,-0.9723,-0.9821,-1.0414,-1.1038,-1.1815,-1.2449,-1.3079,-1.3778,-1.4597,-1.5269,-1.5804,-1.6374,-1.7158,-1.7607,-1.7873,-1.8693,-1.9138,-1.955,-1.9859,-1.9681,-1.9622,-1.9226,-1.8704,-1.8184,-1.8142,-1.8142,-1.8433,-1.8573,-1.8854,-1.9262,-1.9959,-2.0792,-2.1622,-2.2128,-2.2525,-2.2308,-2.2078,-2.1477,-2.1096,-2.1082,-2.1109,-2.0982,-2.0781,-2.0876,-2.0631,-1.9952,-1.9749,-1.9534,-1.9181,-1.8404,-1.7966,-1.8289,-1.843,-1.8829,-1.9287,-1.9903,-2.0464,-2.1463,-2.2393,-2.322,-2.401,-2.5008,-2.5927,-2.6513,-2.7031,-2.7547,-2.8283,-2.8508,-2.8594,-2.8692,-2.8723,-2.8871,-2.8969,-2.9031,-2.9083,-2.8888,-2.8307,-2.7894,-2.7638,-2.705,-2.6199,-2.5246,-2.3904,-2.3023,-2.247,-2.2232,-2.2013,-2.2434,-2.2885,-2.3484,-2.4063,-2.5267,-2.6018,-2.6696,-2.7452,-2.8017,-0.4734,-0.5812,-0.674,-0.7266,-0.7664,-0.828,-0.8744,-0.9226,-0.9842,-1.0218,-1.0315,-1.0496,-1.0263,-0.9614,-1.0287,-1.0622,-1.0765,-1.0631,-1.0955,-1.133,-1.1573,-1.1931,-1.2272,-1.2912,-1.3885,-1.4399,-1.4918,-1.5201,-1.585,-1.6144,-1.6651,-1.7369,-1.8168,-1.8522,-1.9085,-1.9675,-1.996,-2.0272,-2.0175,-1.9746,-1.964,-1.9127,-1.8735,-1.8573,-1.8433,-1.8433,-1.8573,-1.9133,-1.9401,-1.9959,-2.0918,-2.1885,-2.2361,-2.2699,-2.2572,-2.2168,-2.1565,-2.1416,-2.1375,-2.1303,-2.1189,-2.1189,-2.1208,-2.0926,-2.0566,-2.054,-2.0475,-2.0449,-1.9676,-1.8957,-1.8879,-1.8963,-1.9289,-2.016,-2.0823,-2.1306,-2.2057,-2.2696,-2.3349,-2.4356,-2.5486,-2.62,-2.6855,-2.743,-2.7909,-2.8438,-2.8656,-2.871,-2.8956,-2.9202,-2.9316,-2.9196,-2.9206,-2.9031,-2.8706,-2.786,-2.7371,-2.71,-2.6597,-2.5589,-2.4669,-2.3718,-2.2832,-2.2362,-2.171,-2.1359,-2.1926,-2.2815,-2.3508,-2.4261,-2.565,-2.671,-2.7171,-2.7636,-2.8232]}]]